     2              OBSERVATION DATA    GPS                 RINEX VERSION / TYPE
teqc 1999Jul19 20000201 02:03:06UTC                         PGM / RUN BY / DATE
                                                            COMMENT
L2: 1 -> 1; 5 -> 5; 60 -> 9                                 COMMENT
L2: 1 -> 1; 5 -> 5; 60 -> 9                                 COMMENT
L2: 1 -> 1; 5 -> 5; 60 -> 9                                 COMMENT
L2: 1 -> 1; 5 -> 5; 60 -> 9                                 COMMENT
L2: 1 -> 1; 5 -> 5; 60 -> 9                                 COMMENT
Original Marker Name: 0004                                  COMMENT
Campaign Name: Imperial Valley Leveling                     COMMENT
4-Character Station Name: 0016                              COMMENT
6-Character Antenna Code: TRMSST                            COMMENT
Vertical Measurement Point: BPA                             COMMENT
Vertical Offset to Rinex Ref. Point: 0.0000                 COMMENT
Radial Measurement Point: RRP                               COMMENT
Radial Offset to Rinex Ref. Point: 0.0000                   COMMENT
Antenna Height from Field Measurement: 2.2160 m             COMMENT
Additional Antenna Identification Info.:                    COMMENT
Model 14532.00                                              COMMENT
Original XYZ: -2311923.1378 -4843039.0154 3435154.8377      COMMENT
New XYZ position is based on association with SCEC monument COMMENT
E1C8W0V7+0021. Position of that monument is believed to be  COMMENT
valid to within 1 m horizontally; vertical accuracy         COMMENT
should be no worse than 3-times this value.                 COMMENT
                                                            COMMENT
Revised Rinex header created by UCSD GPS archive for        COMMENT
GSAC on 17-Jul-2000 (2000:199) 21:27:12 GMT                 COMMENT
For assistance contact dagnew@ucsd.edu                      COMMENT
or anderson@python.ucsd.edu                                 COMMENT
                                                            COMMENT
CO OF IMP GPS 0004 1995                                     MARKER NAME
0004                                                        MARKER NUMBER
-Unknown- CALIF DEPT TRANSPORTATION                         OBSERVER / AGENCY
7373 TRIMBLE 4000 SSE NP 6.04; SP 2.07                      REC # / TYPE / VERS
S/N UNKNOWN TR 4000SST L1/L2 GEO                            ANT # / TYPE
 -2311924.6362 -4843050.2012  3435164.4671                  APPROX POSITION XYZ
        2.2160        0.0000        0.0000                  ANTENNA: DELTA H/E/N
     1     1     0                                          WAVELENGTH FACT L1/2
     7    C1    L1    L2    P1    P2    S1    S2            # / TYPES OF OBSERV
     0                                                      INTERVAL
  1995     4    13    19    40   15.000000                  TIME OF FIRST OBS
  1995     4    13    22    45   15.000000                  TIME OF LAST OBS
                                                            END OF HEADER
 95  4 13 19 40 15.0000000  0  6G 2G 7G15G19G26G27
  21089882.2814       2240.67058       458.86859                  21089884.7774
        29.0004         63.7504
  21006278.0474    -121636.43057    -43898.53959                  21006281.0594
        25.0004         63.7504
  23689201.5554     -40291.78555    -13151.42055                  23689206.5594
        10.7504         11.7504
  22201194.4454     167388.43256     55972.99958                  22201197.8204
        19.2504         40.5004
  23855571.8594    -126021.26055    -45475.38456                  23855575.3164
        10.7504         13.7504
  20226070.6484      51272.67957     14113.20759                  20226073.0164
        25.7504         63.7504
 95  4 13 19 40 30.0000000  0  6G 2G 7G15G19G26G27
  21089962.2274       2658.12548       784.18649                  21089964.6994
        29.0004         63.7504
  21000954.6414    -149608.95147    -65695.27049                  21000957.6884
        24.5004         63.7504
  23687457.8134     -49454.78245    -20291.37745                  23687462.6524
        10.2504         11.2504
  22208543.8204     206009.32846     86067.21847                  22208547.2544
        19.0004         37.2504
  23850056.4454    -155009.04645    -68063.21645                  23850059.8204
        11.0004         11.2504
  20228460.3984      63830.76547     23898.74649                  20228462.8364
        25.2504         63.7504
 95  4 13 19 40 45.0000000  0  6G 2G 7G15G19G26G27
  21090075.6954       3256.09248      1250.15849                  21090078.2154
        29.0004         63.7504
  20995680.9144    -177323.98347    -87291.36849                  20995684.0314
        24.5004         63.7504
  23685765.5944     -58348.25345    -27221.34745                  23685771.2304
        10.2504          7.7504
  22215934.1724     244845.49446    116329.16547                  22215937.5824
        19.5004         38.0004
  23844588.3594    -183743.71845    -90453.82846                  23844591.4534
        11.2504         13.7504
  20230900.6804      76655.77647     33892.27949                  20230903.1644
        25.5004         63.7504
 95  4 13 19 41  0.0000000  0  6G 2G 7G15G19G26G27
  21090234.2114       4087.91748      1898.35449                  21090236.8484
        28.7504         63.7504
  20990465.9224    -204728.40147   -108645.43049                  20990469.0274
        24.5004         63.7504
  23684134.6334     -66919.39245    -33900.13445                  23684139.4144
        10.2504         10.5004
  22223375.5784     283950.63446    146800.70447                  22223378.5904
        19.2504         39.2504
  23839178.0784    -212173.89545   -112607.18346                  23839180.9384
        11.0004         15.0004
  20233401.3674      89796.53647     44131.84849                  20233403.8874
        25.2504         63.7504
 95  4 13 19 41 15.0000000  0  6G 2G 7G15G19G26G27
  21090444.0634       5191.92248      2758.63749                  21090446.6764
        28.7504         63.7504
  20985317.5634    -231782.85147   -129726.79349                  20985320.7384
        24.5004         63.7504
  23682571.6724     -75130.55445    -40298.39845                  23682577.1914
        10.2504         10.5004
  22230875.6644     323363.21046    177511.79847                  22230878.9924
        19.0004         38.7504
  23833833.5234    -240260.06045   -134492.46646                  23833836.8054
        11.0004         14.5004
  20235968.7504     103287.50847     54644.30849                  20235971.2934
        25.2504         63.7504
 95  4 13 19 41 30.0000000  0  6G 2G 7G15G19G26G27
  21090706.6724       6571.30048      3833.49549                  21090709.2854
        29.0004         63.7504
  20980236.5554    -258482.39747   -150531.60649                  20980239.5664
        24.5004         63.7504
  23681078.8524     -82978.36645    -46413.57445                  23681083.1994
        10.5004         11.7504
  22238435.3984     363089.51646    208467.35647                  22238438.8204
        19.0004         39.2504
  23828555.4224    -267995.88045   -156104.76146                  23828558.5514
        11.2504         14.5004
  20238603.1024     117130.39547     65430.98349                  20238605.6454
        25.7504         63.7504
 95  4 13 19 41 45.0000000  0  6G 2G 7G15G19G26G27
  21091016.3444       8199.92548      5102.57149                  21091018.9574
        28.7504         63.7504
  20975218.5634    -284853.15547   -171080.22549                  20975221.7854
        24.5004         63.7504
  23679649.4774     -90489.21545    -52266.17145                  23679653.6024
        10.7504         10.5004
  22246049.7814     403104.61146    239647.95048                  22246053.3674
        19.0004         40.0004
  23823338.8834    -295408.50745   -177465.22246                  23823341.9884
        11.5004         14.5004
  20241299.9384     131302.25747     76474.00549                  20241302.5394
        25.2504         63.7504
 95  4 13 19 42  0.0000000  0  6G 2G 7G15G19G26G27
  21091370.1564      10058.23248      6550.61549                  21091372.7584
        28.7504         63.7504
  20970259.2814    -310914.45247   -191387.70449                  20970262.3634
        24.2504         63.7504
  23678280.8134     -97681.44345    -57870.46745                  23678285.3834
        10.7504          9.2504
  22253715.6804     443388.59946    271038.05947                  22253719.1024
        18.7504         36.7504
  23818180.4844    -322517.18645   -198588.83546                  23818183.5314
        11.5004         16.5004
  20244056.0784     145786.57047     87760.49249                  20244058.7384
        25.0004         63.7504
 95  4 13 19 42 15.0000000  0  6G 2G 7G15G19G26G27
  21091764.4304      12129.32248      8164.46649                  21091766.9614
        29.0004         63.7504
  20965355.4064    -336684.92447   -211468.56949                  20965358.4534
        24.2504         63.7504
  23676969.3444    -104573.75245    -63241.08145                  23676973.7274
        10.5004         11.2504
  22261429.1254     483922.07646    302622.58247                  22261432.6174
        18.7504         38.0004
  23813076.3204    -349341.82446   -219491.12346                  23813079.0864
        12.0004         13.0004
  20246867.3984     160561.97547     99273.80549                  20246870.1764
        25.5004         63.7504
 95  4 13 19 42 30.0000000  0  6G 2G 7G15G19G26G27
  21092195.4304      14394.52548      9929.57349                  21092197.8794
        29.0004         63.7504
  20960502.7344    -362186.08747   -231339.58249                  20960505.8634
        24.2504         63.7504
  23675711.1254    -111186.81545    -68394.10445                  23675715.5904
        10.7504         11.7504
  22269186.0864     524685.54846    334386.31747                  22269189.6024
        18.7504         38.0004
  23808021.7114    -375903.59946   -240188.58246                  23808024.6294
        12.2504         15.7504
  20249730.5554     175605.83947    110996.30449                  20249733.4494
        25.2504         63.7504
 95  4 13 19 42 45.0000000  0  6G 2G 7G15G19G26G27
  21092658.8284      16829.97948     11827.34349                  21092661.3014
        29.0004         63.7504
  20955696.1024    -387445.44647   -251022.18149                  20955699.2424
        24.2504         63.7504
  23674500.4614    -117546.27445    -73349.50345                  23674504.9144
        10.5004         10.5004
  22276982.0234     565653.78246    366309.61247                  22276985.3164
        18.7504         38.7504
  23803011.6724    -402229.53346   -260702.27246                  23803014.9184
        12.0004         15.0004
  20252638.7424     190889.51147    122905.66649                  20252641.6604
        25.2504         63.7504
 95  4 13 19 43  0.0000000  0  6G 2G 7G15G19G26G27
  21093150.6334      19413.75348     13840.68549                  21093153.0704
        29.2504         63.7504
  20950931.3134    -412485.31647   -270533.74649                  20950934.4534
        24.7504         63.7504
  23673334.0634    -123673.95345    -78124.28545                  23673337.6134
        10.5004          9.2504
  22284812.6414     606804.76046    398375.30247                  22284816.3674
        18.2504         38.7504
  23798042.6094    -428343.94546   -281051.14046                  23798045.2234
        12.5004         16.5004
  20255588.9694     206391.79647    134985.37549                  20255591.7584
        25.2504         63.7504
 95  4 13 19 43 15.0000000  0  6G 2G 7G15G19G26G27
  21093667.0084      22127.56448     15955.35649                  21093669.4694
        29.2504         63.7504
  20946204.7664    -437323.08547   -289887.83249                  20946207.7194
        25.0004         63.7504
  23672209.9694    -129586.65945    -82731.58245                  23672215.6884
        11.0004         11.7504
  22292674.9304     648121.74146    430570.33247                  22292678.3164
        18.0004         38.0004
  23793109.8754    -454264.63446   -301249.05846                  23793112.3134
        12.2504         18.2504
  20258577.1724     222094.90347    147221.57149                  20258580.0664
        25.0004         63.7504
 95  4 13 19 43 30.0000000  0  6G 2G 7G15G19G26G27
  21094204.1334      24949.59648     18154.35149                  21094206.5704
        29.2504         63.7504
  20941512.7344    -461980.55347   -309101.42549                  20941515.7934
        24.7504         63.7504
  23671121.1564    -135305.17945    -87187.55345                  23671125.1994
        11.0004         11.7504
  22300564.8754     689583.20246    462877.95947                  22300568.3554
        18.2504         36.7504
  23788210.2424    -480013.70246   -321313.24446                  23788213.0784
        12.2504         17.0004
  20261599.1024     237976.04347    159596.48849                  20261601.9734
        25.0004         63.7504
 95  4 13 19 43 45.0000000  0  6G 2G 7G15G19G26G27
  21094757.6954      27859.29248     20421.65849                  21094760.1334
        29.2504         63.7504
  20936850.4304    -486479.36647   -328191.38849                  20936853.5234
        24.5004         63.7504
  23670066.5784    -140848.09445    -91506.68946                  23670069.9774
        11.0004         12.5004
  22308479.2664     731170.51546    495283.64447                  22308482.6294
        18.5004         38.0004
  23783338.7424    -505611.15146   -341259.27646                  23783341.4494
        12.0004         16.5004
  20264651.8134     254018.21347    172096.88849                  20264654.6484
        25.0004         63.7504
 95  4 13 19 44  0.0000000  0  6G 2G 7G15G19G26G27
  21095326.2034      30846.21748     22749.14349                  21095328.5234
        29.2504         63.7504
  20932216.2114    -510832.40847   -347167.77049                  20932219.0944
        24.7504         63.7504
  23669043.2584    -146225.57045    -95696.90345                  23669047.2664
        11.2504         11.7504
  22316414.7584     772873.29846    527779.30547                  22316418.2504
        18.2504         38.0004
  23778494.6954    -531066.16746   -361094.32846                  23778497.4614
        12.0004         18.2504
  20267733.0314     270209.37047    184713.38249                  20267735.6914
        25.0004         63.7504
 95  4 13 19 44 15.0000000  0  6G 2G 7G15G19G26G27
  21095907.9224      33902.99748     25131.05949                  21095910.3364
        29.2504         63.7504
  20927608.2344    -535047.70947   -366036.81849                  20927611.0704
        24.7504         63.7504
  23668050.0164    -151445.78045    -99764.60845                  23668054.0354
        11.5004         11.7504
  22324370.4224     814681.86046    560357.39447                  22324373.7384
        18.0004         36.7504
  23773677.0394    -556385.22946   -380823.44146                  23773680.3914
        12.0004         16.5004
  20270839.9224     286536.94847    197436.16949                  20270842.7814
        25.0004         63.7504
 95  4 13 19 44 30.0000000  0  6G 2G 7G15G19G26G27
  21096501.3674      37021.85848     27561.34949                  21096503.7344
        29.2504         63.7504
  20923024.4924    -559135.30347   -384806.35249                  20923027.4104
        24.5004         63.7504
  23667084.8914    -156517.91845   -103716.87845                  23667089.2854
        11.7504         11.7504
  22332344.5004     856585.54146    593009.59947                  22332347.7114
        18.2504         37.2504
  23768882.8594    -581578.24345   -400454.33346                  23768886.1764
        11.7504         13.7504
  20273971.2894     302991.79547    210258.13349                  20273974.0664
        25.0004         63.7504
 95  4 13 19 44 45.0000000  0  6G 2G 7G15G19G26G27
  21097103.6804      40187.61348     30028.17849                  21097106.2234
        29.0004         63.7504
  20918462.5864    -583107.60447   -403486.05249                  20918465.7504
        24.5004         63.7504
  23666145.9844    -161455.09946   -107564.02146                  23666149.2424
        12.0004         13.0004
  22340333.7424     898569.98946    625724.73647                  22340337.2464
        18.2504         38.0004
  23764109.3834    -606659.07045   -419997.82246                  23764112.8634
        11.5004         13.7504
  20277124.4924     319562.75647    223170.57249                  20277127.2464
        25.0004         63.7504
 95  4 13 19 45  0.0000000  0  6G 2G 7G15G19G26G27
  21097712.0864      43384.40248     32519.19249                  21097714.6644
        29.0004         63.7504
  20913920.5944    -606975.55647   -422084.43549                  20913923.6294
        24.2504         63.7504
  23665229.1414    -166271.13146   -111316.76245                  23665232.5044
        12.0004         11.7504
  22348336.1174     940621.49946    658492.13047                  22348339.5634
        18.2504         36.7504
  23759355.4844    -631641.93545   -439464.94946                  23759358.9654
        11.0004         15.0004
  20280297.8134     336236.90747    236163.42349                  20280300.4494
        25.2504         63.7504
 95  4 13 19 45 15.0000000  0  6G 2G 7G15G19G26G27
  21098327.4454      46619.29448     35039.89749                  21098330.0124
        29.0004         63.7504
  20909399.7814    -630733.19147   -440596.86349                  20909402.8404
        24.2504         63.7504
  23664337.0554    -170959.63346   -114970.11946                  23664339.8324
        12.2504         13.0004
  22356352.2974     982747.08446    691317.24847                  22356355.7424
        18.2504         36.7504
  23754622.1334    -656517.66345   -458848.60646                  23754625.5664
        11.2504         14.5004
  20283491.8914     353023.50947    249243.89349                  20283494.7154
        25.0004         63.7504
 95  4 13 19 45 30.0000000  0  6G 2G 7G15G19G26G27
  21098947.5004      49878.12848     37579.25549                  21098950.0204
        28.7504         63.7504
  20904896.7734    -654396.74647   -459035.98149                  20904899.8674
        24.2504         63.7504
  23663466.3984    -175535.71546   -118535.88546                  23663469.7384
        12.2504         15.7504
  22364379.4924    1024929.57146    724186.70147                  22364382.8324
        18.0004         36.7504
  23749906.1724    -681299.80045   -478159.34546                  23749909.4534
        11.0004         16.5004
  20286705.7274     369910.98247    262402.96249                  20286708.3634
        25.2504         63.7504
 95  4 13 19 45 45.0000000  0  6G 2G 7G15G19G26G27
  21099571.3594      53155.35348     40132.94449                  21099573.8794
        29.0004         63.7504
  20900410.1804    -677973.71247   -477407.62849                  20900413.3554
        24.2504         63.7504
  23662615.7034    -180006.24346   -122019.39046                  23662618.5984
        12.2504         12.5004
  22372416.2424    1067162.24646    757095.26247                  22372419.8754
        18.0004         36.0004
  23745206.5004    -705995.48045   -497402.71246                  23745210.0984
        11.0004         15.0004
  20289937.8914     386897.06147    275638.87049                  20289940.5394
        25.2504         63.7504
 95  4 13 19 46  0.0000000  0  6G 2G 7G15G19G26G27
  21100199.1564      56454.23548     42703.51049                  21100201.6174
        28.7504         63.7504
  20895940.2424    -701462.25547   -495710.36649                  20895943.4414
        24.2504         63.7504
  23661785.3134    -184369.49245   -125419.30646                  23661788.3594
        11.7504         13.7504
  22380462.5474    1109446.83346    790044.27547                  22380465.8404
        18.2504         37.2504
  23740524.5084    -730600.29245   -516575.26446                  23740527.9184
        11.2504         14.5004
  20293190.1174     403986.76647    288955.52549                  20293192.8014
        25.2504         63.7504
 95  4 13 19 46 15.0000000  0  6G 2G 7G15G19G26G27
  21100830.5554      59772.30848     45289.02949                  21100833.0984
        28.5004         63.7504
  20891487.3444    -724863.06247   -513944.74849                  20891490.4844
        24.2504         63.7504
  23660974.4774    -188629.12245   -128738.48346                  23660977.0084
        11.7504         13.7504
  22388518.2504    1151779.12746    823030.46647                  22388521.5084
        18.0004         34.7504
  23735858.7034    -755119.13045   -535680.82646                  23735861.9264
        11.5004         13.7504
  20296460.9774     421175.46847    302349.32049                  20296463.6954
        25.2504         63.7504
 95  4 13 19 46 30.0000000  0  6G 2G 7G15G19G26G27
  21101464.2584      63101.99448     47883.59649                  21101466.7664
        29.2504         63.7504
  20887049.8674    -748183.02447   -532116.13049                  20887053.0784
        24.2504         63.7504
  23660182.3364    -192792.35846   -131982.53845                  23660185.5124
        12.0004         10.5004
  22396581.3754    1194149.85746    856046.60247                  22396584.9024
        18.2504         36.0004
  23731207.4534    -779562.45945   -554727.54746                  23731210.7584
        11.7504         15.0004
  20299749.9534     438457.86347    315816.12249                  20299752.4844
        26.0004         63.7504
 95  4 13 19 46 45.0000000  0  6G 2G 7G15G19G26G27
  21102099.8364      66442.55648     50486.63549                  21102102.3914
        28.7504         63.7504
  20882627.9614    -771419.58647   -550222.52849                  20882631.2304
        24.2504         63.7504
  23659408.5164    -196857.52446   -135150.19846                  23659411.9614
        12.2504         15.0004
  22404652.1564    1236563.16546    889095.91247                  22404655.4264
        18.0004         36.0004
  23726570.5084    -803929.11945   -573714.52746                  23726573.4734
        11.7504         17.7504
  20303057.0864     455836.99247    329358.29849                  20303059.7464
        26.0004         63.7504
 95  4 13 19 47  0.0000000  0  6G 2G 7G15G19G26G27
  21102735.8754      69784.84648     53091.02649                  21102738.4654
        28.7504         63.7504
  20878220.4144    -794581.78347   -568270.97549                  20878223.7774
        24.5004         63.7504
  23658652.0864    -200833.64846   -138248.46946                  23658655.0984
        12.2504         13.0004
  22412730.0474    1279011.80746    922172.76447                  22412733.4694
        17.7504         34.0004
  23721947.0864    -828226.87646   -592647.83246                  23721950.7544
        12.0004         15.0004
  20306380.5314     473302.44447    342967.74449                  20306383.1334
        26.2504         63.7504
 95  4 13 19 47 15.0000000  0  6G 2G 7G15G19G26G27
  21103372.4844      73130.18848     55697.79249                  21103374.9694
        29.2504         63.7504
  20873826.5234    -817671.34847   -586262.82949                  20873829.6644
        24.2504         63.7504
  23657912.6334    -204720.06846   -141276.83546                  23657915.8204
        12.2504         12.5004
  22420814.9844    1321498.70746    955279.42447                  22420818.4884
        17.7504         36.0004
  23717336.7664    -852453.53046   -611525.71846                  23717339.8594
        12.2504         15.0004
  20309720.8134     490855.46047    356645.42149                  20309723.3674
        26.2504         63.7504
 95  4 13 19 47 30.0000000  0  6G 2G 7G15G19G26G27
  21104012.6724      76494.18848     58319.09649                  21104014.9924
        29.5004         63.7504
  20869449.3364    -840674.02947   -604186.97949                  20869452.4304
        24.5004         63.7504
  23657192.8364    -208501.38546   -144223.29946                  23657196.7624
        12.0004         13.0004
  22428910.2974    1364039.82446    988428.32547                  22428913.7424
        17.7504         33.5004
  23712742.8754    -876593.76246   -630336.27346                  23712745.4414
        12.0004         15.7504
  20313080.7114     508511.98647    370403.75249                  20313083.1604
        26.2504         63.7504
 95  4 13 19 47 45.0000000  0  6G 2G 7G15G19G26G27
  21104655.1414      79869.29448     60949.05349                  21104657.4144
        29.5004         63.7504
  20865088.4844    -863591.06047   -622044.39349                  20865091.6374
        24.5004         63.7504
  23656492.5784    -212181.78646   -147091.13346                  23656496.2934
        12.0004         13.7504
  22437015.9774    1406634.43646   1021618.91647                  22437019.2114
        17.7504         34.7504
  23708164.6024    -900654.19746   -649084.64046                  23708167.4734
        12.5004         14.5004
  20316458.8674     526265.30547    384237.50749                  20316461.2934
        26.2504         63.7504
 95  4 13 19 48  0.0000000  0  6G 2G 7G15G19G26G27
  21105298.9534      83252.60448     63585.40249                  21105301.1914
        29.7504         63.7504
  20860743.6024    -886421.67347   -639834.46649                  20860746.7664
        24.5004         63.7504
  23655810.8284    -215762.15346   -149881.02346                  23655813.9344
        12.0004         12.5004
  22445131.6174    1449282.38746   1054851.06147                  22445135.2154
        17.7504         33.5004
  23703601.1484    -924634.80246   -667770.81346                  23703604.3364
        12.5004         15.7504
  20319855.0234     544110.16847    398142.59449                  20319857.3914
        26.5004         63.7504
 95  4 13 19 48 15.0000000  0  6G 2G 7G15G19G26G27
  21105941.6254      86630.29448     66217.37549                  21105944.0744
        29.2504         63.7504
  20856413.7114    -909176.69747   -657565.63849                  20856416.7464
        24.2504         63.7504
  23655146.8914    -219253.87546   -152601.82646                  23655150.1484
        12.2504         15.0004
  22453255.2274    1491972.94546   1088116.41347                  22453258.7424
        17.5004         32.7504
  23699050.5944    -948547.69546   -686404.21346                  23699053.8754
        12.2504         16.5004
  20323265.5234     562032.91547    412108.37049                  20323267.7974
        26.7504         63.7504
 95  4 13 19 48 30.0000000  0  6G 2G 7G15G19G26G27
  21106583.3594      90002.62948     68845.17749                  21106585.7154
        29.0004         63.7504
  20852098.3364    -931854.46747   -675236.61449                  20852101.5474
        24.5004         63.7504
  23654499.6174    -222653.87746   -155251.17446                  23654503.3094
        12.2504         14.5004
  22461387.5084    1534707.94746   1121416.39647                  22461390.9534
        17.5004         33.5004
  23694513.6254    -972391.66946   -704983.91246                  23694516.5434
        12.5004         15.7504
  20326691.5164     580037.05547    426137.57349                  20326693.8714
        26.7504         63.7504
 95  4 13 19 48 45.0000000  0  6G 2G 7G15G19G26G27
  21107224.6024      93372.95548     71471.41049                  21107227.0864
        29.2504         63.7504
  20847797.8134    -954452.44447   -692845.41449                  20847801.0354
        24.5004         63.7504
  23653870.9144    -225958.61246   -157826.26646                  23653875.2034
        12.2504         15.0004
  22469529.0554    1577491.13346   1154753.92247                  22469532.3484
        17.7504         36.0004
  23689989.9774    -996161.08646   -723505.51846                  23689992.7304
        12.2504         15.7504
  20330134.3134     598128.13547    440234.51449                  20330136.5514
        26.7504         63.7504
 95  4 13 19 49  0.0000000  0  6G 2G 7G15G19G26G27
  21107866.3054      96743.56248     74097.86249                  21107868.6134
        29.7504         63.7504
  20843512.6094    -976971.46447   -710392.68749                  20843515.6094
        24.5004         63.7504
  23653260.1804    -229168.28146   -160327.30446                  23653264.6684
        12.0004         15.7504
  22477679.8364    1620325.38646   1188131.24247                  22477682.9414
        17.7504         34.7504
  23685481.2894   -1019854.80846   -741968.13546                  23685484.3244
        12.2504         16.5004
  20333593.2114     616305.11347    454398.39449                  20333595.5204
        27.0004         63.7504
 95  4 13 19 49 15.0000000  0  6G 2G 7G15G19G26G27
  21108506.2344     100106.10148     76718.02549                  21108508.5084
        29.7504         63.7504
  20839240.7974    -999421.06047   -727885.86649                  20839243.7854
        24.5004         63.7504
  23652665.8754    -232292.01746   -162761.36546                  23652669.4144
        12.5004         12.5004
  22485838.5944    1663199.09346   1221539.30847                  22485841.7704
        17.7504         32.0004
  23680985.3754   -1043482.32646   -760379.16746                  23680987.7304
        12.2504         16.5004
  20337066.8444     634558.72147    468621.97749                  20337069.1414
        27.0004         63.7504
 95  4 13 19 49 30.0000000  0  6G 2G 7G15G19G26G27
  21109145.3834     103466.12048     79336.22849                  21109147.6094
        29.5004         63.7504
  20834982.6254   -1021796.76147   -745321.46249                  20834985.5904
        24.5004         63.7504
  23652088.1254    -235324.93846   -165124.67346                  23652091.2774
        12.2504         14.5004
  22494004.8834    1706114.20946   1254979.63447                  22494008.2814
        17.2504         30.7504
  23676502.4614   -1067038.80946   -778734.85546                  23676504.7584
        12.5004         17.7504
  20340556.1484     652894.71747    482909.76749                  20340558.2344
        27.2504         63.7504
 95  4 13 19 49 45.0000000  0  6G 2G 7G15G19G26G27
  21109783.9224     106821.15548     81950.54849                  21109786.0784
        29.7504         63.7504
  20830739.3754   -1044097.24147   -762698.44749                  20830742.4574
        24.5004         63.7504
  23651528.3444    -238267.20046   -167417.32746                  23651532.4104
        12.5004         14.5004
  22502178.4304    1749065.72846   1288448.33247                  22502181.9694
        17.2504         32.0004
  23672033.0084   -1090524.52146   -797035.40246                  23672035.4574
        12.2504         17.0004
  20344060.3204     671309.22647    497258.73149                  20344062.3484
        27.7504         63.7504
 95  4 13 19 50  0.0000000  0  6G 2G 7G15G19G26G27
  21110422.0784     110174.86448     84563.83349                  21110424.2114
        29.7504         63.7504
  20826510.6024   -1066318.67447   -780013.83749                  20826513.6374
        24.5004         63.7504
  23650986.4774    -241114.21346   -169635.78046                  23650990.2624
        12.5004         15.0004
  22510358.7814    1792053.03246   1321944.91347                  22510362.6724
        17.2504         32.7504
  23667578.7504   -1113933.55046   -815276.17546                  23667581.3284
        12.5004         17.7504
  20347580.2814     689806.21747    511671.96949                  20347582.2154
        27.7504         63.7504
 95  4 13 19 50 15.0000000  0  6G 2G 7G15G19G26G27
  21111060.9694     113532.55848     87180.22049                  21111063.1374
        29.7504         63.7504
  20822296.8284   -1088462.44647   -797268.71049                  20822299.7814
        24.5004         63.7504
  23650463.2194    -243865.06146   -171779.29346                  23650466.9694
        12.5004         15.7504
  22518545.2424    1835073.88846   1355467.64247                  22518549.1214
        17.0004         31.5004
  23663139.2504   -1137264.27046   -833455.94346                  23663141.9924
        12.2504         15.0004
  20351116.0944     708387.20047    526150.65349                  20351118.0164
        27.7504         63.7504
 95  4 13 19 50 30.0000000  0  6G 2G 7G15G19G26G27
  21111705.1024     116917.39448     89817.76049                  21111707.4224
        29.2504         63.7504
  20818101.7974   -1110506.83347   -814446.14149                  20818104.7034
        24.5004         63.7504
  23649962.3754    -246498.19446   -173831.07146                  23649966.7814
        12.7504         14.5004
  22526742.0004    1878147.45546   1389031.44047                  22526745.6804
        17.0004         30.7504
  23658718.1884   -1160494.56346   -851557.45046                  23658720.8834
        12.2504         15.7504
  20354672.2424     727073.93647    540711.74349                  20354674.2114
        27.5004         63.7504
 95  4 13 19 50 45.0000000  0  6G 2G 7G15G19G26G27
  21112351.5784     120314.59348     92464.93349                  21112353.8874
        29.5004         63.7504
  20813922.8524   -1132468.17747   -831558.86749                  20813925.6644
        24.5004         63.7504
  23649480.5394    -249030.33946   -175804.16446                  23649484.8054
        12.5004         15.0004
  22534944.9924    1921255.77246   1422622.30947                  22534948.6374
        16.5004         29.5004
  23654314.2894   -1183639.32346   -869592.31246                  23654317.2424
        12.5004         14.5004
  20358244.7424     745848.88647    555341.56949                  20358246.7464
        27.5004         63.7504
 95  4 13 19 51  0.0000000  0  6G 2G 7G15G19G26G27
  21113000.1334     123722.06348     95120.10749                  21113002.4184
        29.7504         63.7504
  20809759.1884   -1154347.60347   -848607.75649                  20809761.9534
        24.7504         63.7504
  23649017.1954    -251464.46546   -177700.87846                  23649021.2854
        12.7504         17.7504
  22543154.8444    1964397.84346   1456239.48947                  22543158.6294
        16.7504         30.2504
  23649925.8914   -1206700.71746   -887562.20146                  23649928.2704
        13.0004         17.0004
  20361833.5314     764707.21547    570036.36649                  20361835.5354
        27.7504         63.7504
 95  4 13 19 51 15.0000000  0  6G 2G 7G15G19G26G27
  21113650.5554     127140.43548     97783.77749                  21113652.8634
        29.2504         63.7504
  20805612.2504   -1176139.05847   -865588.09949                  20805615.1684
        24.5004         63.7504
  23648573.1174    -253797.58746   -179518.88646                  23648577.7464
        12.5004         16.5004
  22551370.9224    2007574.26746   1489883.43247                  22551374.4964
        17.0004         30.7504
  23645553.5704   -1229676.44546   -905465.36246                  23645556.6884
        13.0004         17.7504
  20365438.4924     783651.50447    584798.15049                  20365440.5084
        27.7504         63.7504
 95  4 13 19 51 30.0000000  0  6G 2G 7G15G19G26G27
  21114302.7274     130568.17648    100454.74849                  21114305.0704
        29.2504         63.7504
  20801482.5394   -1197840.91547   -882498.62849                  20801485.4574
        24.5004         63.7504
  23648148.7734    -256028.76646   -181257.47046                  23648152.4774
        12.7504         16.5004
  22559593.1174    2050781.92746   1523551.72047                  22559596.9844
        16.5004         28.7504
  23641198.1804   -1252564.35646   -923300.07946                  23641201.1684
        13.0004         17.0004
  20369059.8054     802682.07247    599627.15949                  20369061.7274
        27.7504         63.7504
 95  4 13 19 51 45.0000000  0  6G 2G 7G15G19G26G27
  21114957.9774     134011.48748    103137.85249                  21114960.4024
        29.0004         63.7504
  20797371.5554   -1219445.72047   -899333.52849                  20797374.4264
        25.0004         63.7504
  23647744.7344    -258151.36846   -182911.43146                  23647748.5904
        12.7504         16.5004
  22567823.0234    2094029.46446   1557251.07547                  22567827.0554
        16.5004         30.2504
  23636860.8134   -1275357.88646   -941061.26446                  23636863.1804
        13.2504         19.0004
  20372698.8524     821805.30447    614528.37049                  20372700.8324
        27.5004         63.7504
 95  4 13 19 52  0.0000000  0  6G 2G 7G15G19G26G27
  21115614.0634     137459.37948    105824.52349                  21115616.4884
        28.7504         63.7504
  20793276.5084   -1240964.58047   -916101.45849                  20793279.4384
        24.5004         63.7504
  23647359.5864    -260175.77146   -184488.88846                  23647363.4534
        13.0004         14.5004
  22576058.3984    2137308.52246   1590975.00047                  22576062.2664
        16.5004         31.5004
  23632538.7894   -1298069.69846   -958758.75946                  23632541.3674
        13.2504         15.7504
  20376353.9534     841012.25747    629494.82349                  20376356.0274
        27.2504         63.7504
 95  4 13 19 52 15.0000000  0  6G 2G 7G15G19G26G27
  21116272.5864     140920.11748    108521.20349                  21116275.1524
        29.0004         63.7504
  20789198.5394   -1262394.00447   -932799.70349                  20789201.4454
        24.7504         63.7504
  23646993.8204    -262096.93746   -185985.89346                  23646998.3914
        13.0004         17.0004
  22584302.1254    2180628.51846   1624730.82247                  22584306.0514
        16.5004         29.5004
  23628233.2034   -1320694.22746   -976388.25746                  23628235.6524
        13.2504         17.0004
  20380025.7664     860309.00447    644531.24549                  20380027.8284
        27.2504         63.7504
 95  4 13 19 52 30.0000000  0  6G 2G 7G15G19G26G27
  21116933.5234     144392.33748    111226.83549                  21116935.9734
        29.2504         63.7504
  20785137.7814   -1283733.72847   -949428.04549                  20785140.6414
        25.0004         63.7504
  23646648.0314    -263914.16146   -187401.91446                  23646652.4964
        13.0004         17.0004
  22592554.2424    2223993.07046   1658521.35547                  22592558.2504
        16.7504         32.0004
  23623944.3834   -1343231.63146   -993949.85846                  23623947.3954
        13.2504         17.7504
  20383715.2034     879696.95447    659638.73649                  20383717.3014
        27.0004         63.7504
 95  4 13 19 52 45.0000000  0  6G 2G 7G15G19G26G27
  21117595.8914     147874.08548    113939.89049                  21117598.3754
        29.0004         63.7504
  20781094.5864   -1304982.57547   -965985.57549                  20781097.4344
        25.2504         63.7504
  23646322.5864    -265625.86646   -188735.70046                  23646327.1914
        13.0004         15.0004
  22600814.8444    2267403.91946   1692347.96847                  22600818.7584
        16.7504         31.5004
  23619673.0944   -1365680.46546  -1011442.43646                  23619675.6254
        13.5004         16.5004
  20387422.4924     899178.94147    674819.49949                  20387424.6604
        27.0004         63.7504
 95  4 13 19 53  0.0000000  0  6G 2G 7G15G19G26G27
  21118260.5864     151367.60648    116662.12049                  21118263.2584
        29.0004         63.7504
  20777068.6804   -1326136.96347   -982469.50549                  20777071.6334
        25.0004         63.7504
  23646017.9924    -267227.43646   -189983.68146                  23646022.1524
        13.0004         15.7504
  22609085.6644    2310867.58446   1726215.73647                  22609089.9184
        16.2504         28.2504
  23615418.6094   -1388036.47546  -1028862.68846                  23615421.2114
        13.2504         19.0004
  20391148.8204     918761.13347    690078.34549                  20391150.9654
        26.7504         63.7504
 95  4 13 19 53 15.0000000  0  6G 2G 7G15G19G26G27
  21118927.6644     154872.21448    119392.98449                  21118930.3954
        28.7504         63.7504
  20773061.0474   -1347197.25247   -998880.10949                  20773063.9534
        25.2504         63.7504
  23645733.7274    -268718.96946   -191145.91846                  23645737.5824
        12.7504         16.5004
  22617366.7504    2354383.21846   1760124.00047                  22617370.6994
        16.5004         30.2504
  23611182.4534   -1410299.66446  -1046210.62746                  23611184.8204
        13.2504         16.5004
  20394894.3204     938443.10347    705414.94349                  20394896.5124
        26.7504         63.7504
 95  4 13 19 53 30.0000000  0  6G 2G 7G15G19G26G27
  21119598.0554     158395.39148    122138.31849                  21119600.7974
        29.0004         63.7504
  20769071.6724   -1368160.79247  -1015215.32549                  20769074.5904
        25.5004         63.7504
  23645471.8134    -270093.39846   -192216.89246                  23645475.3634
        12.5004         17.0004
  22625658.6414    2397955.57646   1794076.45947                  22625662.4144
        16.7504         31.5004
  23606964.4694   -1432462.73446  -1063480.54146                  23606966.4264
        13.0004         17.0004
  20398659.5784     958229.76447    720833.11249                  20398661.8634
        26.7504         63.7504
 95  4 13 19 53 45.0000000  0  6G 2G 7G15G19G26G27
  21120271.2734     161933.52548    124895.30249                  21120273.8874
        29.2504         63.7504
  20765099.7034   -1389035.84747  -1031481.59549                  20765102.5164
        25.7504         63.7504
  23645232.0474    -271355.50846   -193200.36546                  23645235.6564
        12.7504         14.5004
  22633960.7584    2441582.90246   1828071.75747                  22633964.5314
        16.5004         30.7504
  23602765.2894   -1454531.67046  -1080677.10346                  23602767.8674
        13.0004         18.2504
  20402443.5474     978114.76547    736327.91149                  20402445.7384
        26.7504         63.7504
 95  4 13 19 54  0.0000000  0  6G 2G 7G15G19G26G27
  21120945.4384     165475.44848    127655.25049                  21120947.9104
        29.2504         63.7504
  20761141.9774   -1409832.46747  -1047686.74149                  20761144.7664
        25.7504         63.7504
  23645011.3984    -272515.42946   -194104.19246                  23645014.7734
        13.2504         17.0004
  22642271.4224    2485255.44046   1862102.27747                  22642275.2194
        17.0004         31.5004
  23598581.2974   -1476519.13746  -1097810.17846                  23598584.2974
        13.2504         19.7504
  20406244.2504     998088.72747    751892.03149                  20406246.5824
        26.5004         63.7504
 95  4 13 19 54 15.0000000  0  6G 2G 7G15G19G26G27
  21121621.4304     169028.19148    130423.62249                  21121623.8794
        29.2504         63.7504
  20757200.8204   -1430543.49547  -1063825.19549                  20757203.7384
        25.7504         63.7504
  23644811.3914    -273566.01246   -194922.83646                  23644815.1524
        12.7504         15.0004
  22650591.1024    2528978.44146   1896172.12547                  22650595.1214
        16.5004         32.0004
  23594413.6644   -1498417.71946  -1114873.99846                  23594416.0664
        13.0004         19.0004
  20410063.4924    1018158.01047    767530.42649                  20410065.9304
        26.2504         63.7504
 95  4 13 19 54 30.0000000  0  6G 2G 7G15G19G26G27
  21122301.7584     172603.30248    133209.42749                  21122304.3134
        29.0004         63.7504
  20753278.7344   -1451154.45547  -1079885.67849                  20753281.6524
        25.7504         63.7504
  23644634.3364    -274495.56246   -195647.16146                  23644637.8634
        13.0004         16.5004
  22658923.0164    2572762.73246   1930289.72947                  22658926.8014
        16.0004         28.7504
  23590265.6884   -1520215.86346  -1131859.54846                  23590268.5004
        13.0004         17.0004
  20413902.5164    1038332.89947    783251.10749                  20413904.9774
        26.2504         63.7504
 95  4 13 19 54 45.0000000  0  6G 2G 7G15G19G26G27
  21122984.4144     176191.12948    136005.13849                  21122986.9224
        29.0004         63.7504
  20749374.2424   -1471673.23247  -1095874.32149                  20749377.1604
        25.7504         63.7504
  23644478.7034    -275312.98746   -196284.11546                  23644482.1724
        12.7504         16.5004
  22667264.3204    2616596.27346   1964445.70747                  22667268.1884
        15.7504         30.2504
  23586134.6804   -1541924.01446  -1148774.98946                  23586137.1764
        13.0004         19.0004
  20417760.2114    1058605.90747    799048.25349                  20417762.5314
        26.0004         63.7504
 95  4 13 19 55  0.0000000  0  6G 2G 7G15G19G26G27
  21123669.7034     179792.46748    138811.37849                  21123672.0474
        29.2504         63.7504
  20745487.0474   -1492100.12947  -1111791.37549                  20745489.9534
        26.0004         63.7504
  23644344.7114    -276019.06846   -196834.31646                  23644348.0744
        13.2504         15.0004
  22675614.8834    2660479.08646   1998640.08447                  22675618.8094
        15.5004         29.5004
  23582020.8284   -1563541.92046  -1165620.09546                  23582023.5594
        13.0004         17.0004
  20421636.3284    1078975.47547    814920.63849                  20421638.8594
        26.0004         63.7504
 95  4 13 19 55 15.0000000  0  6G 2G 7G15G19G26G27
  21124358.2194     183409.29848    141629.69349                  21124360.7384
        29.0004         63.7504
  20741617.9144   -1512432.16247  -1127634.50849                  20741620.6564
        26.0004         63.7504
  23644231.6254    -276613.27146   -197297.31646                  23644234.8834
        13.0004         14.5004
  22683975.0394    2704412.04046   2032873.52247                  22683978.7304
        15.7504         28.2504
  23577924.1724   -1585070.08146  -1182395.27146                  23577927.1844
        13.2504         19.7504
  20425530.7734    1099439.54747    830866.66149                  20425533.3284
        25.7504         63.7504
 95  4 13 19 55 30.0000000  0  6G 2G 7G15G19G26G27
  21125051.7504     187055.06748    144470.55549                  21125054.3404
        29.2504         63.7504
  20737768.5704   -1532659.43147  -1143396.00649                  20737771.4304
        26.0004         63.7504
  23644141.6644    -277085.33046   -197665.17046                  23644145.4844
        13.0004         16.5004
  22692346.5704    2748404.47546   2067153.32547                  22692350.0044
        15.7504         27.5004
  23573846.0784   -1606500.62246  -1199094.37646                  23573849.2894
        13.2504         18.2504
  20429444.2974    1120006.68647    846892.99849                  20429446.8634
        25.7504         63.7504
 95  4 13 19 55 45.0000000  0  6G 2G 7G15G19G26G27
  21125751.1024     190729.47148    147333.72949                  21125753.5864
        29.0004         63.7504
  20733939.7194   -1552781.60847  -1159075.61549                  20733942.6604
        26.0004         63.7504
  23644075.9534    -277434.68046   -197937.40146                  23644079.8204
        13.5004         19.0004
  22700729.6484    2792456.94546   2101479.89747                  22700733.3404
        16.2504         29.5004
  23569786.5474   -1627834.61946  -1215718.26046                  23569789.4654
        13.0004         19.0004
  20433378.0234    1140677.86047    863000.39749                  20433380.5204
        25.5004         63.7504
 95  4 13 19 56  0.0000000  0  6G 2G 7G15G19G26G27
  21126454.2034     194424.35148    150212.85949                  21126456.5704
        29.2504         63.7504
  20730129.7504   -1572803.19747  -1174676.84349                  20730132.7154
        26.2504         63.7504
  23644031.0004    -277669.38846   -198120.28246                  23644035.1724
        13.2504         17.7504
  22709122.4614    2836560.43146   2135846.22947                  22709126.2934
        16.2504         28.7504
  23565743.5784   -1649081.81246  -1232274.49746                  23565745.9804
        13.2504         17.7504
  20437330.2274    1161447.97747    879184.90149                  20437332.8754
        25.2504         63.7504
 95  4 13 19 56 15.0000000  0  6G 2G 7G15G19G26G27
  21127161.4144     198140.20448    153108.33349                  21127163.8984
        29.2504         63.7504
  20726339.1024   -1592724.05547  -1190199.58049                  20726341.9844
        26.5004         63.7504
  23644008.2424    -277789.61346   -198213.97146                  23644012.1214
        13.2504         16.5004
  22717523.9924    2880711.71646   2170249.80047                  22717527.3324
        15.7504         27.5004
  23561716.7664   -1670240.04846  -1248761.42046                  23561719.5784
        13.5004         19.0004
  20441301.6334    1182317.05347    895446.51349                  20441304.3874
        25.2504         63.7504
 95  4 13 19 56 30.0000000  0  6G 2G 7G15G19G26G27
  21127874.1884     201885.21048    156026.52349                  21127876.6484
        29.5004         63.7504
  20722568.7814   -1612536.10147  -1205637.52849                  20722571.6054
        26.2504         63.7504
  23644008.2664    -277787.27946   -198212.16546                  23644012.2274
        13.0004         15.7504
  22725936.1334    2924919.52846   2204697.42347                  22725939.6024
        15.7504         27.5004
  23557709.8524   -1691298.41846  -1265170.52646                  23557712.6994
        13.7504         21.0004
  20445293.0634    1203292.17847    911790.75749                  20445295.7814
        25.0004         63.7504
 95  4 13 19 56 45.0000000  0  6G 2G 7G15G19G26G27
  21128592.6644     205662.23948    158969.66449                  21128595.1374
        29.5004         63.7504
  20718819.8594   -1632236.77047  -1220988.68749                  20718822.8364
        26.2504         63.7504
  23644032.8834    -277658.73646   -198111.99546                  23644036.5274
        13.2504         18.2504
  22734360.7344    2969187.62546   2239192.02447                  22734364.5434
        16.2504         26.7504
  23553722.5634   -1712251.39046  -1281497.50146                  23553725.5044
        13.5004         19.0004
  20449305.3984    1224377.60047    928220.94849                  20449308.0004
        25.2504         63.7504
 95  4 13 19 57  0.0000000  0  6G 2G 7G15G19G26G27
  21129316.2424     209464.43748    161932.42049                  21129318.8794
        29.0004         63.7504
  20715090.8594   -1651833.24047  -1236258.65649                  20715093.8954
        26.2504         63.7504
  23644080.1804    -277410.15346   -197918.29046                  23644083.5554
        13.2504         17.0004
  22742794.6174    3013508.61046   2273727.83247                  22742798.3554
        16.2504         27.5004
  23549754.7584   -1733101.95046  -1297744.68646                  23549757.7704
        13.2504         16.5004
  20453338.0944    1245568.11447    944733.03149                  20453340.8134
        25.2504         63.7504
 95  4 13 19 57 15.0000000  0  6G 2G 7G15G19G26G27
  21130043.9384     213289.10948    164912.68349                  21130046.5744
        29.0004         63.7504
  20711381.1334   -1671328.69247  -1251449.90749                  20711383.9804
        26.2504         63.7504
  23644150.1414    -277043.26246   -197632.41246                  23644152.9884
        13.2504         18.2504
  22751238.3444    3057881.07346   2308303.75447                  22751242.1054
        15.7504         27.5004
  23545806.4304   -1753850.48146  -1313912.36246                  23545809.1844
        13.2504         19.0004
  20457389.5004    1266859.73547    961323.89949                  20457392.1604
        25.2504         63.7504
 95  4 13 19 57 30.0000000  0  6G 2G 7G15G19G26G27
  21130775.2974     217132.85148    167907.81249                  21130778.0044
        29.0004         63.7504
  20707689.5474   -1690728.45047  -1266566.59049                  20707692.2894
        26.2504         63.7504
  23644241.6414    -276561.46546   -197256.98546                  23644245.7774
        13.2504         18.2504
  22759690.8444    3102298.86146   2342914.98447                  22759694.5004
        15.7504         26.2504
  23541876.8754   -1774499.51546  -1330002.50546                  23541880.0634
        13.2504         19.7504
  20461459.9694    1288249.36447    977991.13449                  20461462.6414
        25.0004         63.7504
 95  4 13 19 57 45.0000000  0  6G 2G 7G15G19G26G27
  21131510.0704     220992.88048    170915.63149                  21131512.6844
        29.0004         63.7504
  20704015.5084   -1710035.72047  -1281611.20549                  20704018.2974
        26.5004         63.7504
  23644354.9534    -275965.64746   -196792.71246                  23644358.9264
        13.2504         16.5004
  22768151.7034    3146760.54346   2377560.43447                  22768155.2304
        15.7504         26.7504
  23537966.9224   -1795047.06346  -1346013.57246                  23537969.6644
        13.2504         18.2504
  20465548.8524    1309737.20447    994734.90049                  20465551.6054
        25.0004         63.7504
 95  4 13 19 58  0.0000000  0  6G 2G 7G15G19G26G27
  21132249.2814     224877.79348    173942.83949                  21132251.8954
        29.0004         63.7504
  20700361.4694   -1729237.69247  -1296573.77449                  20700364.2234
        26.7504         63.7504
  23644492.4844    -275244.23846   -196230.57546                  23644495.8954
        13.7504         17.7504
  22776623.1804    3191278.09846   2412249.41246                  22776626.6484
        15.7504         25.0004
  23534079.1254   -1815478.25146  -1361933.97446                  23534082.1954
        13.5004         19.7504
  20469659.1644    1331336.57747   1011565.57449                  20469661.8714
        25.0004         63.7504
 95  4 13 19 58 15.0000000  0  6G 2G 7G15G19G26G27
  21132994.5164     228794.37248    176994.72149                  21132997.2934
        28.5004         63.7504
  20696728.3524   -1748328.45947  -1311449.68149                  20696731.0004
        26.7504         63.7504
  23644654.9224    -274390.03546   -195564.95846                  23644658.7194
        13.5004         19.0004
  22785106.7034    3235858.44246   2446987.32047                  22785110.2424
        15.7504         27.5004
  23530215.0234   -1835783.62046  -1377756.32846                  23530218.3984
        13.2504         18.2504
  20473791.6484    1353053.00847   1028487.46249                  20473794.4144
        25.0004         63.7504
 95  4 13 19 58 30.0000000  0  6G 2G 7G15G19G26G27
  21133744.3594     232735.13948    180065.45249                  21133747.1374
        28.5004         63.7504
  20693115.7974   -1767312.61247  -1326242.52049                  20693118.5864
        26.7504         63.7504
  23644841.8984    -273408.09246   -194799.80646                  23644845.5904
        13.5004         19.0004
  22793601.1644    3280499.92346   2481772.86547                  22793604.5274
        15.5004         28.2504
  23526374.3204   -1855966.58946  -1393483.29846                  23526377.4144
        13.2504         20.2504
  20477945.1334    1374880.10147   1045495.57849                  20477947.8984
        25.0004         63.7504
 95  4 13 19 58 45.0000000  0  6G 2G 7G15G19G26G27
  21134497.2424     236691.60848    183148.41649                  21134500.0314
        28.5004         63.7504
  20689522.2424   -1786197.53347  -1340958.03449                  20689524.9614
        26.7504         63.7504
  23645051.7274    -272306.03446   -193941.05446                  23645055.2424
        13.2504         17.7504
  22802106.5234    3325195.50446   2516600.56347                  22802110.4844
        15.2504         27.5004
  23522555.0164   -1876037.53846  -1409122.99446                  23522557.6414
        13.5004         18.2504
  20482118.2194    1396810.33647   1062584.06549                  20482120.9964
        24.7504         63.7504
 95  4 13 19 59  0.0000000  0  6G 2G 7G15G19G26G27
  21135253.5554     240665.85648    186245.23449                  21135256.4264
        28.5004         63.7504
  20685947.7504   -1804981.42047  -1355594.81849                  20685950.5394
        26.5004         63.7504
  23645284.5944    -271081.84546   -192987.13546                  23645288.2734
        13.2504         15.7504
  22810622.5004    3369947.42846   2551472.16546                  22810626.4144
        15.0004         25.5004
  23518756.3914   -1895997.32746  -1424676.07046                  23518758.9344
        13.2504         17.0004
  20486311.5084    1418845.39347   1079754.23649                  20486314.2384
        24.7504         63.7504
 95  4 13 19 59 15.0000000  0  6G 2G 7G15G19G26G27
  21136014.9064     244666.39748    189362.54349                  21136017.6954
        28.5004         63.7504
  20682394.1484   -1823656.41047  -1370146.74749                  20682396.9494
        26.5004         63.7504
  23645541.9844    -269727.69346   -191931.96346                  23645545.5234
        12.7504         16.5004
  22819150.8444    3414763.79946   2586393.99646                  22819154.8524
        15.0004         25.5004
  23514980.3524   -1915841.37846  -1440138.95146                  23514982.7194
        13.2504         17.7504
  20490525.8754    1440991.45047   1097010.89649                  20490528.6644
        25.0004         63.7504
 95  4 13 19 59 30.0000000  0  6G 2G 7G15G19G26G27
  21136780.5944     248690.26248    192498.02349                  21136783.2894
        28.5004         63.7504
  20678860.6254   -1842224.84247  -1384615.64449                  20678863.5204
        26.2504         63.7504
  23645823.7664    -268246.64946   -190777.88846                  23645828.1024
        13.0004         17.7504
  22827691.3134    3459643.04246   2621364.79846                  22827694.9104
        15.2504         25.5004
  23511225.8674   -1935574.77546  -1455515.61646                  23511227.9884
        13.7504         22.2504
  20494760.5864    1463245.64947   1114351.82349                  20494763.5044
        25.0004         63.7504
 95  4 13 19 59 45.0000000  0  6G 2G 7G15G19G26G27
  21137551.6724     252742.11148    195655.31149                  21137554.3914
        28.5004         63.7504
  20675348.8834   -1860679.19847  -1398995.65249                  20675351.7894
        26.5004         63.7504
  23646130.6954    -266634.05146   -189521.31346                  23646134.3634
        12.7504         17.0004
  22836244.4454    3504589.18346   2656387.74346                  22836248.4414
        15.0004         25.0004
  23507491.6954   -1955194.59646  -1470803.77746                  23507494.6954
        13.5004         20.2504
  20499017.1644    1485612.38247   1131780.43949                  20499020.0234
        25.0004         63.7504
 95  4 13 20  0  0.0000000  0  6G 2G 7G15G19G26G27
  21138326.7664     256816.62248    198830.25749                  21138329.4494
        28.2504         63.7504
  20671858.3134   -1879022.70747  -1413289.28649                  20671861.1374
        26.7504         63.7504
  23646462.1954    -264893.50146   -188165.04846                  23646466.3554
        13.0004         17.7504
  22844809.1094    3549598.71846   2691460.07746                  22844812.8834
        15.0004         24.2504
  23503778.7504   -1974707.34846  -1486008.51546                  23503781.8914
        13.7504         21.5004
  20503293.9144    1508087.43047   1149293.45649                  20503296.5864
        25.2504         63.7504
 95  4 13 20  0 15.0000000  0  6G 2G 7G15G19G26G27
  21139106.0704     260911.17348    202020.81649                  21139108.6844
        28.5004         63.7504
  20668388.0394   -1897258.68947  -1427499.13149                  20668390.9344
        26.5004         63.7504
  23646816.5234    -263029.16446   -186712.30346                  23646820.6374
        13.0004         19.0004
  22853384.8364    3594664.39646   2726576.16246                  22853388.2584
        15.0004         24.2504
  23500084.5004   -1994119.93746  -1501135.18346                  23500087.4774
        13.7504         22.2504
  20507590.5554    1530667.12447   1166888.01749                  20507593.3204
        25.2504         63.7504
 95  4 13 20  0 30.0000000  0  6G 2G 7G15G19G26G27
  21139890.7814     265033.71248    205233.18749                  21139893.3484
        28.5004         63.7504
  20664939.2814   -1915381.76747  -1441621.00049                  20664941.9884
        26.5004         63.7504
  23647196.0554    -261034.96546   -185158.38846                  23647200.3444
        13.0004         17.0004
  22861972.6564    3639791.17446   2761739.86346                  22861976.2894
        15.0004         25.0004
  23496410.2734   -2013428.32646  -1516180.67246                  23496413.4494
        13.7504         19.0004
  20511908.6724    1553359.63647   1184570.48549                  20511911.4144
        25.0004         63.7504
 95  4 13 20  0 45.0000000  0  6G 2G 7G15G19G26G27
  21140682.3914     269194.62548    208475.45549                  21140684.9694
        28.5004         63.7504
  20661514.0084   -1933382.13947  -1455647.25549                  20661516.9614
        26.7504         63.7504
  23647602.0314    -258903.23746   -183497.28346                  23647606.4384
        13.0004         14.5004
  22870573.5784    3684987.97846   2796958.12046                  22870577.2704
        15.7504         25.0004
  23492757.1724   -2032626.37846  -1531140.19246                  23492759.9734
        14.0004         21.5004
  20516250.6024    1576175.74747   1202349.26249                  20516253.3794
        25.0004         63.7504
 95  4 13 20  1  0.0000000  0  6G 2G 7G15G19G26G27
  21141481.0394     273391.29648    211745.59249                  21141483.6414
        28.5004         63.7504
  20658110.3054   -1951268.05547  -1469584.31949                  20658113.1524
        26.7504         63.7504
  23648032.3914    -256639.88246   -181733.63246                  23648036.8674
        13.0004         17.7504
  22879185.8284    3730246.44646   2832224.43646                  22879189.7774
        15.5004         25.0004
  23489123.4924   -2051720.49746  -1546018.70646                  23489126.5984
        14.0004         19.7504
  20520615.3674    1599112.43447   1220221.99949                  20520618.0514
        25.5004         63.7504
 95  4 13 20  1 15.0000000  0  6G 2G 7G15G19G26G27
  21142286.8834     277626.70848    215045.91449                  21142289.6134
        28.2504         63.7504
  20654728.4304   -1969039.57247  -1483432.24349                  20654731.1374
        26.5004         63.7504
  23648489.0084    -254242.42346   -179865.47346                  23648492.7934
        13.0004         17.0004
  22887810.2814    3775568.60746   2867540.37546                  22887814.1374
        15.2504         24.2504
  23485511.0704   -2070704.92446  -1560811.75346                  23485514.3754
        14.0004         20.2504
  20525003.7274    1622173.34547   1238191.53249                  20525006.3754
        25.5004         63.7504
 95  4 13 20  1 30.0000000  0  6G 2G 7G15G19G26G27
  21143100.2034     281900.02348    218375.77149                  21143103.0744
        28.2504         63.7504
  20651368.0474   -1986698.32347  -1497192.29949                  20651370.8594
        26.7504         63.7504
  23648970.6024    -251711.12646   -177893.02946                  23648974.5514
        13.2504         18.2504
  22896446.9384    3820954.39546   2902905.89946                  22896450.4884
        15.2504         23.5004
  23481920.2034   -2089576.53946  -1575516.89046                  23481923.0864
        14.2504         21.5004
  20529415.7584    1645359.02747   1256258.29049                  20529418.3594
        25.7504         63.7504
 95  4 13 20  1 45.0000000  0  6G 2G 7G15G19G26G27
  21143920.9844     286213.20548    221736.69349                  21143923.7974
        28.0004         63.7504
  20648030.1484   -2004239.54947  -1510860.77749                  20648032.8674
        26.5004         63.7504
  23649478.4144    -249043.09446   -175814.02946                  23649481.9414
        13.0004         17.0004
  22905096.0394    3866405.98646   2938322.69546                  22905099.6954
        14.7504         23.5004
  23478351.1564   -2108330.39046  -1590130.27246                  23478354.0044
        14.0004         22.2504
  20533852.3284    1668672.14547   1274424.35249                  20533855.0004
        25.5004         63.7504
 95  4 13 20  2  0.0000000  0  6G 2G 7G15G19G26G27
  21144748.1954     290559.71848    225123.58949                  21144751.0664
        28.2504         63.7504
  20644712.7664   -2021672.02647  -1524444.51449                  20644715.5084
        26.7504         63.7504
  23650010.9144    -246244.70146   -173633.45346                  23650014.3134
        13.2504         15.0004
  22913756.3674    3911916.68446   2973785.54446                  22913760.5164
        15.0004         25.5004
  23474803.8134   -2126973.96446  -1604657.71546                  23474806.7774
        14.2504         21.5004
  20538311.5164    1692105.17347   1292683.84349                  20538314.1764
        26.0004         63.7504
 95  4 13 20  2 15.0000000  0  6G 2G 7G15G19G26G27
  21145581.4064     294940.05947    228536.84649                  21145584.3134
        27.7504         63.7504
  20641416.0784   -2038997.10147  -1537944.56349                  20641418.8914
        26.7504         63.7504
  23650568.1254    -243315.96946   -171351.31446                  23650571.7814
        13.0004         15.0004
  22922428.2734    3957487.31146   3009295.10046                  22922432.5864
        14.7504         24.2504
  23471277.3674   -2145504.33746  -1619096.95446                  23471280.2034
        14.2504         21.0004
  20542793.8134    1715659.84947   1311038.12949                  20542796.4384
        25.7504         63.7504
 95  4 13 20  2 30.0000000  0  6G 2G 7G15G19G26G27
  21146423.3594     299363.99448    231984.06949                  21146426.2664
        28.0004         63.7504
  20638142.0554   -2056202.20847  -1551351.13049                  20638144.8674
        27.0004         63.7504
  23651152.1884    -240246.38546   -168959.43046                  23651156.0314
        13.2504         16.5004
  22931114.0944    4003131.35346   3044861.85146                  22931118.0554
        14.7504         25.5004
  23467775.6484   -2163906.32446  -1633436.16246                  23467778.4964
        14.5004         21.5004
  20547301.5394    1739347.26747   1329495.84449                  20547304.1884
        26.0004         63.7504
 95  4 13 20  2 45.0000000  0  6G 2G 7G15G19G26G27
  21147272.7974     303826.91648    235461.67249                  21147275.5984
        28.5004         63.7504
  20634890.1804   -2073290.26547  -1564666.49349                  20634892.9694
        26.7504         63.7504
  23651762.4144    -237039.78146   -166460.76146                  23651766.5984
        13.2504         16.5004
  22939813.8754    4048849.38346   3080486.25646                  22939818.0594
        14.2504         23.5004
  23464297.2734   -2182183.90046  -1647678.42646                  23464299.9344
        14.2504         19.7504
  20551832.8204    1763159.66347   1348050.95249                  20551835.5394
        26.0004         63.7504
 95  4 13 20  3  0.0000000  0  6G 2G 7G15G19G26G27
  21148129.1644     308326.92148    238968.17349                  21148131.8014
        28.5004         63.7504
  20631660.5784   -2090262.10447  -1577891.29249                  20631663.2734
        26.7504         63.7504
  23652398.9774    -233695.32546   -163854.68146                  23652402.6334
        13.2504         17.0004
  22948527.1414    4094639.43946   3116166.78746                  22948531.3954
        14.2504         23.0004
  23460843.6884   -2200334.74646  -1661821.92546                  23460846.1254
        14.2504         19.0004
  20556386.7814    1787092.50347   1366699.90849                  20556389.3364
        26.0004         63.7504
 95  4 13 20  3 15.0000000  0  6G 2G 7G15G19G26G27
  21148991.3204     312859.02048    242499.67849                  21148994.0164
        28.2504         63.7504
  20628452.8754   -2107117.55447  -1591025.39849                  20628455.6994
        26.7504         63.7504
  23653061.2424    -230214.24846   -161142.13946                  23653064.5124
        13.7504         17.7504
  22957253.7504    4140497.28846   3151900.14846                  22957257.9454
        14.2504         24.2504
  23457413.4774   -2218359.66146  -1675867.31046                  23457415.7034
        14.2504         21.0004
  20560962.9384    1811137.94147   1385436.60649                  20560965.3404
        26.2504         63.7504
 95  4 13 20  3 30.0000000  0  6G 2G 7G15G19G26G27
  21149861.0084     317428.11148    246060.01249                  21149863.7034
        28.5004         63.7504
  20625270.3364   -2123844.18447  -1604059.12849                  20625273.0204
        27.0004         63.7504
  23653751.4694    -226588.74846   -158317.07646                  23653754.8794
        13.7504         16.5004
  22965994.4614    4186430.67146   3187692.36147                  22965999.2304
        14.5004         26.2504
  23454008.6724   -2236251.41046  -1689808.91946                  23454010.9694
        14.2504         20.2504
  20565560.7194    1835300.10847   1404264.26149                  20565563.1094
        26.5004         63.7504
 95  4 13 20  3 45.0000000  0  6G 2G 7G15G19G26G27
  21150737.3754     322032.96648    249648.21449                  21150739.9654
        29.0004         63.7504
  20622112.3524   -2140438.32447  -1616989.62049                  20622115.0004
        26.7504         63.7504
  23654468.2274    -222820.53046   -155380.78346                  23654471.9654
        13.5004         17.0004
  22974749.6174    4232436.14046   3223540.74646                  22974753.8484
        14.5004         23.0004
  23450628.2114   -2254014.54046  -1703650.31346                  23450631.0004
        14.0004         20.2504
  20570179.9844    1859574.66647   1423179.49449                  20570182.5164
        26.2504         63.7504
 95  4 13 20  4  0.0000000  0  6G 2G 7G15G19G26G27
  21151619.7974     326670.13848    253261.59649                  21151622.4574
        28.5004         63.7504
  20618978.9614   -2156904.63647  -1629820.50149                  20618981.7034
        27.0004         63.7504
  23655211.6094    -218912.35846   -152335.44546                  23655215.5944
        13.2504         17.7504
  22983516.7114    4278507.43446   3259440.43046                  22983520.9414
        14.2504         22.2504
  23447271.7114   -2271653.07146  -1717394.60146                  23447274.4184
        14.0004         20.2504
  20574820.0554    1883958.43847   1442179.82949                  20574822.5164
        26.2504         63.7504
 95  4 13 20  4 15.0000000  0  6G 2G 7G15G19G26G27
  21152509.0474     331343.27348    256903.00249                  21152511.7774
        28.5004         63.7504
  20615869.3524   -2173244.65647  -1642552.97649                  20615872.1644
        27.0004         63.7504
  23655982.1884    -214863.19946   -149180.24346                  23655985.7974
        13.5004         15.7504
  22992296.4384    4324646.01846   3295392.54446                  22992301.1724
        14.2504         21.5004
  23443939.4064   -2289165.19546  -1731040.41146                  23443941.6454
        14.2504         19.7504
  20579481.4534    1908453.55447   1461266.91949                  20579483.8794
        26.2504         63.7504
 95  4 13 20  4 30.0000000  0  6G 2G 7G15G19G26G27
  21153405.6024     336055.58648    260574.93849                  21153408.2974
        28.2504         63.7504
  20612784.8444   -2189452.88147  -1655182.75049                  20612787.5274
        26.5004         63.7504
  23656780.6564    -210669.48046   -145912.40546                  23656784.3364
        14.0004         17.7504
  23001089.9064    4370854.38546   3331399.02646                  23001094.5124
        14.0004         23.5004
  23440631.8364   -2306545.01446  -1744583.12246                  23440634.4494
        14.0004         19.0004
  20584164.2974    1933062.95647   1480443.06949                  20584166.7584
        26.2504         63.7504
 95  4 13 20  4 45.0000000  0  6G 2G 7G15G19G26G27
  21154310.4304     340810.59148    264280.13449                  21154313.1254
        28.2504         63.7504
  20609725.2114   -2205532.15647  -1667712.05049                  20609727.8134
        27.0004         63.7504
  23657605.9614    -206331.53346   -142532.18446                  23657608.9144
        13.7504         19.0004
  23009896.0474    4417130.29746   3367458.14546                  23009900.5004
        14.2504         21.5004
  23437348.9144   -2323797.89046  -1758026.91046                  23437351.1764
        14.0004         18.2504
  20588868.6644    1957784.56747   1499706.65349                  20588871.0664
        26.0004         63.7504
 95  4 13 20  5  0.0000000  0  6G 2G 7G15G19G26G27
  21155223.1484     345607.73547    268018.16749                  21155225.9494
        27.7504         63.7504
  20606688.4614   -2221490.81047  -1680147.35949                  20606691.2384
        27.0004         63.7504
  23658458.3054    -201852.87246   -139042.30546                  23658461.5634
        13.7504         17.0004
  23018713.2894    4463466.85446   3403564.52746                  23018717.8244
        14.0004         21.5004
  23434088.4454   -2340930.70146  -1771377.14246                  23434090.7774
        14.0004         21.5004
  20593593.6414    1982613.65247   1519053.98349                  20593596.0904
        26.2504         63.7504
 95  4 13 20  5 15.0000000  0  6G 2G 7G15G19G26G27
  21156145.3834     350452.11648    271793.01349                  21156148.0554
        28.2504         63.7504
  20603675.3754   -2237326.04047  -1692486.48649                  20603678.0354
        27.5004         63.7504
  23659338.1954    -197228.88746   -135439.20645                  23659341.5234
        13.7504         11.7504
  23027543.1094    4509866.44146   3439720.01246                  23027547.4804
        14.2504         23.5004
  23430852.2584   -2357938.12446  -1784629.66146                  23430854.3324
        14.0004         19.7504
  20598340.6094    2007559.27547   1538492.12149                  20598343.0354
        26.5004         63.7504
 95  4 13 20  5 30.0000000  0  6G 2G 7G15G19G26G27
  21157075.8054     355343.29348    275604.32149                  21157078.4654
        28.2504         63.7504
  20600684.9384   -2253040.65047  -1704731.63049                  20600687.6454
        27.2504         63.7504
  23660245.5704    -192461.26246   -131724.13546                  23660249.0394
        13.5004         21.5004
  23036384.4384    4556331.50046   3475926.52246                  23036388.2114
        14.0004         23.0004
  23427639.0784   -2374822.59246  -1797786.38846                  23427641.5864
        14.2504         21.5004
  20603110.6254    2032623.88847   1558022.97849                  20603112.9694
        26.7504         63.7504
 95  4 13 20  5 45.0000000  0  6G 2G 7G15G19G26G27
  21158017.8284     360292.40348    279460.76149                  21158020.6414
        28.2504         63.7504
  20597718.7584   -2268628.39347  -1716877.91849                  20597721.3714
        27.5004         63.7504
  23661181.9694    -187540.90546
        13.5004
  23045241.1094    4602871.77346   3512191.63746                  23045245.3404
        14.2504         21.0004
  23424451.7344   -2391574.26646  -1810839.63846                  23424453.8674
        14.5004         21.5004
  20607905.4844    2057822.26247   1577658.06649                  20607907.7464
        26.7504         63.7504
 95  4 13 20  6  0.0000000  0  6G 2G 7G15G19G26G27
  21158968.5164     365287.74848    283353.25149                  21158971.3874
        28.2504         63.7504
  20594773.8594   -2284104.20347  -1728936.98249                  20594776.4844
        27.2504         63.7504
  23662145.2734    -182477.84246
        13.2504
  23054110.0314    4649476.72346   3548507.16446                  23054114.2154
        14.7504         23.0004
  23421287.4304   -2408202.60046  -1823796.76646                  23421289.6454
        14.5004         21.5004
  20612723.9384    2083144.41147   1597389.60149                  20612726.1294
        26.2504         63.7504
 95  4 13 20  6 15.0000000  0  6G 2G 7G15G19G26G27
  21159926.8444     370323.59648    287277.28649                  21159929.5984
        28.5004         63.7504
  20591848.2584   -2299477.70747  -1740916.32549                  20591851.0234
        27.0004         63.7504
  23663134.3524    -177279.46646
        13.2504
  23062990.7974    4696144.10746   3584871.32246                  23062994.6414
        14.5004         23.0004
  23418145.8054   -2424712.99146  -1836662.00446                  23418148.3834
        14.7504         23.5004
  20617565.0864    2108583.61747   1617212.35049                  20617567.3484
        26.2504         63.7504
 95  4 13 20  6 30.0000000  0  6G 2G 7G15G19G26G27
  21160894.7894     375410.67848    291241.25049                  21160897.4844
        28.5004         63.7504
  20588945.0784   -2314732.71047  -1752803.33349                  20588947.7854
        27.2504         63.7504
  23664151.7974    -171934.14446    153689.00956                  23664155.3714
        13.2504         13.0004
  23071884.9844    4742885.87646   3621293.44846                  23071889.0274
        14.2504         21.5004
  23415027.7814   -2441095.91046  -1849427.89846                  23415030.1024
        14.2504         21.5004
  20622430.4454    2134151.97947   1637135.74049                  20622432.7894
        26.0004         63.7504
 95  4 13 20  6 45.0000000  0  6G 2G 7G15G19G26G27
  21161871.2344     380541.80548    295239.53049                  21161873.9304
        28.7504         63.7504
  20586064.0084   -2329873.66247  -1764601.47149                  20586066.6334
        27.5004         63.7504
  23665195.9774    -166446.95646    157964.76346                  23665199.7154
        13.2504         16.5004
  23080792.5164    4789695.03846   3657768.08946                  23080796.9924
        14.0004         22.2504
  23411933.7664   -2457358.50846  -1862100.04346                  23411936.2734
        14.7504         23.5004
  20627319.8054    2159845.83847   1657156.91649                  20627322.2544
        26.0004         63.7504
 95  4 13 20  7  0.0000000  0  6G 2G 7G15G19G26G27
  21162857.9454     385726.76648    299279.76149                  21162860.7114
        28.7504         63.7504
  20583207.3834   -2344885.87147  -1776299.28749                  20583209.9734
        27.5004         63.7504
  23666268.8364    -160805.25446    162360.89346                  23666272.9264
        12.7504         19.0004
  23089715.4774    4836583.95246   3694304.87446                  23089719.9184
        14.0004         21.0004
  23408864.5944   -2473486.16846  -1874667.04946                  23408867.1604
        14.7504         23.0004
  20632235.4774    2185678.20847   1677286.02349                  20632237.9024
        26.0004         63.7504
 95  4 13 20  7 15.0000000  0  6G 2G 7G15G19G26G27
  21163851.9454     390950.18048    303349.95649                  21163854.6764
        29.0004         63.7504
  20580374.6954   -2359771.66447  -1787898.60049                  20580377.2734
        27.0004         63.7504
  23667370.7194    -155017.33046    166870.97846                  23667374.4804
        13.0004         15.0004
  23098651.5634    4883544.62646   3730897.56046                  23098655.9924
        13.7504         22.2504
  23405820.3364   -2489483.22346  -1887132.27746                  23405822.6804
        14.7504         20.2504
  20637176.3054    2211641.27247   1697516.97449                  20637178.8014
        25.7504         63.7504
 95  4 13 20  7 30.0000000  0  6G 2G 7G15G19G26G27
  21164852.0084     396207.04348    307446.21249                  21164854.7384
        28.5004         63.7504
  20577566.4304   -2374529.84747  -1799398.47349                  20577569.1134
        27.2504         63.7504
  23668499.1484    -149086.12146    171492.71046                  23668502.9454
        13.0004         13.0004
  23107601.6954    4930577.28546   3767546.36246                  23107605.8094
        13.5004         19.7504
  23402800.2504   -2505351.36446  -1899497.05746                  23402803.1684
        14.0004         23.0004
  20642141.5084    2237734.70147   1717849.50749                  20642143.7704
        25.7504         63.7504
 95  4 13 20  7 45.0000000  0  6G 2G 7G15G19G26G27
  21165860.1414     401503.85448    311573.59649                  21165862.8364
        28.7504         63.7504
  20574783.7504   -2389152.01847  -1810792.36249                  20574786.4924
        27.2504         63.7504
  23669656.4924    -143003.81846    176232.15846                  23669659.8204
        13.0004         15.0004
  23116567.1884    4977690.10346   3804257.60546                  23116571.1484
        14.0004         22.2504
  23399807.3284   -2521081.02646  -1911753.92346                  23399810.1524
        14.2504         21.5004
  20647132.9694    2263964.43347   1738288.24549                  20647135.3244
        25.7504         63.7504
 95  4 13 20  8  0.0000000  0  6G 2G 7G15G19G26G27
  21166875.5474     406840.26648    315731.84049                  21166878.1374
        28.7504         63.7504
  20572027.4694   -2403636.76747  -1822079.17049                  20572030.2114
        27.2504         63.7504
  23670843.1644    -136771.12146    181088.81646                  23670846.8794
        13.2504         17.0004
  23125547.7664    5024881.97546   3841030.45846                  23125551.6804
        14.2504         20.2504
  23396840.3204   -2536672.94046  -1923903.46446                  23396843.3674
        14.2504         19.0004
  20652149.5944    2290327.10347   1758830.57549                  20652151.9144
        25.7504         63.7504
 95  4 13 20  8 15.0000000  0  6G 2G 7G15G19G26G27
  21167898.9534     412217.46748    319921.86749                  21167901.6374
        28.7504         63.7504
  20569297.3984   -2417983.83047  -1833258.68949                  20569300.0944
        27.0004         63.7504
  23672057.3204    -130388.10146    186062.60446                  23672060.5554
        13.2504         17.0004
  23134543.2584    5072153.81546   3877865.63346                  23134547.1134
        14.0004         21.5004
  23393899.2664   -2552127.54246  -1935946.00646                  23393902.3364
        13.7504         21.5004
  20657191.9454    2316824.20747   1779477.65549                  20657194.1954
        25.7504         63.7504
 95  4 13 20  8 30.0000000  0  6G 2G 7G15G19G26G27
  21168929.8914     417633.62348    324142.24949                  21168932.4104
        29.2504         63.7504
  20566593.1094   -2432193.83447  -1844331.41249                  20566595.8284
        27.0004         63.7504
  23673299.9534    -123858.08846    191150.92446                  23673303.4454
        13.0004         13.7504
  23143553.0084    5119500.80546   3914759.34646                  23143556.7704
        13.7504         19.0004
  23390983.8284   -2567448.89546  -1947884.70546                  23390986.6644
        13.7504         18.2504
  20662259.3594    2343454.52347   1800228.53949                  20662261.7504
        25.2504         63.7504
 95  4 13 20  8 45.0000000  0  6G 2G 7G15G19G26G27
  21169967.8134     423089.66848    328393.71749                  21169970.3554
        29.0004         63.7504
  20563914.9924   -2446268.24747  -1855298.47749                  20563917.6884
        27.0004         63.7504
  23674570.8444    -117180.10646    196354.55146                  23674574.3834
        13.0004         16.5004
  23152576.6564    5166919.11046   3951708.65046                  23152579.9964
        14.0004         20.2504
  23388093.6484   -2582635.02246  -1959718.04446                  23388096.8954
        13.7504         22.2504
  20667352.5704    2370218.53747   1821083.60349                  20667354.9734
        25.0004         63.7504
 95  4 13 20  9  0.0000000  0  6G 2G 7G15G19G26G27
  21171014.7504     428590.29148    332679.91949                  21171017.2234
        29.2504         63.7504
  20561262.6804   -2460206.41647  -1866159.37549                  20561265.4454
        27.2504         63.7504
  23675870.0004    -110351.01646    201675.93346                  23675873.3874
        13.0004         13.7504
  23161614.2814    5214412.86046   3988716.73146                  23161618.1254
        14.0004         23.5004
  23385230.4774   -2597679.90446  -1971441.31846                  23385233.5824
        13.2504         20.2504
  20672471.3834    2397118.91047   1842044.92349                  20672473.8554
        25.2504         63.7504
 95  4 13 20  9 15.0000000  0  6G 2G 7G15G19G26G27
  21172070.9384     434140.90048    337005.06849                  21172073.3634
        29.5004         63.7504
  20558636.9064   -2474005.24047  -1876911.69649                  20558639.6374
        27.2504         63.7504
  23677199.6414    -103366.37246    207118.51346                  23677203.4494
        13.0004         17.0004
  23170667.6484    5261989.31346   4025789.25446                  23170672.0784
        13.7504         19.7504
  23382395.3594   -2612579.76246  -1983051.58346                  23382398.6524
        13.2504         21.0004
  20677617.0004    2424157.33347   1863113.81249                  20677619.3914
        25.2504         63.7504
 95  4 13 20  9 30.0000000  0  6G 2G 7G15G19G26G27
  21173137.0314     439743.88048    341371.02549                  21173139.4574
        29.7504         63.7504
  20556036.0944   -2487672.16647  -1887561.23849                  20556038.7894
        27.0004         63.7504
  23678557.8364     -96228.43746    212680.55446                  23678560.8484
        13.2504         17.7504
  23179737.1804    5309649.55946   4062927.07846                  23179741.5274
        13.7504         20.2504
  23379586.4454   -2627340.97946  -1994553.82046                  23379590.1724
        13.5004         21.5004
  20682788.3364    2451333.74547   1884290.22649                  20682790.8094
        25.2504         63.7504
 95  4 13 20  9 45.0000000  0  6G 2G 7G15G19G26G27
  21174213.9224     445401.93448    345779.89949                  21174216.3364
        30.0004         63.7504
  20553459.5944   -2501212.08847  -1898111.81349                  20553462.3834
        27.0004         63.7504
  23679945.3054     -88937.72546    218361.62046                  23679948.2114
        13.2504         15.0004
  23188822.3984    5357393.40146   4100130.03146                  23188826.7704
        13.7504         22.2504
  23376804.0864   -2641963.16246  -2005947.72446                  23376807.8714
        13.7504         21.0004
  20687985.5944    2478646.36247   1905572.77549                  20687988.1604
        25.0004         63.7504
 95  4 13 20 10  0.0000000  0  6G 2G 7G15G19G26G27
  21175300.9924     451115.00748    350231.64349                  21175303.3244
        29.7504         63.7504
  20550907.0864   -2514624.88047  -1908563.33149                  20550909.8754
        27.5004         63.7504
  23681361.6094     -81495.33846    224160.89546                  23681364.4574
        13.2504         15.0004
  23197922.8594    5405215.34146   4137393.83946                  23197927.0784
        13.7504         21.5004
  23374047.6564   -2656447.88946  -2017234.51846                  23374050.8554
        13.7504         20.2504
  20693208.5704    2506093.56447   1926960.19549                  20693211.0904
        25.0004         63.7504
 95  4 13 20 10 15.0000000  0  6G 2G 7G15G19G26G27
  21176399.3594     456886.89848    354729.22349                  21176401.9844
        29.7504         63.7504
  20548379.5314   -2527907.29847  -1918913.25549                  20548382.2154
        27.0004         63.7504
  23682807.3204     -73898.20646    230080.73046                  23682811.0824
        13.2504         13.7504
  23207038.1804    5453116.31846   4174719.24746                  23207042.6914
        13.5004         20.2504
  23371317.7194   -2670793.03146  -2028412.53646                  23371320.8364
        13.7504         22.2504
  20698458.0704    2533679.32347   1948455.58049                  20698460.6374
        25.0004         63.7504
 95  4 13 20 10 30.0000000  0  6G 2G 7G15G19G26G27
  21177509.6644     462720.83648    359275.14949                  21177512.1604
        30.0004         63.7504
  20545877.6884   -2541054.46847  -1929157.79549                  20545880.4884
        27.0004         63.7504
  23684283.0084     -66142.35846    236124.25946                  23684286.6174
        13.0004         13.7504
  23216168.9064    5501099.34546   4212108.57346                  23216173.1724
        13.2504         17.0004
  23368615.8284   -2684992.08146  -2039476.72146                  23368618.4654
        14.0004         21.5004
  20703734.3284    2561407.51647   1970061.94949                  20703736.8834
        24.7504         63.7504
 95  4 13 20 10 45.0000000  0  7G 2G 7G12G15G19G26G27
  21178631.4844     468616.00948    363868.79049                  21178633.9344
        30.2504         63.7504
  20543401.8284   -2554065.46647  -1939296.22449                  20543404.6414
        27.5004         63.7504
                    -17969.15614    -14001.77015  24123605.914    24123610.535
         6.250           6.000
  23685789.4224     -58226.44646    242292.49946                  23685792.6684
        13.2504         15.7504
  23225315.7114    5549165.11446   4249562.37946                  23225320.0824
        13.0004         19.0004
  23365942.0314   -2699043.57346  -2050425.93946                  23365944.5394
        14.2504         21.5004
  20709037.4454    2589275.14647   1991776.97549                  20709039.7664
        25.2504         63.7504
 95  4 13 20 11  0.0000000  0  7G 2G 7G12G15G19G26G27
  21179763.2274     474563.67648    368503.33449                  21179765.5704
        30.2504         63.7504
  20540950.3754   -2566947.81347  -1949334.40849                  20540953.0594
        27.2504         63.7504
                    -51659.806 4    -40254.201 5  24117194.813    24117199.805
         6.250           6.000
  23687324.9694     -50157.00546    248580.38946                  23687327.7704
        13.2504         13.0004
  23234476.8204    5597310.04546   4287077.88146                  23234481.0634
        12.7504         18.2504
  23363295.1094   -2712954.10946  -2061265.30846                  23363296.8794
        14.7504         21.5004
  20714365.8444    2617274.74247   2013594.82949                  20714368.1524
        25.2504         63.7504
 95  4 13 20 11 15.0000000  0  7G 2G 7G12G15G19G26G27
  21180904.7734     480561.96748    373177.32949                  21180907.0824
        30.2504         63.7504
  20538524.1884   -2579698.12447  -1959269.70149                  20538526.7664
        27.2504         63.7504
                    -85341.565 4    -66499.687 5  24110785.094    24110790.117
         6.250           6.000
  23688890.2814     -41933.04846    254988.67146                  23688894.0554
        13.2504         15.0004
  23243654.5704    5645537.61046   4324657.76446                  23243659.1174
        12.5004         17.0004
  23360674.6414   -2726725.13346  -2071995.96946                  23360677.0554
        14.7504         23.0004
  20719718.9144    2645406.40347   2035515.59449                  20719721.2344
        25.2504         63.7504
 95  4 13 20 11 30.0000000  0  7G 2G 7G12G15G19G26G27
  21182055.8364     486610.28348    377890.30549                  21182058.0984
        30.2504         63.7504
  20536123.5784   -2592312.95147  -1969099.42949                  20536126.3204
        27.0004         63.7504
                   -119012.069 4    -92736.420 5  24104377.945    24104382.824
         6.250           6.000
  23690485.0084     -33552.26246    261519.15346                  23690488.6764
        13.0004         15.0004
  23252847.7424    5693848.55146   4362302.61846                  23252852.7114
        12.2504         18.2504
  23358080.4224   -2740357.44546  -2082618.54546                  23358082.4964
        14.7504         22.2504
  20725098.0474    2673672.78047   2057541.33049                  20725100.3554
        25.0004         63.7504
 95  4 13 20 11 45.0000000  0  7G 2G 7G12G15G19G26G27
  21183216.6334     492710.50948    382643.73149                  21183218.8954
        30.2504         63.7504
  20533750.2894   -2604784.47447  -1978817.48949                  20533753.0204
        27.5004         63.7504
                   -152667.238 4   -118961.194 5  24097973.625    24097978.309
         6.250           5.750
  23692110.3524     -25010.42446    268175.13546                  23692114.1024
        13.2504         17.7504
  23262057.4384    5742242.06846   4400011.80246                  23262061.9964
        13.0004         18.2504
  23355513.7894   -2753844.63646  -2093128.05446                  23355515.5704
        15.0004         23.0004
  20730503.2734    2702078.45347   2079675.61249                  20730505.4534
        25.2504         63.7504
 95  4 13 20 12  0.0000000  0  7G 2G 7G12G15G19G26G27
  21184387.0554     498861.39048    387436.62849                  21184389.3164
        30.5004         63.7504
  20531404.6804   -2617110.27847  -1988422.00249                  20531407.3984
        27.5004         63.7504
                   -186307.014 4   -145173.981 5  24091571.961    24091576.676
         6.250           5.750
  23693766.2974     -16307.77846    274956.42146                  23693770.1884
        13.2504         15.7504
  23271280.7114    5790712.55646   4437780.98846                  23271285.3284
        12.7504         18.2504
  23352975.4774   -2767184.69446  -2103522.90046                  23352977.3404
        15.0004         23.0004
  20735935.0784    2730622.10047   2101917.40149                  20735937.3874
        25.5004         63.7504
 95  4 13 20 12 15.0000000  0  7G 2G 7G12G15G19G26G27
  21185566.4614     505059.86948    392266.61549                  21185568.6414
        30.7504         63.7504
  20529086.0634   -2629294.78247  -1997916.40749                  20529088.6764
        27.5004         63.7504
                   -219935.622 4   -171378.066 5  24085172.727    24085177.293
         6.250           5.750
  23695452.2504      -7448.49746    281859.76346                  23695456.0704
        13.0004         15.7504
  23280517.8444    5839254.79346   4475606.07446                  23280522.4494
        13.0004         19.0004
  23350463.7814   -2780383.45646  -2113807.65046                  23350465.4224
        15.0004         21.5004
  20741391.9144    2759298.21647   2124262.41949                  20741394.3874
        25.2504         63.7504
 95  4 13 20 12 30.0000000  0  7G 2G 7G12G15G19G26G27
  21186755.9614     511308.76448    397135.88449                  21186758.0944
        31.0004         63.7504
  20526794.6254   -2641337.08647  -2007300.01149                  20526797.2274
        27.5004         63.7504
                   -253550.597 3   -197571.525 5  24078775.773    24078780.566
         6.000           6.000
  23697168.0394       1569.81446    288887.02246                  23697172.4104
        13.0004         16.5004
  23289769.3984    5887873.15446   4513490.47646                  23289773.9574
        13.0004         19.7504
  23347979.8524   -2793437.48046  -2123979.61646                  23347982.1724
        15.0004         23.0004
  20746874.0084    2788106.34247   2146710.29449                  20746876.4924
        25.5004         63.7504
 95  4 13 20 12 45.0000000  0  7G 2G 7G12G15G19G26G27
  21187952.9844     517600.38648    402038.44849                  21187955.0124
        30.7504         63.7504
  20524528.2734   -2653246.81047  -2016580.30549                  20524530.9574
        27.5004         63.7504
                   -287159.509 3   -223760.257 5  24072380.070    24072385.211
         6.000           6.250
  23698912.9454      10739.57246    296032.29546                  23698917.7624
        13.0004         13.7504
  23299035.4144    5936561.44646   4551429.36146                  23299039.2934
        13.2504         17.7504
  23345521.4144   -2806357.27446  -2134046.98446                  23345523.3364
        15.0004         22.2504
  20752379.4304    2817036.60647   2169253.34649                  20752381.8094
        25.7504         63.7504
 95  4 13 20 13  0.0000000  0  7G 2G 7G12G15G19G26G27
  21189159.2584     523938.96048    406977.59649                  21189161.2624
        30.7504         63.7504
  20522287.2034   -2665022.93747  -2025756.49949                  20522289.8754
        27.2504         63.7504
                   -320758.956 3   -249941.612 5  24065986.523    24065991.090
         6.000           6.250
  23700687.1484      20064.05246    303298.11146                  23700691.4024
        12.7504         13.7504
  23308313.3914    5985321.39546   4589424.10446                  23308317.8204
        13.2504         17.7504
  23343088.5234   -2819140.84646  -2144008.20246                  23343090.3874
        14.7504         22.2504
  20757908.6334    2846092.31447   2191894.14549                  20757910.8364
        25.7504         63.7504
 95  4 13 20 13 15.0000000  0  7G 2G 7G12G15G19G26G27
  21190375.8054     530332.69748    411959.73349                  21190377.8554
        30.7504         63.7504
  20520073.3984   -2676657.23547  -2034822.17549                  20520076.1054
        27.2504         63.7504
                   -354342.884 4   -276110.879 5  24059595.430    24059600.617
         6.250           6.500
  23702492.3054      29549.29646    310689.22946                  23702495.8554
        12.7504         16.5004
  23317607.0004    6034158.38746   4627478.86246                  23317611.1604
        13.0004         19.7504
  23340683.1484   -2831781.41346  -2153857.99246                  23340685.1764
        14.7504         23.5004
  20763462.9924    2875281.06447   2214638.61949                  20763465.2304
        26.0004         63.7504
 95  4 13 20 13 30.0000000  0  7G 2G 7G12G15G19G26G27
  21191603.7734     536785.65048    416988.00649                  21191605.7774
        31.0004         63.7504
  20517886.7274   -2688147.85847  -2043775.90149                  20517889.4574
        27.0004         63.7504
                   -387909.624 4   -302266.755 5  24053208.141    24053213.098
         6.250           6.500
  23704328.7424      39196.97246    318206.90446                  23704331.7664
        12.7504         15.0004
  23326914.3674    6083071.52546   4665592.95346                  23326918.7034
        12.7504         17.7504
  23338304.9064   -2844276.86646  -2163594.70346                  23338307.1094
        14.5004         20.2504
  20769043.7194    2904605.70847   2237488.97849                  20769045.9344
        26.2504         63.7504
 95  4 13 20 13 45.0000000  0  7G 2G 7G12G15G19G26G27
  21192842.6254     543296.21948    422061.18049                  21192844.6054
        31.0004         63.7504
  20515726.5944   -2699498.99747  -2052620.93449                  20515729.2894
        27.2504         63.7504
                   -421463.038 4   -328412.251 5  24046823.102    24046827.973
         6.250           6.750
  23706194.3594      49003.06246    325847.99746                  23706197.8754
        12.5004         13.7504
  23336236.1804    6132056.09146   4703762.70546                  23336240.3984
        13.0004         19.7504
  23335954.7424   -2856626.88746  -2173218.08646                  23335957.4494
        14.2504         22.2504
  20774649.0164    2934063.18747   2260442.85149                  20774651.2194
        26.2504         63.7504
 95  4 13 20 14  0.0000000  0  7G 2G 7G12G15G19G26G27
  21194093.5944     549868.92048    427182.76349                  21194095.4694
        31.5004         63.7504
  20513592.4144   -2710714.25447  -2061360.08949                  20513595.0394
        27.5004         63.7504
                   -455003.893 4   -354547.949 5  24040440.633    24040445.496
         6.250           6.750
  23708090.5314      58966.85246    333612.00046                  23708094.0354
        12.5004         14.5004
  23345572.1254    6181112.79746   4741988.67846                  23345576.1454
        13.2504         19.0004
  23333632.9144   -2868828.67046  -2182725.96446                  23333635.6684
        14.2504         23.5004
  20780279.2504    2963651.39847   2283498.58549                  20780281.5354
        26.2504         63.7504
 95  4 13 20 14 15.0000000  0  7G 2G 7G12G15G19G26G27
  21195356.5474     556505.92848    432354.46049                  21195358.3284
        31.2504         63.7504
  20511484.1334   -2721793.16347  -2069992.99649                  20511486.8054
        27.5004         63.7504
                   -488529.870 4   -380672.062 5  24034060.633    24034065.570
         6.250           7.000
  23710016.8914      69090.34946    341500.44345                  23710020.5474
        12.7504         11.7504
  23354921.2274    6230246.60346   4780274.72246                  23354925.3284
        13.0004         19.0004
  23331339.6724   -2880879.88646  -2192116.50946                  23331342.6024
        14.2504         23.0004
  20785935.1174    2993372.32647   2306657.74249                  20785937.4384
        26.2504         63.7504
 95  4 13 20 14 30.0000000  0  7G 2G 7G12G15G19G26G27
  21196631.7584     563207.91348    437576.78749                  21196633.5864
        31.5004         63.7504
  20509402.5474   -2732732.43947  -2078517.10149                  20509405.1254
        27.2504         63.7504
                   -522037.044 4   -406781.520 5  24027684.570    24027689.590
         6.250           7.000
  23711974.2974      79377.70146    349516.56146                  23711977.6024
        12.2504         14.5004
  23364287.1484    6279464.17746   4818626.03546                  23364291.6844
        12.5004         17.0004
  23329075.6024   -2892778.03846  -2201387.79746                  23329078.9774
        14.2504         23.0004
  20791616.6564    3023230.50547   2329923.84749                  20791618.7894
        26.0004         63.7504
 95  4 13 20 14 45.0000000  0  7G 2G 7G12G15G19G26G27
  21197917.2814     569964.08048    442841.33449                  21197919.1804
        31.5004         63.7504
  20507345.8674   -2743539.75647  -2086938.38049                  20507348.5274
        27.2504         63.7504
                   -555533.378 4   -432882.529 5  24021310.242    24021315.309
         6.250           7.000
  23713961.8284      89820.53746    357653.83846                  23713964.9454
        12.5004         14.5004
  23373667.8134    6328757.60746   4857036.45846                  23373672.2664
        13.0004         17.0004
  23326838.5944   -2904532.12646  -2210546.81546                  23326841.8054
        14.2504         23.0004
  20797323.5634    3053219.35647   2353291.77449                  20797325.8594
        26.2504         63.7504
 95  4 13 20 15  0.0000000  0  7G 2G 7G12G15G19G26G27
  21199215.0164     576782.36448    448154.28149                  21199216.8674
        31.5004         63.7504
  20505315.9614   -2754207.02247  -2095250.52749                  20505318.6094
        27.2504         63.7504
                   -589010.240 4   -458968.369 5  24014939.688    24014944.867
         6.250           7.250
  23715979.9224     100427.53846    365919.03846                  23715982.7584
        12.2504         13.0004
  23383064.2504    6378135.09746   4895512.38546                  23383069.0904
        12.7504         17.0004
  23324631.4844   -2916131.33446  -2219585.15846                  23324634.7424
        14.2504         23.0004
  20803057.4614    3083351.51247   2376771.36549                  20803059.7114
        26.2504         63.7504
 95  4 13 20 15 15.0000000  0  7G 2G 7G12G15G19G26G27
  21200525.1334     583667.17548    453519.06949                  21200526.9384
        31.5004         63.7504
  20503313.9694   -2764727.52947  -2103448.31849                  20503316.5944
        27.5004         63.7504
                   -622463.735 4   -485035.995 5  24008573.789    24008578.945
         6.250           7.250
  23718030.8054     111202.47546    374315.07446                  23718034.3204
        12.2504         13.0004
  23392477.2974    6427601.02346   4934057.22346                  23392482.1024
        12.5004         16.5004
  23322455.1804   -2927568.83046  -2228497.48146                  23322458.4024
        14.2504         22.2504
  20808820.0084    3113632.88947   2400367.23349                  20808822.2934
        26.2504         63.7504
 95  4 13 20 15 30.0000000  0  7G 2G 7G12G15G19G26G27
  21201846.6334     590611.82048    458930.48249                  21201848.4024
        31.5004         63.7504
  20501338.9844   -2775107.11347  -2111536.29849                  20501341.6334
        27.5004         63.7504
                   -655899.796 4   -511090.043 5  24002211.133    24002216.473
         6.500           7.500
  23720111.6414     122139.33746    382837.32346                  23720114.6054
        12.0004         13.0004
  23401905.9774    6477149.73346   4972666.56246                  23401911.2274
        12.2504         15.7504
  23320307.6414   -2938851.88346  -2237289.46246                  23320311.0514
        13.7504         23.0004
  20814609.1484    3144056.26747   2424073.75249                  20814611.4454
        26.5004         63.7504
 95  4 13 20 15 45.0000000  0  7G 2G 7G12G15G19G26G27
  21203179.4844     597615.55748    464387.94549                  21203181.3244
        31.5004         63.7504
  20499390.1564   -2785346.73947  -2119515.22049                  20499392.9104
        27.0004         63.7504
                   -689317.616 4   -537129.875 5  23995851.852    23995857.164
         6.750           7.500
  23722223.9694     133239.07946    391486.46845                  23722227.4144
        12.2504         10.5004
  23411350.8754    6526782.47446   5011341.39046                  23411355.7974
        12.0004         15.0004
  23318189.6724   -2949981.32246  -2245961.74846                  23318193.0124
        14.0004         23.0004
  20820425.2814    3174619.45647   2447889.21749                  20820427.6374
        26.2504         63.7504
 95  4 13 20 16  0.0000000  0  7G 2G 7G12G15G19G26G27
  21204522.7194     604675.15048    469888.92749                  21204524.5594
        31.7504         63.7504
  20497467.5084   -2795450.45847  -2127388.24149                  20497470.3204
        27.2504         63.7504
                   -722719.447 4   -563157.240 5  23989495.742    23989501.020
         6.500           7.500
  23724366.8134     144499.26646    400260.63946                  23724369.9414
        12.2504         14.5004
  23420810.6414    6576496.30545   5050079.39846                  23420814.7074
        11.5004         15.7504
  23316100.9924   -2960960.11946  -2254516.64246                  23316104.0514
        14.5004         23.0004
  20826267.5634    3205320.36347   2471811.99049                  20826269.8134
        26.2504         63.7504
 95  4 13 20 16 15.0000000  0  7G 2G 7G12G15G19G26G27
  21205877.1414     611792.93648    475435.25749                  21205878.9924
        31.5004         63.7504
  20495572.1024   -2805412.65147  -2135150.98349                  20495574.7854
        27.5004         63.7504
                   -756099.351 4   -589167.526 5  23983143.555    23983148.809
         6.500           7.500
  23726540.9304     155925.73746    409164.37346                  23726544.2464
        12.2504         13.0004
  23430287.3364    6626294.89645   5088883.43946                  23430292.1524
        11.5004         13.0004
  23314040.6954   -2971787.39546  -2262953.48346                  23314043.9414
        14.7504         23.0004
  20832137.2734    3236165.63347   2495847.25849                  20832139.6414
        26.0004         63.7504
 95  4 13 20 16 30.0000000  0  7G 2G 7G12G15G19G26G27
  21207240.8834     618959.17348    481019.33949                  21207242.7934
        31.5004         63.7504
  20493701.9844   -2815238.49247  -2142807.47849                  20493704.6684
        27.5004         63.7504
                   -789462.937 4   -615165.094 5  23976794.797    23976800.000
         6.750           7.500
  23728745.9304     167512.68246    418193.18046                  23728750.0554
        12.2504         13.0004
  23439778.6414    6676172.42445   5127749.00446                  23439783.3874
        11.5004         16.5004
  23312008.0234   -2982471.16946  -2271278.49246                  23312010.8714
        15.5004         25.0004
  20838033.5004    3267150.28647   2519991.13049                  20838035.7854
        26.0004         63.7504
 95  4 13 20 16 45.0000000  0  7G 2G 7G12G15G19G26G27
  21208613.7974     626173.14648    486640.61849                  21208615.5664
        31.7504         63.7504
  20491857.3364   -2824932.32947  -2150361.10849                  20491860.0554
        27.2504         63.7504
                   -822815.043 4   -641153.724 5  23970448.250    23970453.188
         6.750           7.500
  23730980.7034     179255.31246    427343.28646                  23730983.8444
        12.2504         13.7504
  23449283.7114    6726124.35145   5166672.56146                  23449288.3524
        11.5004         15.7504
  23310000.7894   -2993017.72746  -2279496.58346                  23310003.5784
        15.2504         24.2504
  20843954.8834    3298268.75247   2544239.27549                  20843957.2034
        25.7504         63.7504
 95  4 13 20 17  0.0000000  0  7G 2G 7G12G15G19G26G27
  21209997.6954     633445.31048    492307.24249                  21209999.4654
        31.7504         63.7504
  20490039.4224   -2834485.47147  -2157805.10949                  20490042.1524
        27.5004         63.7504
                   -856145.584 4   -667125.542 5  23964105.664    23964110.445
         6.750           7.500
  23733247.0474     191163.52946    436622.40246                  23733250.7034
        12.2504         13.0004
  23458805.7584    6776160.65545   5205661.82346                  23458810.5394
        11.2504         13.7504
  23308021.7894   -3003415.76246  -2287598.95247                  23308024.5554
        15.0004         26.2504
  20849904.0394    3329529.57847   2568598.34749                  20849906.3244
        26.0004         63.7504
 95  4 13 20 17 15.0000000  0  7G 2G 7G12G15G19G26G27
  21211393.2974     640779.90048    498022.50649                  21211395.0554
        32.0004         63.7504
  20488249.1884   -2843891.88947  -2165134.77849                  20488251.9884
        27.2504         63.7504
                   -889450.722 4   -693077.570 5  23957767.898    23957772.785
         6.750           7.500
  23735544.9224     203241.12746    446033.51946                  23735549.2704
        12.0004         12.5004
  23468343.4224    6826283.32745   5244718.42446                  23468348.1094
        11.5004         14.5004
  23306072.1414   -3013663.75946  -2295584.40247                  23306074.2974
        15.2504         26.2504
  20855879.8054    3360933.34347   2593068.80449                  20855882.1374
        25.7504         63.7504
 95  4 13 20 17 30.0000000  0  7G 2G 7G12G15G19G26G27
  21212798.6094     648164.71548    503776.91149                  21212800.4144
        31.7504         63.7504
  20486485.5084   -2853161.37047  -2172357.74249                  20486488.4384
        27.2504         63.7504
                   -922741.407 4   -719018.339 5  23951432.703    23951437.684
         7.000           7.750
  23737873.3054     215476.96545    455567.94446                  23737877.1024
        11.7504         13.7504
  23477895.6334    6876479.75245   5283832.48646                  23477900.6374
        11.5004         13.7504
  23304147.7424   -3023776.46446  -2303464.42846                  23304150.1564
        15.5004         23.5004
  20861880.2734    3392467.11947   2617640.56649                  20861882.5354
        25.7504         63.7504
 95  4 13 20 17 45.0000000  0  7G 2G 7G12G15G19G26G27
  21214214.1564     655602.88648    509572.88849                  21214215.8794
        32.2504         63.7504
  20484748.4384   -2862289.53547  -2179470.59149                  20484751.3094
        27.2504         63.7504
                   -956012.192 4   -744943.603 5  23945101.445    23945106.563
         7.000           7.500
  23740232.6644     227876.53645    465229.95246                  23740236.2974
        11.7504         13.0004
  23487462.5314    6926753.77445   5323006.99746                  23487467.4064
        11.5004         13.7504
  23302250.0234   -3033750.24546  -2311236.20846                  23302252.2854
        15.7504         21.5004
  20867906.8054    3424136.25747   2642317.80549                  20867909.0434
        25.7504         63.7504
 95  4 13 20 18  0.0000000  0  7G 2G 7G12G15G19G26G27
  21215639.3594     663091.96148    515408.53349                  21215641.0594
        32.2504         63.7504
  20483038.5944   -2871275.36547  -2186472.53349                  20483041.4304
        27.5004         63.7504
                   -989264.010 4   -770854.090 5  23938773.758    23938778.961
         7.000           7.500
  23742623.3134     240438.73345    475018.66946                  23742626.9224
        11.5004         12.5004
  23497043.5234    6977103.50545   5362240.52446                  23497048.0124
        11.5004         13.0004
  23300378.2664   -3043584.77246  -2318899.47846                  23300380.3164
        16.2504         25.5004
  20873959.7194    3455943.77347   2667102.87249                  20873962.0274
        25.7504         63.7504
 95  4 13 20 18 15.0000000  0  7G 2G 7G12G15G19G26G27
  21217074.2814     670633.04048    521284.69949                  21217075.9454
        32.0004         63.7504
  20481355.9774   -2880117.72947  -2193362.67449                  20481358.7074
        27.5004         63.7504
                  -1022497.491 4   -796750.280 5  23932449.750    23932454.699
         7.000           7.500
  23745044.7344     253162.87245    484933.58746                  23745048.4494
        11.5004         14.5004
  23506639.2974    7027527.42745   5401531.84146                  23506643.2934
        11.0004         15.7504
  23298533.6094   -3053279.27846  -2326453.63346                  23298535.7774
        15.7504         24.2504
  20880038.6094    3487889.46547   2691995.60949                  20880040.9414
        25.5004         63.7504
 95  4 13 20 18 30.0000000  0  7G 2G 7G12G15G19G26G27
  21218520.5234     678233.80148    527207.36749                  21218522.3284
        31.7504         63.7504
  20479702.1724   -2888807.68347  -2200134.06049                  20479704.8444
        27.0004         63.7504
                  -1055705.702 4   -822626.783 5  23926130.398    23926135.430
         7.000           7.250
  23747498.5864     266055.68546    494979.93846                  23747502.2774
        12.0004         14.5004
  23516250.3984    7078035.64645   5440888.85546                  23516255.4844
        11.5004         13.7504
  23296716.8444   -3062824.65546  -2333891.59146                  23296719.2344
        15.2504         23.5004
  20886144.8284    3519978.03947   2716999.68149                  20886147.1134
        25.0004         63.7504
 95  4 13 20 18 45.0000000  0  7G 2G 7G12G15G19G26G27
  21219977.8284     685891.08048    533174.07749                  21219979.5744
        32.2504         63.7504
  20478076.6724   -2897349.76447  -2206790.22049                  20478079.3444
        27.7504         63.7504
                  -1088894.539 4   -848488.193 5  23919814.992    23919819.629
         7.000           7.250
  23749982.6724     279111.21046    505153.06446                  23749986.2814
        12.2504         13.0004
  23525877.5394    7128624.55445   5480308.74646                  23525881.9924
        11.5004         15.0004
  23294928.4534   -3072223.30146  -2341215.20846                  23294930.8674
        15.2504         24.2504
  20892277.1094    3552203.29147   2742110.25249                  20892279.4654
        25.0004         63.7504
 95  4 13 20 19  0.0000000  0  7G 2G 7G12G15G19G26G27
  21221447.6254     693615.92948    539193.44449                  21221449.4774
        31.7504         63.7504
  20476481.7894   -2905731.60647  -2213321.51549                  20476484.5784
        27.5004         63.7504
                  -1122053.298 4   -874326.158 5  23913505.039    23913509.723
         7.250           7.000
  23752500.2344     292339.90945    515461.13646                  23752503.5164
        11.7504         15.0004
  23535520.8284    7179302.90945   5519798.32246                  23535525.8794
        11.2504         15.7504
  23293169.8834   -3081462.94346  -2348414.93346                  23293172.4384
        15.0004         24.2504
  20898436.9534    3584573.97647   2767334.14549                  20898439.4734
        24.7504         63.7504
 95  4 13 20 19 15.0000000  0  7G 2G 7G12G15G19G26G27
  21222928.2664     701396.77948    545256.44549                  21222930.1414
        31.5004         63.7504
  20474914.9454   -2913964.36247  -2219736.64049                  20474917.7234
        27.5004         63.7504
                  -1155192.174 4   -900148.636 5  23907198.930    23907203.438
         7.000           7.000
  23755048.4844     305731.62945    525896.24346                  23755052.2114
        11.7504         13.7504
  23545179.4924    7230060.41545   5559349.57646                  23545184.2034
        11.0004         14.5004
  23291440.0164   -3090553.29246  -2355498.32446                  23291442.2424
        15.0004         21.5004
  20904623.5004    3617083.26447   2792666.04749                  20904625.8444
        25.0004         63.7504
 95  4 13 20 19 30.0000000  0  7G 2G 7G12G15G19G26G27
  21224419.8834     709235.64348    551364.65249                  21224421.9924
        31.5004         63.7504
  20473377.0394   -2922047.60947  -2226035.26449                  20473379.8754
        27.5004         63.7504
                  -1188311.777 4   -925956.096 5  23900896.180    23900900.684
         7.000           7.000
  23757627.7344     319285.39745    536457.62346                  23757631.1214
        11.5004         13.0004
  23554854.3834    7280897.58745   5598962.92046                  23554859.2584
        11.2504         13.7504
  23289739.5704   -3099493.20046  -2362464.48346                  23289742.2664
        15.0004         25.0004
  20910836.1724    3649732.41547   2818106.93449                  20910838.4224
        25.0004         63.7504
 95  4 13 20 19 45.0000000  0  7G 2G 7G12G15G19G26G27
  21225921.5394     717125.38048    557512.49749                  21225923.5314
        31.7504         63.7504
  20471865.0864   -2929991.30347  -2232225.14649                  20471867.9454
        27.2504         63.7504
                  -1221419.197 4   -951754.059 5  23894595.766    23894600.590
         6.750           6.750
  23760236.2194     332994.31445    547139.89446                  23760240.0514
        11.7504         12.5004
  23564542.4224    7331811.06045   5638635.70746                  23564546.8404
        10.7504         15.7504
  23288065.9534   -3108284.14646  -2369314.56246                  23288068.7774
        14.7504         23.5004
  20917075.3914    3682519.07447   2843654.96849                  20917077.7934
        25.0004         63.7504
 95  4 13 20 20  0.0000000  0  7G 2G 7G12G15G19G26G27
  21227434.8204     725078.03448    563709.37549                  21227436.9064
        31.5004         63.7504
  20470381.9694   -2937785.87647  -2238298.82749                  20470384.8284
        27.2504         63.7504
                  -1254504.409 4   -977534.711 5  23888300.047    23888304.699
         6.750           6.750
  23762876.3594     346868.16345    557950.68645                  23762880.0744
        11.5004         10.5004
  23574248.2734    7382812.89045   5678377.34846                  23574252.9494
        11.0004         13.7504
  23286423.5864   -3116914.43146  -2376039.45146                  23286426.5634
        14.5004         22.2504
  20923342.4614    3715451.52847   2869316.60549                  20923344.8874
        25.0004         63.7504
 95  4 13 20 20 15.0000000  0  7G 2G 7G12G15G19G26G27
  21228961.3364     733099.35648    569959.75449                  21228963.3284
        31.7504         63.7504
  20468927.3674   -2945429.26547  -2244254.70849                  20468930.2624
        27.2504         63.7504
                  -1287564.346 4  -1003295.674 5  23882008.945    23882013.746
         7.000           7.000
  23765548.1644     360909.90445    568892.29046                  23765551.5744
        11.5004         12.5004
  23583971.0084    7433908.07245   5718191.72846                  23583976.1994
        11.2504         15.7504
  23284812.5634   -3125379.86446  -2382635.89346                  23284816.0084
        14.2504         23.0004
  20929637.2034    3748531.50847   2895093.20049                  20929639.7464
        25.0004         63.7504
 95  4 13 20 20 30.0000000  0  7G 2G 7G12G15G19G26G27
  21230500.6644     741189.07048    576263.42949                  21230502.7274
        31.7504         63.7504
  20467501.2034   -2952924.82847  -2250095.39349                  20467504.0634
        27.5004         63.7504
                  -1320600.249 4  -1029037.913 5  23875722.305    23875727.125
         7.000           7.000
  23768252.2424     375118.17945    579963.68746                  23768255.2664
        11.7504         12.5004
  23593711.7504    7485095.87045   5758078.27446                  23593716.6954
        10.7504         15.7504
  23283232.9774   -3133680.13546  -2389103.63146                  23283236.3404
        14.5004         23.5004
  20935959.5474    3781755.68347   2920982.15649                  20935962.2194
        24.7504         63.7504
 95  4 13 20 20 45.0000000  0  7G 2G 7G12G15G19G26G27
  21232051.8984     749341.07448    582615.64049                  21232053.7504
        31.7504         63.7504
  20466101.8054   -2960278.00547  -2255825.13149                  20466104.7114
        27.5004         63.7504
                  -1353616.482 4  -1054764.819 5  23869439.406    23869444.301
         6.750           7.000
  23770986.3834     389488.43545    591161.29045                  23770990.0274
        11.2504         11.7504
  23603469.1334    7536370.01645   5798032.11446                  23603473.5864
        11.0004         17.0004
  23281684.0704   -3141820.45946  -2395446.73746                  23281687.1414
        15.0004         23.0004
  20942309.0314    3815121.89147   2946981.78249                  20942311.6214
        25.0004         63.7504
 95  4 13 20 21  0.0000000  0  7G 2G 7G12G15G19G26G27
  21233615.8284     757560.21348    589020.16549                  21233617.8674
        31.5004         63.7504
  20464730.0554   -2967485.93647  -2261441.68649                  20464732.8794
        27.5004         63.7504
                  -1386607.986 4  -1080472.463 5  23863161.609    23863166.297
         7.000           7.250
  23773752.4924     404025.57245    602488.92245                  23773756.4304
        10.7504         11.7504
  23613243.1954    7587732.15445   5838054.50846                  23613247.8714
        11.0004         13.7504
  23280166.0554   -3149798.58946  -2401663.45746                  23280169.2664
        15.0004         24.2504
  20948686.5474    3848636.07947   2973096.71949                  20948689.0314
        25.0004         63.7504
 95  4 13 20 21 15.0000000  0  7G 2G 7G12G15G19G26G27
  21235192.0944     765843.80648    595474.91349                  21235194.1214
        31.5004         63.7504
  20463385.5004   -2974552.65747  -2266948.21249                  20463388.3484
        27.7504         63.7504
                  -1419576.134 4  -1106161.903 5  23856888.016    23856892.641
         7.000           7.250
  23776550.1094     418728.16045    613945.48245                  23776553.8594
        11.0004         11.2504
  23623033.3834    7639179.00545   5878142.92246                  23623037.8594
        11.2504         13.7504
  23278678.0084   -3157619.17246  -2407757.41647                  23278680.8674
        15.2504         26.2504
  20955092.1414    3882298.68047   2999327.30449                  20955094.6484
        24.7504         63.7504
 95  4 13 20 21 30.0000000  0  7G 2G 7G12G15G19G26G27
  21236778.3984     774180.18948    601970.79649                  21236780.4844
        31.0004         63.7504
  20462065.0864   -2981490.12147  -2272354.01649                  20462067.8874
        27.5004         63.7504
                  -1452532.382 4  -1131842.065 5  23850616.680    23850621.094
         7.000           7.000
  23779377.7894     433584.51645    625521.86046                  23779381.2344
        11.0004         12.5004
  23632836.4614    7690698.03145   5918287.57046                  23632841.2774
        11.0004         15.0004
  23277217.8914   -3165293.59846  -2413737.48046                  23277220.3984
        15.7504         25.0004
  20961524.1254    3916097.22547   3025663.81949                  20961526.6804
        25.2504         63.7504
 95  4 13 20 21 45.0000000  0  7G 2G 7G12G15G19G26G27
  21238376.4534     782577.78048    608514.37149                  21238378.6454
        30.7504         63.7504
  20460771.6024   -2988288.03047  -2277651.07849                  20460774.3444
        27.7504         63.7504
                  -1485467.123 4  -1157505.476 5  23844349.320    23844353.684
         7.000           7.250
  23782236.0084     448604.27245    637225.55745                  23782238.9964
        10.7504         10.5004
  23642655.7814    7742296.47345   5958494.11146                  23642660.1994
        11.0004         12.5004
  23275786.7734   -3172811.57146  -2419595.63947                  23275789.2114
        15.5004         26.7504
  20967983.0314    3950039.44247   3052112.28649                  20967985.4454
        25.0004         63.7504
 95  4 13 20 22  0.0000000  0  7G 2G 7G12G15G19G26G27
  21239985.5704     791035.53748    615104.83349                  21239987.7384
        30.2504         63.7504
  20459504.5634   -2994946.36247  -2282839.37749                  20459507.3634
        27.7504         63.7504
                  -1518380.321 4  -1183152.098 5  23838086.156    23838090.688
         7.000           7.250
  23785125.3914     463787.00745    649056.25645                  23785128.5904
        11.0004         11.7504
  23652488.5944    7793969.63845   5998758.87246                  23652493.1994
        10.7504         13.7504
  23274384.9064   -3180179.30146  -2425336.72647                  23274387.6134
        15.5004         27.5004
  20974468.5864    3984120.73947   3078669.12549                  20974471.0474
        25.2504         63.7504
 95  4 13 20 22 15.0000000  0  7G 2G 7G12G15G19G26G27
  21241608.2034     799561.54748    621748.47649                  21241610.4064
        30.5004         63.7504
  20458265.6644   -3001458.05747  -2287913.41349                  20458268.3954
        27.7504         63.7504
                  -1551265.732 4  -1208777.062 5  23831827.852    23831832.730
         7.000           7.250
  23788046.3674     479139.27045    661019.05346                  23788049.6484
        11.0004         12.5004
  23662336.8754    7845720.53445   6039084.19545                  23662341.8094
        11.0004         11.7504
  23273012.7584   -3187392.79146  -2430957.62246                  23273015.7934
        15.5004         25.5004
  20980981.1254    4018344.23347   3105336.76849                  20980983.6094
        25.2504         63.7504
 95  4 13 20 22 30.0000000  0  7G 2G 7G12G15G19G26G27
  21243242.1024     808148.24548    628439.41149                  21243244.5044
        30.0004         63.7504
  20457052.7424   -3007831.80348  -2292879.95849                  20457055.4144
        28.0004         63.7504
                  -1584129.133 4  -1234384.880 5  23825574.422    23825578.969
         7.000           7.250
  23790999.2584     494654.97045    673109.21945                  23791002.4104
        11.0004         10.5004
  23672197.9064    7897540.00945   6079462.97646                  23672202.5824
        11.0004         14.5004
  23271668.0084   -3194458.02146  -2436462.99546                  23271670.8674
        15.5004         25.0004
  20987519.4614    4052704.22347   3132110.77649                  20987521.9574
        25.0004         63.7504
 95  4 13 20 22 45.0000000  0  7G 2G 7G12G15G19G26G27
  21244888.0084     816797.52648    635179.11249                  21244890.4694
        29.7504         63.7504
  20455866.7034   -3014064.22448  -2297736.37949                  20455869.2934
        28.0004         63.7504
                  -1616968.066 5  -1259973.634 5  23819325.523    23819329.914
         7.500           7.250
  23793983.1174     510336.38245    685328.51545                  23793986.3984
        10.7504          9.2504
  23682071.9694    7949429.05445   6119895.95946                  23682077.0554
        10.7504         13.0004
  23270352.3594   -3201373.37546  -2441851.58146                  23270355.0204
        15.7504         25.5004
  20994084.3914    4087203.30147   3158993.15849                  20994086.8984
        24.5004         63.7504
 95  4 13 20 23  0.0000000  0  7G 2G 7G12G15G19G26G27
  21246545.1484     825506.32048    641965.18249                  21246547.5864
        29.5004         63.7504
  20454707.3834   -3020157.85048  -2302484.64849                  20454709.9844
        28.2504         63.7504
                  -1649784.425 5  -1285544.800 5  23813080.789    23813085.340
         7.750           7.250
  23796998.1484     526181.51145    697675.35945                  23797002.5554
        10.7504         11.7504
  23691959.2734    8001387.11945   6160382.72046                  23691964.4774
        10.7504         12.5004
  23269064.2274   -3208143.53846  -2447127.03146                  23269066.9104
        16.2504         25.5004
  21000675.2504    4121837.40447   3185980.75749                  21000677.7704
        25.2504         63.7504
 95  4 13 20 23 15.0000000  0  7G 2G 7G12G15G19G26G27
  21248214.6094     834277.96548    648800.23249                  21248216.9414
        30.0004         63.7504
  20453574.7584   -3026109.51048  -2307122.29449                  20453577.4064
        28.2504         63.7504
                  -1682576.108 5  -1311096.737 5  23806840.680    23806845.414
         7.750           7.500
  23800045.0234     542192.20045    710151.24345                  23800048.6454
        10.7504         11.2504
  23701859.9144    8053417.94545   6200926.18345                  23701864.6724
        10.2504         11.2504
  23267803.7344   -3214766.40646  -2452287.71146                  23267805.8204
        15.7504         25.5004
  21007291.6484    4156607.50247   3213074.32549                  21007294.2274
        24.7504         63.7504
 95  4 13 20 23 30.0000000  0  7G 2G 7G12G15G19G26G27
  21249900.7814     843140.08048    655705.77349                  21249903.2194
        30.0004         63.7504
  20452474.5784   -3031890.82848  -2311627.21149                  20452477.2034
        28.2504         63.7504
                  -1715316.088 5  -1336608.382 5  23800610.500    23800615.063
         7.750           7.500
  23803128.3754     558395.39645    722777.07746                  23803132.6294
        11.0004         14.5004
  23711780.3054    8105548.38645   6241547.25145                  23711784.4414
        10.0004          9.7504
  23266577.3054   -3221211.67246  -2457309.98146                  23266579.8714
        15.7504         25.5004
  21013938.8054    4191538.35947   3240293.15849                  21013941.3244
        25.0004         63.7504
 95  4 13 20 23 45.0000000  0  7G 2G 7G12G15G19G26G27
  21251599.4614     852067.59748    662662.27749                  21251601.9224
        29.7504         63.7504
  20451402.0394   -3037526.35448  -2316018.52249                  20451404.6884
        28.5004         63.7504
                  -1748029.898 5  -1362099.640 5  23794385.297    23794389.742
         8.000           7.750
  23806243.4454     574765.36645    735532.91445                  23806247.0554
        11.0004         11.2504
  23721715.1564    8157755.40445   6282228.01045                  23721719.9144
         9.7504         10.5004
  23265379.4614   -3227503.94146  -2462213.05646                  23265381.6884
        15.5004         23.5004
  21020611.1884    4226603.44947   3267616.59449                  21020613.7544
        24.7504         63.7504
 95  4 13 20 24  0.0000000  0  7G 2G 7G12G15G19G26G27
  21253310.3204     861056.53948    669666.64849                  21253312.8164
        29.2504         63.7504
  20450356.1954   -3043021.87648  -2320300.73549                  20450358.7504
        28.2504         63.7504
                  -1780722.002 5  -1387573.978 5  23788164.031    23788168.660
         8.000           7.750
  23809389.4924     591297.53445    748415.12646                  23809393.2664
        11.0004         12.5004
  23731663.6484    8210034.58645   6322964.98245                  23731668.4184
         9.7504         11.7504
  23264210.0234   -3233650.47246  -2467002.56646                  23264212.6724
        15.5004         23.5004
  21027309.0704    4261799.30047   3295041.91949                  21027311.6024
        24.5004         63.7504
 95  4 13 20 24 15.0000000  0  7G 2G 7G12G15G19G26G27
  21255033.2274     870110.52448    676721.70449                  21255035.8054
        29.2504         63.7504
  20449337.8524   -3048373.50448  -2324470.82849                  20449340.4304
        28.5004         63.7504
                  -1813387.342 5  -1413027.474 5  23781948.047    23781952.406
         8.000           7.750
  23812567.2424     607996.83245    761427.57046                  23812571.0514
        11.0004         12.5004
  23741626.6884    8262392.64545   6363763.43645                  23741632.1134
         9.7504          9.7504
  23263069.3054   -3239644.40346  -2471673.15946                  23263071.7194
        15.5004         25.0004
  21034032.5864    4297132.27347   3322574.09149                  21034035.2934
        24.2504         63.7504
 95  4 13 20 24 30.0000000  0  7G 2G 7G12G15G19G26G27
  21256767.6954     879225.61648    683824.37149                  21256770.3204
        29.0004         63.7504
  20448346.0864   -3053585.44448  -2328532.06949                  20448348.6764
        28.2504         63.7504
                  -1846028.810 5  -1438462.354 5  23775736.609    23775741.027
         8.250           8.000
  23815776.6094     624860.30945    774567.95246                  23815781.1804
        11.0004         13.0004
  23751605.1804    8314828.34445   6404622.37646                  23751610.7584
         9.5004         12.5004
  23261958.0314   -3245484.20146  -2476223.64746                  23261960.6334
        15.2504         24.2504
  21040782.6414    4332604.14047   3350214.49449                  21040785.4774
        24.2504         63.7504
 95  4 13 20 24 45.0000000  0  7G 2G 7G12G15G19G26G27
  21258514.9384     888407.99948    690979.47649                  21258517.6214
        28.7504         63.7504
  20447382.7194   -3058647.05248  -2332476.16949                  20447385.2854
        28.0004         63.7504
                  -1878639.363 5  -1463873.152 5  23769531.188    23769535.520
         8.250           8.000
  23819018.1254     641894.63045    787841.45345                  23819023.3054
        11.0004         11.2504
  23761599.8754    8367347.70645   6445546.50246                  23761605.4184
         9.7504         12.5004
  23260877.5234   -3251162.97046  -2480648.65646                  23260879.7734
        15.5004         22.2504
  21047561.1094    4368225.42747   3377971.32749                  21047563.8524
        24.2504         63.7504
 95  4 13 20 25  0.0000000  0  7G 2G 7G12G15G19G26G27
  21260275.8914     897662.48148    698190.75949                  21260278.5164
        28.7504         63.7504
  20446449.3834   -3063552.13848  -2336298.30849                  20446451.9844
        28.2504         63.7504
                  -1911215.006 5  -1489256.744 5  23763332.172    23763336.535
         8.250           8.000
  23822291.9774     659103.57445    801251.01146                  23822296.5824
        10.7504         12.5004
  23771610.4304    8419955.72745   6486539.72245                  23771615.1994
        10.0004         10.5004
  23259827.6954   -3256677.95546  -2484946.04946                  23259830.1454
        15.5004         23.0004
  21054368.9694    4404000.09747   3405847.68149                  21054371.5124
        24.5004         63.7504
 95  4 13 20 25 15.0000000  0  7G 2G 7G12G15G19G26G27
  21262050.6954     906989.54748    705458.60249                  21262053.4264
        28.7504         63.7504
  20445545.9844   -3068300.20748  -2339998.09449                  20445548.5984
        28.2504         63.7504
                  -1943755.375 5  -1514612.853 5  23757139.758    23757144.441
         8.000           8.250
  23825600.3054     676487.44945    814796.89845                  23825605.6134
        10.7504         11.7504
  23781638.7504    8472651.42745   6527601.25145                  23781643.9304
         9.7504         10.5004
  23258809.3984   -3262027.80946  -2489114.76446                  23258812.0354
        14.7504         23.5004
  21061206.0864    4439929.23647   3433844.39849                  21061208.6524
        24.5004         63.7504
 95  4 13 20 25 30.0000000  0  7G 2G 7G12G15G19G26G27
  21263838.0634     916381.90948    712777.32949                  21263840.8054
        28.5004         63.7504
  20444670.5474   -3072900.02248  -2343582.35849                  20444673.0434
        28.2504         63.7504
                  -1976268.702 5  -1539947.882 5  23750952.625    23750957.418
         8.250           8.250
  23828940.1724     694037.81645    828472.51746                  23828944.6374
        10.7504         13.0004
  23791680.1174    8525423.16245   6568722.04345                  23791685.6844
         9.7504         11.7504
  23257821.4384   -3267219.77846  -2493160.46646                  23257823.9924
        14.5004         21.0004
  21068071.1954    4476005.96947   3461956.12849                  21068073.8794
        24.2504         63.7504
 95  4 13 20 25 45.0000000  0  7G 2G 7G12G15G19G26G27
  21265637.5164     925837.86348    720145.60349                  21265640.1764
        28.7504         63.7504
  20443822.7894   -3077354.73248  -2347053.55749                  20443825.3674
        28.2504         63.7504
                  -2008755.920 5  -1565262.577 5  23744770.609    23744775.211
         8.250           8.250
  23832311.3134     711753.50145    842276.94946                  23832315.6954
        11.0004         13.0004
  23801736.6954    8578271.38845   6609902.43646                  23801741.6884
         9.7504         12.5004
  23256863.3754   -3272255.56046  -2497084.44946                  23256866.4104
        14.5004         24.2504
  21074964.0084    4512228.21447   3490181.24349                  21074966.5984
        24.5004         63.7504
 95  4 13 20 26  0.0000000  0  7G 2G 7G12G15G19G26G27
  21267449.1804     935358.77448    727564.49949                  21267451.8284
        28.5004         63.7504
  20443003.5474   -3081659.68048  -2350408.05249                  20443005.9964
        28.2504         63.7504
                  -2041213.701 5  -1590554.332 5  23738594.180    23738598.598
         8.250           8.250
  23835714.3674     729637.78145    856212.75546                  23835718.5514
        11.0004         13.7504
  23811809.7114    8631199.84245   6651145.33546                  23811814.8094
        10.2504         14.5004
  23255935.4224   -3277131.78846  -2500884.09846                  23255938.5514
        14.7504         21.0004
  21081885.2734    4548599.31647   3518522.34649                  21081888.0864
        24.2504         63.7504
 95  4 13 20 26 15.0000000  0  7G 2G 7G12G15G19G26G27
  21269274.8524     944951.35548    735039.23549                  21269277.4884
        28.7504         63.7504
  20442214.1804   -3085808.23848  -2353640.68849                  20442216.6054
        28.2504         63.7504
                  -2073635.658 5  -1615818.175 5  23732424.516    23732428.820
         8.250           8.250
  23839150.9924     747696.70945    870284.65746                  23839155.3754
        11.0004         12.5004
  23821897.1804    8684213.16045   6692454.36546                  23821902.3014
        10.5004         13.7504
  23255039.1644   -3281840.02446  -2504552.85046                  23255041.8014
        14.7504         24.2504
  21088835.6174    4585123.23347   3546982.52949                  21088838.3484
        24.2504         63.7504
 95  4 13 20 26 30.0000000  0  7G 2G 7G12G15G19G26G27
  21271112.6644     954609.83348    742565.32149                  21271115.3834
        28.5004         63.7504
  20441453.2894   -3089806.65548  -2356756.33249                  20441455.8094
        28.2504         63.7504
                  -2106028.378 5  -1641059.236 5  23726260.141    23726264.715
         8.250           8.250
  23842619.7814     765923.65245    884487.46146                  23842624.3284
        11.2504         13.0004
  23832001.1254    8737306.91245   6733826.07546                  23832006.2234
        11.0004         15.0004
  23254174.6174   -3286384.48346  -2508093.98646                  23254177.0784
        14.7504         23.0004
  21095813.3444    4621791.50947   3575555.19649                  21095816.0514
        24.2504         63.7504
 95  4 13 20 26 45.0000000  0  7G 2G 7G12G15G19G26G27
  21272963.0084     964333.18948    750141.95849                  21272965.8444
        28.2504         63.7504
  20440720.5634   -3093656.90048  -2359756.51849                  20440723.1644
        28.0004         63.7504
                  -2138395.011 5  -1666279.969 5  23720100.984    23720105.477
         8.250           8.250
  23846119.1254     784315.35845    898818.67946                  23846123.1804
        11.0004         13.0004
  23842118.8444    8790477.76745   6775257.85946                  23842123.5904
        11.0004         15.0004
  23253339.9384   -3290770.59446  -2511511.73146                  23253342.4804
        15.0004         22.2504
  21102817.2894    4658597.05347   3604234.83049                  21102819.8914
        24.2504         63.7504
 95  4 13 20 27  0.0000000  0  7G 2G 7G12G15G19G26G27
  21274826.8984     974128.98647    757775.04549                  21274829.7934
        27.7504         63.7504
  20440017.4844   -3097351.95447  -2362635.77349                  20440020.0744
        27.7504         63.7504
                  -2170727.433 5  -1691474.046 5  23713948.234    23713952.633
         8.250           8.250
  23849652.5864     802879.68945    913284.38146                  23849656.0434
        11.5004         13.0004
  23852254.2814    8843736.05745   6816757.77746                  23852259.2384
        11.2504         14.5004
  23252536.5394   -3294992.47446  -2514801.50546                  23252539.0944
        15.0004         25.5004
  21109847.8284    4695542.96447   3633023.83949                  21109850.4884
        24.2504         63.7504
 95  4 13 20 27 15.0000000  0  7G 2G 7G12G15G19G26G27
  21276702.6254     983985.90347    765455.76049                  21276705.5784
        27.5004         63.7504
  20439340.8984   -3100906.44048  -2365405.49649                  20439343.4884
        28.0004         63.7504
                  -2203034.351 5  -1716648.236 5  23707800.406    23707804.934
         8.250           8.250
  23853216.2194     821607.75545    927877.67546                  23853220.2034
        11.5004         14.5004
  23862403.3984    8897074.59045   6858320.21946                  23862408.8364
        10.7504         14.5004
  23251762.9384   -3299059.60746  -2517970.69546                  23251765.3524
        15.0004         25.5004
  21116902.5004    4732615.89347   3661911.82749                  21116905.1134
        24.2504         63.7504
 95  4 13 20 27 30.0000000  0  7G 2G 7G12G15G19G26G27
  21278590.5784     993908.30447    773187.50049                  21278593.5314
        27.7504         63.7504
  20438692.2584   -3104314.98247  -2368061.49749                  20438694.8484
        27.7504         63.7504
                  -2235310.066 5  -1741798.120 5  23701658.680    23701663.121
         8.250           8.000
  23856811.6644     840505.10746    942602.90546                  23856815.8244
        12.0004         14.5004
  23872569.8834    8950501.36445   6899951.42646                  23872576.1884
        10.2504         13.0004
  23251019.4454   -3302965.47946  -2521014.24046                  23251022.6214
        15.0004         23.5004
  21123982.3754    4769819.96347   3690901.99849                  21123984.8834
        24.5004         63.7504
 95  4 13 20 27 45.0000000  0  7G 2G 7G12G15G19G26G27
  21280491.0704    1003893.60847    780968.25749                  21280494.1524
        27.7504         63.7504
  20438070.7974   -3107581.02347  -2370606.45749                  20438073.4804
        27.7504         63.7504
                  -2267555.700 5  -1766924.565 5  23695522.703    23695526.816
         8.500           8.000
  23860440.6564     859570.32646    957458.91346                  23860444.3364
        12.2504         14.5004
  23882754.3134    9004018.18645   6941652.79846                  23882759.5274
        10.2504         13.7504
  23250307.0554   -3306712.24546  -2523933.80246                  23250309.5514
        15.5004         25.5004
  21131086.5944    4807152.18347   3719992.02849                  21131088.9844
        24.7504         63.7504
 95  4 13 20 28  0.0000000  0  7G 2G 7G12G15G19G26G27
  21282404.2194    1013947.18347    788802.21049                  21282407.3134
        27.7504         63.7504
  20437477.8754   -3110695.46747  -2373033.28949                  20437480.5474
        27.7504         63.7504
                  -2299764.464 5  -1792022.284 5  23689393.352    23689397.461
         8.250           7.750
  23864101.7344     878810.01646    972450.89146                  23864105.1454
        12.5004         16.5004
  23892956.8914    9057632.67345   6983430.26645                  23892962.2584
        10.7504         11.7504
  23249625.0164   -3310293.58046  -2526724.45446                  23249627.6994
        15.5004         25.0004
  21138215.9534    4844618.04047   3749186.19149                  21138218.4384
        24.5004         63.7504
 95  4 13 20 28 15.0000000  0  7G 2G 7G12G15G19G26G27
  21284328.8674    1024061.81547    796683.74349                  21284332.0314
        27.7504         63.7504
  20436912.4694   -3113666.46947  -2375348.34749                  20436915.1174
        27.7504         63.7504
                  -2331943.217 5  -1817096.613 5  23683270.070    23683274.129
         8.500           7.750
  23867794.7114     898217.23046    987573.37646                  23867798.7544
        12.0004         14.5004
  23903176.6724    9111335.29445   7025276.38846                  23903182.0744
        10.7504         13.0004
  23248973.3444   -3313718.21446  -2529392.98747                  23248975.9104
        15.2504         26.2504
  21145369.8284    4882212.21647   3778480.34149                  21145372.5004
        24.2504         63.7504
 95  4 13 20 28 30.0000000  0  7G 2G 7G12G15G19G26G27
  21286265.6724    1034240.48047    804615.16949                  21286269.0354
        27.5004         63.7504
  20436374.4064   -3116494.08647  -2377551.67849                  20436376.9964
        27.7504         63.7504
                  -2364089.043 5  -1842145.292 5  23677152.859    23677157.012
         8.500           7.750
  23871520.1174     917794.65146   1002828.52346                  23871523.7504
        12.2504         17.0004
  23913413.3834    9165127.68045   7067192.50046                  23913418.3874
        10.5004         14.5004
  23248350.7274   -3316987.11946  -2531940.19646                  23248353.7624
        15.2504         23.5004
  21152549.4454    4919940.32647   3807878.86049                  21152551.9774
        24.5004         63.7504
 95  4 13 20 28 45.0000000  0  7G 2G 7G12G15G19G26G27
  21288211.8054    1044466.30847    812583.34949                  21288215.0044
        27.7504         63.7504
  20435860.7974   -3119194.21548  -2379655.66749                  20435863.2934
        28.2504         63.7504
                  -2396218.084 5  -1867180.891 5  23671038.953    23671042.828
         8.750           7.750
  23875274.8524     937525.91346   1018203.52946                  23875279.0474
        12.2504         15.0004
  23923662.6484    9218992.11145   7109164.72446                  23923667.6994
        10.0004         13.0004
  23247755.1334   -3320119.92946  -2534381.34246                  23247757.3484
        15.5004         25.0004
  21159751.6334    4957788.78347   3837371.15249                  21159754.1764
        24.5004         63.7504
 95  4 13 20 29  0.0000000  0  7G 2G 7G12G15G19G26G27
  21290168.5704    1054749.43348    820596.17549                  21290171.7814
        28.0004         63.7504
  20435373.9304   -3121753.25348  -2381649.71349                  20435376.4264
        28.0004         63.7504
                  -2428317.558 5  -1892193.457 5  23664930.773    23664934.281
         9.000           7.500
  23879061.3284     957423.66446   1033708.27246                  23879065.1254
        12.5004         15.0004
  23933928.7034    9272939.21545   7151201.38946                  23933933.7424
         9.7504         12.5004
  23247187.3594   -3323103.90646  -2536706.51447                  23247190.2894
        15.7504         26.7504
  21166979.5234    4995772.95347   3866969.19749                  21166982.2544
        24.2504         63.7504
 95  4 13 20 29 15.0000000  0  7G 2G 7G12G15G19G26G27
  21292139.7814    1065107.80747    828667.63149                  21292143.0514
        27.7504         63.7504
  20434917.1334   -3124153.85848  -2383520.30749                  20434919.7114
        28.0004         63.7504
                  -2460368.794 5  -1917168.434 5  23658831.500    23658835.184
         9.000           7.500
  23882882.7584     977506.28246   1049357.06146                  23882886.7074
        12.5004         17.7504
  23944213.5634    9326985.39145   7193315.22845                  23944218.9534
         9.5004         11.7504
  23246651.6954   -3325918.90146  -2538900.02546                  23246654.5554
        15.7504         25.5004
  21174237.9924    5033915.19347   3896690.40949                  21174240.6414
        24.5004         63.7504
 95  4 13 20 29 30.0000000  0  7G 2G 7G12G15G19G26G27
  21294122.7814    1075529.07647    836788.10549                  21294126.2384
        27.7504         63.7504
  20434488.1254   -3126408.10847  -2385276.85549                  20434490.6214
        27.7504         63.7504
                  -2492386.940 5  -1942117.613 5  23652738.594    23652742.434
         8.750           7.500
  23886736.6094     997758.29846   1065137.85046                  23886739.8444
        12.2504         16.5004
  23954513.0704    9381112.52545   7235492.17845                  23954518.3674
         9.0004          9.2504
  23246146.1804   -3328576.19446  -2540970.63147                  23246148.9344
        16.0004         26.7504
  21181524.1174    5072204.12947   3926525.93349                  21181526.7074
        24.5004         63.7504
 95  4 13 20 29 45.0000000  0  7G 2G 7G12G15G19G26G27
  21296119.1644    1086020.60547    844963.32349                  21296122.5514
        27.5004         63.7504
  20434088.6024   -3128507.46847  -2386912.71249                  20434091.1564
        27.7504         63.7504
                  -2524365.672 5  -1967036.078 5  23646653.156    23646657.051
         8.750           7.500
  23890623.8204    1018185.99546   1081055.53346                  23890627.8054
        12.2504         16.5004
  23964828.9144    9435325.06445   7277735.64745                  23964834.2344
         8.7504         11.2504
  23245672.1024   -3331068.69346  -2542912.84847                  23245674.7624
        15.7504         27.5004
  21188840.3364    5110650.94547   3956484.48349                  21188843.0084
        24.2504         63.7504
 95  4 13 20 30  0.0000000  0  7G 2G 7G12G15G19G26G27
  21298127.1564    1096572.72747    853185.75649                  21298130.5084
        27.5004         63.7504
  20433716.7664   -3130460.02248  -2388434.17249                  20433719.3324
        28.0004         63.7504
                  -2556315.250 5  -1991931.837 5  23640573.398    23640576.988
         9.000           7.500
  23894542.6414    1038778.75946   1097101.83346                  23894546.4024
        12.5004         14.5004
  23975159.2814    9489608.13645   7320034.09945                  23975164.8954
         8.7504          9.7504
  23245227.3754   -3333406.25346  -2544734.31647                  23245230.1524
        15.7504         28.2504
  21196185.1334    5149246.94247   3986559.27449                  21196187.6884
        24.5004         63.7504
 95  4 13 20 30 15.0000000  0  7G 2G 7G12G15G19G26G27
  21300149.1094    1107197.47247    861464.77849                  21300152.3674
        27.5004         63.7504
  20433375.7194   -3132254.41248  -2389832.39149                  20433378.2624
        28.2504         63.7504
                  -2588224.850 5  -2016796.437 5  23634501.211    23634504.828
         9.000           7.500
  23898494.7424    1059547.46246   1113285.23346                  23898498.5984
        12.5004         15.7504
  23985503.6954    9543969.50645   7362393.54245                  23985508.9344
         8.5004          8.5004
  23244814.1644   -3335577.48646  -2546426.18446                  23244816.7774
        16.0004         24.2504
  21203560.7344    5188005.87247   4016761.02749                  21203563.3364
        24.2504         63.7504
 95  4 13 20 30 30.0000000  0  7G 2G 7G12G15G19G26G27
  21302184.8984    1117895.12147    869800.61149                  21302188.2034
        27.5004         63.7504
  20433063.8444   -3133892.87248  -2391109.10049                  20433066.3404
        28.2504         63.7504
                  -2620095.304 5  -2041630.541 5  23628436.523    23628440.012
         9.250           7.500
  23902480.4454    1080490.81246   1129604.71846                  23902483.9844
        13.0004         16.5004
  23995863.0784    9598406.44645   7404811.87145                  23995868.8204
         8.5004          7.7504
  23244432.4534   -3337582.30946  -2547988.38146                  23244435.5004
        15.7504         25.0004
  21210966.8284    5226927.24047   4047089.35549                  21210969.4184
        23.7504         63.7504
 95  4 13 20 30 45.0000000  0  7G 2G 7G12G15G19G26G27
  21304235.3594    1128672.22347    878198.35549                  21304238.6884
        27.5004         63.7504
  20432783.4384   -3135366.71348  -2392257.53949                  20432785.9694
        28.2504         63.7504
                  -2651920.768 5  -2066429.598 5  23622380.422    23622383.719
         9.250           7.250
  23906500.1724    1101614.38446   1146064.63146                  23906504.1094
        12.7504         16.5004
  24006237.6414    9652924.87645   7447293.71745                  24006243.4414
         8.5004          9.2504
  23244084.4384   -3339411.19246  -2549413.48146                  23244086.9224
        15.7504         24.2504
  21218405.3914    5266015.84547   4077547.99549                  21218408.0864
        24.2504         63.7504
 95  4 13 20 31  0.0000000  0  7G 2G 7G12G15G19G26G27
  21306294.9224    1139494.74947    886631.48649                  21306298.2154
        27.5004         63.7504
  20432527.8984   -3136709.64948  -2393303.97549                  20432530.3244
        28.2504         63.7504
                  -2683736.055 5  -2091220.714 5  23616325.906    23616329.676
         9.250           7.500
  23910547.2344    1122883.42146   1162637.91146                  23910551.0784
        12.5004         16.5004
  24016621.1884    9707490.10545   7489812.00845                  24016625.7464
         8.5004          6.5004
  23243763.8914   -3341094.73746  -2550725.33346                  23243766.3754
        15.5004         24.2504
  21225868.4304    5305233.73047   4108107.37249                  21225871.2074
        23.7504         63.7504
 95  4 13 20 31 15.0000000  0  7G 2G 7G12G15G19G26G27
  21308366.5164    1150381.72047    895114.84249                  21308369.8914
        27.0004         63.7504
  20432300.4774   -3137904.21948  -2394234.79749                  20432303.0314
        28.0004         63.7504
                  -2715521.156 5  -2115988.312 5  23610277.547    23610281.383
         9.250           7.750
  23914625.6724    1144317.49346   1179339.76746                  23914630.0554
        12.5004         17.0004
  24027017.3754    9762120.92545   7532381.44045                  24027022.6024
         8.7504          8.5004
  23243475.1954   -3342613.93846  -2551909.12446                  23243477.9264
        15.5004         25.0004
  21233359.0084    5344597.20247   4138780.19649                  21233361.7154
        23.7504         63.7504
 95  4 13 20 31 30.0000000  0  7G 2G 7G12G15G19G26G27
  21310456.3674    1161364.32447    903672.70949                  21310459.9534
        26.7504         63.7504
  20432106.8594   -3138922.15048  -2395027.98149                  20432109.4144
        28.2504         63.7504
                  -2747246.433 5  -2140709.285 5  23604240.453    23604244.086
         9.500           8.000
  23918741.6414    1165946.04246   1196193.17846                  23918745.9884
        12.5004         15.7504
  24037431.7584    9816848.88645   7575026.55145                  24037437.1374
         9.2504          8.5004
  23243222.3204   -3343941.91846  -2552943.91447                  23243224.7814
        16.0004         28.2504
  21240882.3674    5384133.05547   4169587.33949                  21240885.1454
        23.5004         63.7504
 95  4 13 20 31 45.0000000  0  7G 2G 7G12G15G19G26G27
  21312559.6644    1172415.88447    912284.31349                  21312563.1684
        27.0004         63.7504
  20431941.6954   -3139788.76648  -2395703.25849                  20431944.1094
        28.2504         63.7504
                  -2778937.812 5  -2165403.841 5  23598209.688    23598213.438
         9.500           8.250
  23922889.1724    1187742.98346   1213177.79746                  23922892.9344
        12.5004         16.5004
  24047859.7584    9871650.29045   7617728.89745                  24047864.9384
         9.5004          7.7504
  23243000.3134   -3345107.38546  -2553852.06847                  23243003.0664
        15.5004         28.7504
  21248433.1024    5423811.99347   4200505.98049                  21248435.7384
        23.5004         63.7504
 95  4 13 20 32  0.0000000  0  7G 2G 7G12G15G19G26G27
  21314674.9694    1183531.86847    920946.12049                  21314678.4384
        27.5004         63.7504
  20431804.9304   -3140508.38648  -2396263.99149                  20431807.4964
        28.5004         63.7504
                  -2810598.208 5  -2190074.262 5  23592184.813    23592188.852
         9.500           8.250
  23927068.6254    1209704.98146   1230291.03646                  23927072.3984
        12.5004         15.7504
  24058302.2274    9926523.08645   7660486.85145                  24058306.8094
        10.0004          7.7504
  23242808.1724   -3346116.72246  -2554638.56946                  23242811.4414
        15.5004         25.5004
  21256009.6254    5463627.27447   4231530.86149                  21256012.2504
        24.0004         63.7504
 95  4 13 20 32 15.0000000  0  7G 2G 7G12G15G19G26G27
  21316803.0234    1194714.96747    929660.22249                  21316806.4574
        27.2504         63.7504
  20431695.9304   -3141081.37448  -2396710.46749                  20431698.3794
        28.5004         63.7504
                  -2842226.123 5  -2214719.361 5  23586166.297    23586170.164
         9.250           8.250
  23931279.3524    1231833.44346   1247533.97846                  23931282.9024
        12.5004         15.7504
  24068758.1884    9981469.65845   7703302.31745                  24068763.7194
        10.0004         10.5004
  23242645.8204   -3346969.49546  -2555303.06846                  23242648.5164
        15.2504         24.2504
  21263612.2734    5503578.60647   4262661.75849                  21263614.8874
        23.7504         63.7504
 95  4 13 20 32 30.0000000  0  7G 2G 7G12G15G19G26G27
  21318946.7344    1205980.45947    938438.52649                  21318950.3204
        27.0004         63.7504
  20431617.6414   -3141493.29048  -2397031.43149                  20431620.1254
        28.2504         63.7504
                  -2873805.734 5  -2239326.823 5  23580156.734    23580160.691
         9.250           8.500
  23935524.8524    1254143.92146   1264918.77946                  23935528.5314
        12.5004         13.7504
  24079231.1484   10036506.14145   7746187.85245                  24079237.0314
        10.0004          9.2504
  23242516.1644   -3347651.66946  -2555834.63247                  23242518.6604
        15.5004         26.7504
  21271243.0554    5543679.15047   4293908.92249                  21271245.7854
        23.5004         63.7504
 95  4 13 20 32 45.0000000  0  7G 2G 7G12G15G19G26G27
  21321104.8754    1217321.72347    947275.87449                  21321108.5204
        27.0004         63.7504
  20431568.9144   -3141747.98348  -2397229.88249                  20431571.3984
        28.2504         63.7504
                  -2905342.850 5  -2263901.175 5  23574155.500    23574159.629
         9.250           8.500
  23939804.6094    1276630.46646   1282440.73046                  23939807.8204
        12.5004         15.0004
  24089720.7344   10091627.85545   7789139.78745                  24089725.8794
         9.7504          9.2504
  23242417.4924   -3348170.41546  -2556238.84946                  23242420.0004
        15.5004         23.5004
  21278900.6024    5583920.73347   4325265.98749                  21278903.3204
        23.5004         63.7504
 95  4 13 20 33  0.0000000  0  7G 2G 7G12G15G19G26G27
  21323277.3674    1228736.49847    956170.50549                  21323281.1174
        27.0004         63.7504
  20431549.7734   -3141848.57048  -2397308.25449                  20431552.2814
        28.5004         63.7504
                  -2936839.343 5  -2288443.869 5  23568161.844    23568165.996
         9.250           8.500
  23944116.6024    1299290.99146   1300098.30146                  23944119.4384
        12.7504         14.5004
  24100226.1414   10146834.17445   7832157.63145                  24100231.7074
         9.7504          9.7504
  23242349.4694   -3348528.54146  -2556517.90047                  23242351.9414
        15.7504         26.2504
  21286584.4224    5624299.64447   4356730.06349                  21286587.1174
        23.5004         63.7504
 95  4 13 20 33 15.0000000  0  7G 2G 7G12G15G19G26G27
  21325464.8834    1240232.56447    965128.47849                  21325468.5164
        27.2504         63.7504
  20431561.3364   -3141788.26548  -2397261.25449                  20431563.6684
        28.5004         63.7504
                  -2968286.719 5  -2312948.300 5  23562177.555    23562181.762
         9.500           8.750
  23948463.0084    1322133.66446   1317897.76346                  23948466.7704
        12.0004         15.0004
  24110749.3754   10202132.58145   7875247.24245                  24110753.8284
         9.7504          8.5004
  23242312.7894   -3348720.99346  -2556667.86547                  23242315.0514
        15.7504         28.7504
  21294296.2814    5664825.24747   4388308.44249                  21294299.0004
        23.7504         63.7504
 95  4 13 20 33 30.0000000  0  7G 2G 7G12G15G19G26G27
  21327666.7664    1251803.12147    974144.50049                  21327670.2934
        27.5004         63.7504
  20431601.5944   -3141576.16048  -2397095.96649                  20431603.9384
        28.5004         63.7504
                  -2999692.803 5  -2337420.561 5  23556201.320    23556205.262
         9.750           8.500
  23952843.6024    1345150.36346   1335832.83246                  23952847.6684
        12.2504         15.0004
  24121288.2114   10257516.25745   7918403.32145                  24121293.3094
        10.0004         10.5004
  23242306.2894   -3348756.23346  -2556695.32846                  23242308.8914
        15.7504         22.2504
  21302034.9844    5705490.76847   4419995.85049                  21302037.6334
        23.7504         63.7504
 95  4 13 20 33 45.0000000  0  7G 2G 7G12G15G19G26G27
  21329882.2194    1263445.75047    983216.68149                  21329885.6414
        27.7504         63.7504
  20431671.0084   -3141213.56148  -2396813.41349                  20431673.3634
        28.7504         63.7504
                  -3031061.838 5  -2361863.945 5  23550231.969    23550236.031
         9.500           9.000
  23957255.2504    1368336.82445   1353900.21646                  23957258.6374
        11.7504         15.0004
  24131843.2974   10312981.75445   7961623.11445                  24131848.4654
        10.5004         10.5004
  23242328.9924   -3348634.97746  -2556600.84047                  23242331.7114
        15.5004         28.7504
  21309799.9304    5746295.13447   4451791.44949                  21309802.4384
        24.0004         63.7504
 95  4 13 20 34  0.0000000  0  7G 2G 7G12G15G19G26G27
  21332112.1804    1275163.84947    992347.66049                  21332115.5434
        27.7504         63.7504
  20431769.0704   -3140696.62248  -2396410.59549                  20431771.4494
        28.5004         63.7504
                  -3062389.208 5  -2386274.853 5  23544270.398    23544274.543
         9.500           9.000
  23961701.0084    1391697.25146   1372103.12546                  23961704.9224
        12.2504         15.0004
  24142414.0084   10368530.08445   8004907.48545                  24142418.8594
         9.7504          9.2504
  23242382.8054   -3348351.15246  -2556379.68346                  23242385.3954
        15.2504         21.5004
  21317592.1024    5787244.69647   4483700.18049                  21317594.6564
        23.7504         63.7504
 95  4 13 20 34 15.0000000  0  7G 2G 7G12G15G19G26G27
  21334355.6724    1286953.45447   1001534.36649                  21334359.0824
        27.7504         63.7504
  20431895.3364   -3140033.74448  -2395894.05849                  20431897.7974
        28.5004         63.7504
                  -3093679.420 5  -2410656.810 5  23538315.969    23538320.230
         9.500           9.000
  23966178.8284    1415226.88546   1390437.89846                  23966182.2734
        12.0004         15.0004
  24152999.0554   10424156.26945   8048252.50045                  24153004.3284
         9.7504         10.5004
  23242467.0784   -3347908.47346  -2556034.73546                  23242469.6564
        15.5004         24.2504
  21325411.8364    5828336.92447   4515720.08449                  21325414.2974
        24.0004         63.7504
 95  4 13 20 34 30.0000000  0  7G 2G 7G12G15G19G26G27
  21336613.2584    1298816.88648   1010778.59849                  21336616.5984
        28.2504         63.7504
  20432049.5394   -3139222.98948  -2395262.29149                  20432051.9184
        28.5004         63.7504
                  -3124929.671 5  -2435007.631 5  23532369.227    23532373.609
         9.750           9.000
  23970688.3834    1438928.29845   1408906.53346                  23970691.5124
        11.7504         15.7504
  24163599.4064   10479862.07045   8091659.56445                  24163604.8794
        10.0004         11.2504
  23242582.7034   -3347303.06446  -2555562.99046                  23242585.5044
        16.0004         25.5004
  21333259.4844    5869576.22447   4547854.59249                  21333261.9694
        24.0004         63.7504
 95  4 13 20 34 45.0000000  0  7G 2G 7G12G15G19G26G27
  21338885.7974    1310760.14747   1020085.03649                  21338889.1484
        27.7504         63.7504
  20432233.3594   -3138257.48748  -2394509.94349                  20432235.8554
        28.5004         63.7504
                  -3156133.511 5  -2459322.292 5  23526431.563    23526435.605
         9.750           9.000
  23975232.3914    1462807.67245   1427513.83646                  23975236.5394
        11.7504         15.7504
  24174216.1884   10535653.98445   8135133.73245                  24174221.4734
         9.7504          9.2504
  23242730.5944   -3346526.60446  -2554957.96447                  23242732.6564
        15.7504         30.2504
  21341135.9304    5910968.04147   4580107.94549                  21341138.4614
        23.7504         63.7504
 95  4 13 20 35  0.0000000  0  7G 2G 7G12G15G19G26G27
  21341174.4144    1322785.78548   1029455.66149                  21341177.7074
        28.2504         63.7504
  20432446.0864   -3137139.01548  -2393638.39949                  20432448.5354
        28.7504         63.7504
                  -3187289.390 5  -2483599.580 5  23520502.633    23520506.824
        10.000           9.000
  23979810.6254    1486866.44045   1446260.91446                  23979813.7074
        11.5004         15.0004
  24184849.7664   10591535.74945   8178677.92045                  24184855.7304
         9.2504         11.2504
  23242911.0234   -3345575.22946  -2554216.62447                  23242913.1334
        15.7504         31.5004
  21349042.0864    5952515.44247   4612482.52949                  21349044.6644
        23.5004         63.7504
 95  4 13 20 35 15.0000000  0  7G 2G 7G12G15G19G26G27
  21343478.0314    1334890.46348   1038887.87549                  21343481.2894
        28.5004         63.7504
  20432687.1254   -3135871.90848  -2392651.03549                  20432689.4804
        28.5004         63.7504
                  -3218399.804 5  -2507841.441 5  23514582.586    23514586.477
        10.000           8.750
  23984422.3444    1511101.66745   1465145.51046                  23984425.8014
        11.2504         13.7504
  24195500.3914   10647503.91545   8222289.41645                  24195506.5554
         9.0004          8.5004
  23243125.8284   -3344450.73346  -2553340.40046                  23243128.1374
        15.7504         25.0004
  21356977.7894    5994215.43547   4644976.01349                  21356980.3914
        24.0004         63.7504
 95  4 13 20 35 30.0000000  0  7G 2G 7G12G15G19G26G27
  21345795.3674    1347069.58948   1048378.10249                  21345798.6134
        28.2504         63.7504
  20432955.8834   -3134458.94648  -2391550.01749                  20432958.4964
        28.5004         63.7504
                  -3249468.847 5  -2532051.067 5  23508670.367    23508674.250
        10.000           8.500
  23989067.2034    1535509.09645   1484164.28246                  23989070.9774
        11.0004         13.7504
  24206166.4694   10703555.09145   8265965.60145                  24206172.8914
         8.5004          8.5004
  23243371.6564   -3343157.26546  -2552332.50746                  23243374.0594
        15.7504         18.2504
  21364941.0084    6036062.92647   4677584.43649                  21364943.5274
        23.7504         63.7504
 95  4 13 20 35 45.0000000  0  7G 2G 7G12G15G19G26G27
  21348128.8754    1359331.82648   1057933.09249                  21348132.0044
        28.7504         63.7504
  20433254.3444   -3132892.14248  -2390329.12349                  20433256.8404
        28.2504         63.7504
                  -3280487.807 5  -2556221.671 5  23502767.484    23502771.383
        10.000           8.500
  23993746.4534    1560097.14145   1503323.80046                  23993749.9694
        10.7504         12.5004
  24216850.4534   10759700.84045   8309715.46545                  24216855.9614
         8.2504          8.5004
  23243651.0314   -3341684.99046  -2551185.27646                  23243653.9614
        15.5004         20.2504
  21372934.1094    6078068.05547   4710315.69149                  21372936.5234
        23.7504         63.7504
 95  4 13 20 36  0.0000000  0  7G 2G 7G12G15G19G26G27
  21350476.5084    1371668.42948   1067546.02949                  21350479.6134
        28.7504         63.7504
  20433580.7274   -3131176.76848  -2388992.46149                  20433583.3404
        28.5004         63.7504
                  -3311462.727 5  -2580357.955 5  23496873.430    23496877.184
        10.250           8.500
  23998457.6954    1584859.50745   1522619.15046                  23998461.6454
        10.5004         13.0004
  24227551.7274   10815933.88045   8353533.34545                  24227556.8014
         7.7504          6.0004
  23243964.3054   -3340041.55546  -2549904.69647                  23243967.4224
        15.5004         26.2504
  21380956.3754    6120224.44447   4743164.81149                  21380958.8954
        23.7504         63.7504
 95  4 13 20 36 15.0000000  0  7G 2G 7G12G15G19G26G27
  21352837.9614    1384077.83948   1077215.69949                  21352841.0314
        29.0004         63.7504
  20433934.7814   -3129314.87448  -2387541.62749                  20433937.3134
        28.2504         63.7504
                  -3342393.009 5  -2604459.461 5  23490987.563    23490991.238
        10.000           8.750
  24003203.7274    1609796.60145   1542050.64846                  24003208.1094
        10.7504         13.7504
  24238269.2584   10872254.88445   8397419.79045                  24238275.0474
         7.5004          9.2504
  23244309.9064   -3338227.29946  -2548490.96148                  23244312.9414
        15.5004         42.0004
  21389006.4614    6162529.60247   4776129.85649                  21389009.0044
        23.5004         63.7504
 95  4 13 20 36 30.0000000  0  7G 2G 7G12G15G19G26G27
  21355213.2974    1396559.23548   1086941.46449                  21355216.4144
        29.2504         63.7504
  20434316.9454   -3127306.51848  -2385976.66249                  20434319.6054
        28.2504         63.7504
                  -3373280.244 5  -2628527.419 5  23485109.797    23485113.770
        10.000           9.000
  24007982.0234    1634906.39345   1561616.72245                  24007985.9614
        10.7504         11.7504
  24249003.5554   10928660.65644   8441372.27945                  24249009.7664
         7.0004          9.2504
  23244686.9224   -3336244.39346  -2546946.01942                  23244685.7034
        15.5004          2.0004
  21397084.4614    6204980.25147   4809208.26949                  21397087.2154
        23.2504         63.7504
 95  4 13 20 36 45.0000000  0  7G 2G 7G12G15G19G26G27
  21357597.9534    1409091.26748   1096706.68049                  21357601.0944
        29.7504         63.7504
  20434724.0474   -3125167.42448  -2384309.84249                  20434726.5664
        28.2504         63.7504
                  -3404145.028 5  -2652577.875 5  23479236.313    23479240.469
        10.000           9.000
  24012788.7424    1660168.16245   1581301.20446                  24012793.0554
        10.2504         13.0004
  24259748.5944   10985129.39144   8485373.78245                  24259754.7114
         7.0004          8.5004
  23245092.7034   -3334111.53746  -2545283.82049                  23245094.9654
        15.2504         63.7504
  21405186.5164    6247555.21747   4842383.55249                  21405189.4574
        23.0004         63.7504
 95  4 13 20 37  0.0000000  0  7G 2G 7G12G15G19G26G27
  21359996.2974    1421694.33948   1106527.25749                  21359999.3674
        30.0004         63.7504
  20435160.4454   -3122874.72948  -2382523.31249                  20435163.0354
        28.2504         63.7504
                  -3434966.882 5  -2676594.877 5  23473371.188    23473375.176
        10.250           9.000
  24017628.8594    1685602.09345   1601119.86746                  24017633.4774
        10.0004         13.7504
  24270509.6174   11041681.21944   8529440.06345                  24270515.4064
         6.7504          8.5004
  23245530.5234   -3331811.28146  -2543491.31642                  23245530.3364
        15.5004          2.0004
  21413315.0864    6290272.69747   4875669.88349                  21413318.0394
        22.7504         63.7504
 95  4 13 20 37 15.0000000  0  7G 2G 7G12G15G19G26G27
  21362412.1954    1434388.76748   1116419.01849                  21362415.1374
        30.2504         63.7504
  20435629.7814   -3120407.53648  -2380600.81149                  20435632.3364
        28.2504         63.7504
                  -3465724.302 5  -2700561.687 5  23467518.148    23467522.105
        10.000           9.250
  24022505.2114    1711229.38045   1621089.18145                  24022510.1804
         9.5004         11.7504
  24281292.3914   11098336.29044   8573586.80145                  24281298.9534
         7.0004          5.2504
  23246004.1884   -3329323.44346  -2541553.05947                  23246005.3244
        15.5004         38.7504
  21421474.9844    6333152.90747   4909083.01549                  21421477.9614
        23.0004         63.7504
 95  4 13 20 37 30.0000000  0  7G 2G 7G12G15G19G26G27
  21364841.0634    1447152.63948   1126364.89449                  21364843.9454
        30.5004         63.7504
  20436129.1724   -3117783.94348  -2378556.44949                  20436131.7034
        28.5004         63.7504
                  -3496438.634 5  -2724494.913 5  23461673.367    23461677.391
        10.250           9.000
  24027414.2344    1737028.44445   1641192.33945                  24027419.4024
         9.5004         11.2504
  24292088.6024   11155072.06244   8617796.40945                  24292095.2464
         6.5004          5.2504
  23246508.7274   -3326670.62446  -2539485.76142                  23246510.2504
        15.5004          2.0004
  21429661.6334    6376174.79047   4942606.54649                  21429664.7624
        22.7504         63.5004
 95  4 13 20 37 45.0000000  0  7G 2G 7G12G15G19G26G27
  21367282.2584    1459981.18548   1136361.16749                  21367285.1294
        30.7504         63.7504
  20436656.8444   -3115010.10048  -2376395.00549                  20436659.5164
        28.2504         63.7504
                  -3527115.617 5  -2748399.045 5  23455835.844    23455839.738
        10.250           9.250
  24032355.9224    1762993.11345   1661424.53246                  24032360.3054
         9.7504         13.0004
  24302898.5164   11211883.11344   8662064.70545                  24302903.8954
         6.5004          6.0004
  23247043.7274   -3323857.65546  -2537293.85648                  23247047.1134
        15.5004         46.5004
  21437874.7504    6419334.51547   4976237.48349                  21437877.7504
        22.7504         62.2504
 95  4 13 20 38  0.0000000  0  7G 2G 7G12G15G19G26G27
  21369741.1254    1472902.51348   1146429.73049                  21369743.9844
        30.7504         63.7504
  20437218.9304   -3112056.50648  -2374093.49949                  20437221.5314
        28.2504         63.7504
                  -3557726.526 5  -2772251.682 5  23450010.578    23450014.625
        10.000           9.250
  24037334.0474    1789151.95645   1681808.04845                  24037338.3364
         9.7504         11.2504
  24313729.2034   11268795.40444   8706411.84445                  24313734.3014
         7.0004          7.7504
  23247614.3444   -3320857.65446  -2534956.21447                  23247617.0634
        15.5004         28.7504
  21446119.4224    6462659.63147   5009997.29649                  21446122.3984
        23.0004         62.2504
 95  4 13 20 38 15.0000000  0  7G 2G 7G12G15G19G26G27
  21372214.2664    1485898.79948   1156556.70749                  21372217.0904
        30.7504         63.7504
  20437811.6254   -3108942.66848  -2371667.12849                  20437814.2274
        28.2504         63.7504
                  -3588291.836 5  -2796068.794 5  23444194.148    23444198.113
        10.000           9.000
  24042344.1024    1815484.14645   1702326.64245                  24042348.9774
         9.5004         11.7504
  24324574.8284   11325785.40145   8750819.55745                  24324580.6294
         7.7504          7.7504
  23248217.5784   -3317690.55346  -2532488.30847                  23248220.4144
        15.5004         33.5004
  21454390.6174    6506125.03647   5043866.42949                  21454393.5234
        22.7504         61.0004
 95  4 13 20 38 30.0000000  0  7G 2G 7G12G15G19G26G27
  21374701.9224    1498971.25548   1166743.03449                  21374704.6414
        31.0004         63.7504
  20438434.1804   -3105670.06248  -2369117.04049                  20438436.7584
        28.0004         63.7504
                  -3618813.319 5  -2819851.760 5  23438386.086    23438390.250
        10.250           9.250
  24047387.9224    1841987.61745   1722978.67245                  24047392.1994
         9.7504         11.2504
  24335434.3524   11382852.44745   8795287.31045                  24335439.8954
         8.2504          6.0004
  23248851.5784   -3314358.09446  -2529891.59747                  23248854.4144
        15.5004         27.5004
  21462688.0164    6549729.15847   5077843.65249                  21462690.9694
        22.7504         63.0004
 95  4 13 20 38 45.0000000  0  7G 2G 7G12G15G19G26G27
  21377203.3914    1512116.66448   1176986.21249                  21377206.0164
        31.2504         63.7504
  20439086.7974   -3102240.09848  -2366444.33749                  20439089.4574
        28.0004         63.7504
                  -3649294.409 5  -2843603.242 5  23432585.805    23432589.797
        10.250           9.250
  24052463.1414    1868658.73145   1743761.37046                  24052467.1724
         9.7504         13.0004
  24346307.9384   11439994.11145   8839813.22045                  24346313.2464
         8.5004          6.0004
  23249516.8284   -3310863.56146  -2527168.58746                  23249520.1094
        15.0004         25.5004
  21471011.7894    6593471.12747   5111928.28649                  21471014.8834
        22.7504         62.2504
 95  4 13 20 39  0.0000000  0  6G 2G 7G12G15G26G27
  21379719.5394    1525339.13448   1187289.43449                  21379722.0704
        31.5004         63.7504
  20439770.2114   -3098648.83548  -2363645.94449                  20439772.8134
        28.0004         63.7504
                  -3679729.515 5  -2867318.889 5  23426794.227    23426798.297
        10.250           9.500
  24057571.8364    1895502.66645   1764678.69945                  24057576.4654
        10.0004         10.5004
  23250213.2274   -3307202.73746  -2524315.99746                  23250215.8404
        14.7504         25.0004
  21479362.4144    6637354.13247   5146122.81749                  21479365.4614
        22.2504         61.5004
 95  4 13 20 39 15.0000000  0  6G 2G 7G12G15G26G27
  21382251.2344    1538643.62248   1197656.56849                  21382253.7194
        31.5004         63.7504
  20440484.6334   -3094895.78348  -2360721.48249                  20440487.2584
        28.2504         63.7504
                  -3710113.604 5  -2890994.783 5  23421012.305    23421016.391
        10.250           9.750
  24062713.5864    1922524.26345   1785734.50745                  24062718.1214
         9.7504          8.5004
  23250942.4534   -3303370.16646  -2521329.57446                  23250944.9144
        15.2504         20.2504
  21487740.9614    6681381.99547   5180430.23249                  21487743.8914
        22.2504         61.0004
 95  4 13 20 39 30.0000000  0  6G 2G 7G12G15G26G27
  21384798.1644    1552027.48948   1208085.55449                  21384800.6724
        31.5004         63.7504
  20441228.4384   -3090985.97448  -2357674.86949                  20441230.9574
        28.0004         63.7504
                  -3740449.551 5  -2914633.167 5  23415239.461    23415243.609
        10.250           9.750
  24067889.0084    1949720.45845   1806926.34345                  24067892.7704
        10.0004          9.2504
  23251704.8914   -3299365.57246  -2518209.12446                  23251707.9024
        15.5004         17.0004
  21496146.9304    6725555.55947   5214851.17749                  21496149.9184
        22.2504         59.0004
 95  4 13 20 39 45.0000000  0  7G 2G 7G12G15G 4G26G27
  21387362.3284    1565502.14748   1218585.28549                  21387364.6954
        31.7504         63.7504
  20442004.4534   -3086907.20248  -2354496.60149                  20442007.0084
        28.0004         63.7504
                  -3770726.671 5  -2938225.706 5  23409477.883    23409482.094
        10.250           9.750
  24073099.6484    1977101.58845   1828262.29245                  24073103.8204
        10.0004         11.7504
  24315573.3054     -23278.98355
         9.0004
  23252501.2424   -3295180.71046  -2514948.18647                  23252503.8554
        15.5004         28.2504
  21504582.8524    6769886.20047   5249394.51149                  21504585.7704
        22.2504         61.0004
 95  4 13 20 40  0.0000000  0  7G 2G 7G12G15G 4G26G27
  21389942.8524    1579062.36148   1229151.68649                  21389945.1254
        31.7504         63.7504
  20442811.9534   -3082664.74448  -2351190.78649                  20442814.3794
        28.2504         63.7504
                  -3800948.587 5  -2961775.230 5  23403726.883    23403730.895
        10.250           9.750
  24078344.8984    2004663.64245   1849739.23145                  24078348.6024
        10.2504          8.5004
  24307272.4064     -66900.43445
         8.7504
  23253331.2814   -3290820.02546  -2511550.24446                  23253334.2234
        15.2504         25.5004
  21513047.6094    6814368.25047   5284055.83749                  21513050.5744
        22.2504         59.5004
 95  4 13 20 40 15.0000000  0  7G 2G 7G12G15G 4G26G27
  21392538.6024    1592702.59848   1239780.43949                  21392540.9344
        32.0004         63.7504
  20443648.9064   -3078266.59848  -2347763.65349                  20443651.3324
        28.2504         63.7504
                  -3831122.119 5  -2985287.057 5  23397985.281    23397989.000
        10.500           9.750
  24083622.5704    2032399.61945   1871351.65245                  24083625.9224
        10.0004          7.7504
  24298978.4614    -110490.36045         1.30655                  24298983.9574
         9.7504          8.5004
  23254193.0704   -3286289.10846  -2508019.65246                  23254196.3874
        15.0004         25.5004
  21521539.3054    6858994.08347   5318829.20049                  21521542.2234
        22.2504         57.0004
 95  4 13 20 40 30.0000000  0  7G 2G 7G12G15G 4G26G27
  21395147.5474    1606413.73248   1250464.44349                  21395149.7624
        32.0004         63.7504
  20444513.6174   -3073722.69948  -2344222.94749                  20444516.0554
        28.0004         63.7504
                  -3861254.041 5  -3008766.457 5  23392251.313    23392254.969
        10.500           9.500
  24088932.5164    2060302.31345   1893094.03745                  24088935.8674
        10.7504          9.7504
  24290687.6174    -154056.46245    -33946.26645                  24290691.8834
         9.7504          9.7504
  23255086.5004   -3281594.20446  -2504361.29247                  23255089.4774
        15.0004         26.2504
  21530058.2424    6903759.27647   5353711.15349                  21530061.0314
        22.5004         58.2504
 95  4 13 20 40 45.0000000  0  7G 2G 7G12G15G 4G26G27
  21397772.1804    1620205.59148   1261211.34449                  21397774.4184
        32.2504         63.7504
  20445408.4454   -3069020.21948  -2340558.67449                  20445410.9414
        28.2504         63.7504
                  -3891330.500 5  -3032202.647 5  23386527.828    23386531.797
        10.500           9.500
  24094276.2664    2088385.30045   1914976.87545                  24094278.9144
        10.2504         10.5004
  24282403.5554    -197587.98545    -67866.87545                  24282407.3874
         9.7504          8.5004
  23256013.4454   -3276724.24446  -2500566.52146                  23256016.1764
        15.2504         22.2504
  21538605.8674    6948677.71747   5388712.51949                  21538608.6804
        22.7504         58.2504
 95  4 13 20 41  0.0000000  0  7G 2G 7G12G15G 4G26G27
  21400411.0474    1634073.74348   1272017.69649                  21400413.1564
        32.0004         63.7504
  20446332.1884   -3064165.10447  -2336775.46349                  20446334.6724
        27.7504         63.7504
                  -3921355.662 5  -3055598.858 5  23380814.281    23380818.207
        10.500           9.250
  24099653.6254    2116644.21845   1936996.82645                  24099655.9924
        10.2504          6.5004
  24274125.5554    -241089.59645   -101764.20645                  24274130.3244
         9.7504          8.5004
  23256972.8054   -3271683.47746  -2496638.65346                  23256975.4654
        15.2504         22.2504
  21547181.4694    6993743.92847   5423829.03249                  21547184.1414
        22.0004         57.7504
 95  4 13 20 41 15.0000000  0  7G 2G 7G12G15G 4G26G27
  21403065.8284    1648023.76648   1282887.84049                  21403067.9264
        32.5004         63.7504
  20447285.7734   -3059155.42848  -2332871.81349                  20447288.2234
        28.2504         63.7504
                  -3951325.095 5  -3078951.650 5  23375111.055    23375115.039
        10.750           9.500
  24105065.6804    2145083.05045   1959156.95945                  24105068.6214
        10.7504          7.7504
  24265853.8364    -284555.68245   -135633.81645                  24265858.2664
         9.5004          7.2504
  23257964.9144   -3266468.95246  -2492575.39447                  23257967.1644
        15.7504         26.7504
  21555786.3594    7038962.09447   5459063.95049                  21555789.1374
        22.2504         57.0004
 95  4 13 20 41 30.0000000  0  7G 2G 7G12G15G 4G26G27
  21405736.0704    1662056.15048   1293822.16349                  21405738.1334
        32.5004         63.7504
  20448268.5474   -3053990.87848  -2328847.48449                  20448270.8554
        28.2504         63.7504
                  -3981239.928 5  -3102261.896 5  23369418.641    23369422.645
        10.750           9.500
  24110510.9924    2173700.37645   1981456.17945                  24110513.6524
        10.7504          7.7504
  24257588.9224    -327985.83445   -169475.45445                  24257594.0084
         9.0004          7.7504
  23258990.3204   -3261082.28346  -2488377.98147                  23258992.4304
        15.7504         26.7504
  21564420.3834    7084335.28147   5494419.66149                  21564423.1724
        22.0004         57.0004
 95  4 13 20 41 45.0000000  0  7G 2G 7G12G15G 4G26G27
  21408421.3834    1676167.53948   1304818.05149                  21408423.4694
        32.2504         63.7504
  20449280.5944   -3048673.25748  -2324703.87849                  20449282.9264
        28.0004         63.7504
                  -4011104.498 5  -3125532.972 5  23363735.555    23363739.563
        10.750           9.750
  24115990.1564    2202491.49045   2003890.82445                  24115993.1094
        10.7504          9.7504
  24249329.9224    -371384.48545   -203292.53845                  24249335.2194
         8.5004          7.2504
  23260045.9694   -3255530.70046  -2484052.07246                  23260048.2664
        15.5004         25.5004
  21573083.3054    7129858.00847   5529891.89849                  21573086.2464
        22.0004         58.2504
 95  4 13 20 42  0.0000000  0  7G 2G 7G12G15G 4G26G27
  21411122.3054    1690360.97948   1315877.87649                  21411124.2854
        32.5004         63.7504
  20450321.9144   -3043200.07548  -2320439.05549                  20450324.2934
        28.2504         63.7504
                  -4040915.955 5  -3148762.667 5  23358062.789    23358066.520
        11.000           9.750
  24121502.1644    2231459.09045   2026463.00245                  24121505.3984
        10.7504          9.2504
  24241078.9614    -414747.91145   -237082.17045                  24241085.0784
         8.7504          6.5004
  23261134.5234   -3249812.69846  -2479596.47646                  23261136.8554
        15.5004         23.0004
  21581774.1334    7175528.21047   5565479.05249                  21581776.9574
        22.0004         57.7504
 95  4 13 20 42 15.0000000  0  7G 2G 7G12G15G 4G26G27
  21413838.9774    1704636.51448   1327001.66949                  21413840.9224
        32.5004         63.7504
  20451392.2344   -3037574.64148  -2316055.59449                  20451394.6484
        28.2504         63.7504
                  -4070675.393 5  -3171951.822 5  23352399.688    23352403.410
        11.000           9.750
  24127047.9304    2260601.61045   2049171.45745                  24127050.9064
        10.7504          8.5004
  24232833.8754    -458073.00745   -270841.92745                  24232838.3874
         8.2504          4.5004
  23262254.3284   -3243926.71846  -2475010.00246                  23262256.9414
        15.0004         25.5004
  21590492.6024    7221343.60347   5601179.34149                  21590495.2624
        22.2504         57.0004
 95  4 13 20 42 30.0000000  0  7G 2G 7G12G15G 4G26G27
  21416568.0474    1718978.65448   1338177.36249                  21416570.0394
        32.2504         63.7504
  20452488.6334   -3031813.60447  -2311566.47049                  20452491.0594
        27.7504         63.7504
                  -4100399.011 5  -3195113.065 5  23346743.352    23346747.223
        10.750           9.750
  24132623.5864    2289902.61845   2072003.41945                  24132626.7274
        10.7504          9.2504
  24224595.0004    -501371.10745   -304580.66745                  24224599.8164
         8.5004          7.7504
  23263403.0164   -3237889.90146  -2470305.99246                  23263405.6994
        15.0004         21.0004
  21599235.2344    7267286.46447   5636978.95649                  21599237.8014
        22.2504         57.7504
 95  4 13 20 42 45.0000000  0  7G 2G 7G12G15G 4G26G27
  21419311.9454    1733398.43648   1349413.55549                  21419313.9384
        32.2504         63.7504
  20453612.8834   -3025904.49948  -2306961.96649                  20453615.3794
        28.2504         63.7504
                  -4130074.255 5  -3218236.615 5  23341096.359    23341100.195
        10.750           9.750
  24138232.1724    2319374.32945   2094968.40445                  24138235.3364
        11.0004          9.7504
  24216363.4534    -544628.53245   -338287.70145                  24216369.8284
         9.0004          8.5004
  23264583.0634   -3231691.62746  -2465476.17247                  23264585.3954
        15.5004         27.5004
  21608003.9064    7313367.17747   5672885.99349                  21608006.6374
        22.0004         58.2504
 95  4 13 20 43  0.0000000  0  7G 2G 7G12G15G 4G26G27
  21422074.7114    1747916.42248   1360726.27049                  21422076.6334
        32.2504         63.7504
  20454769.5084   -3019827.91548  -2302226.95849                  20454771.8524
        28.2504         63.7504
                  -4159682.720 5  -3241308.129 5  23335462.094    23335465.828
        11.000           9.750
  24143875.9774    2349034.90345   2118080.54545                  24143879.5274
        11.0004         10.5004
  24208143.8054    -587825.97145   -371947.98945                  24208149.1254
         9.2504          9.7504
  23265797.5474   -3225310.55046  -2460503.89747                  23265799.8674
        15.7504         26.7504
  21616802.5394    7359603.70747   5708914.43949                  21616805.2234
        21.7504         57.0004
 95  4 13 20 43 15.0000000  0  7G 2G 7G12G15G 4G26G27
  21424852.0394    1762512.82348   1372100.09149                  21424853.9384
        31.5004         63.7504
  20455953.4534   -3013606.06648  -2297378.76149                  20455955.7384
        28.2504         63.7504
                  -4189244.974 5  -3264343.635 5  23329836.703    23329840.402
        11.000           9.750
  24149552.4144    2378863.36345   2141323.51845                  24149557.5474
        11.0004          7.7504
  24199930.3754    -630983.44545   -405577.13245                  24199936.2814
         8.7504          9.7504
  23267042.6024   -3218765.95246  -2455404.21146                  23267044.8054
        15.7504         25.0004
  21625627.1564    7405977.80947   5745050.08549                  21625629.9804
        21.7504         56.2504
 95  4 13 20 43 30.0000000  0  7G 2G 7G12G15G 4G26G27
  21427644.1484    1777183.63848   1383531.89149                  21427646.0704
        31.7504         63.7504
  20457164.4144   -3007242.32148  -2292419.99249                  20457166.8164
        28.5004         63.7504
                  -4218764.246 5  -3287345.648 5  23324219.297    23324223.148
        11.000           9.750
  24155259.9454    2408856.11945   2164694.49945                  24155263.8244
        11.5004          8.5004
  24191724.9614    -674103.00645   -439176.70745                  24191730.8444
         9.0004          9.7504
  23268318.9694   -3212059.47146  -2450178.38146                  23268321.4184
        15.5004         23.0004
  21634477.1804    7452484.92547   5781289.38049                  21634480.0274
        21.7504         56.2504
 95  4 13 20 43 45.0000000  0  7G 2G 7G12G15G 4G26G27
  21430449.1724    1791925.07648   1395018.72649                  21430451.0704
        31.5004         63.7504
  20458401.9534   -3000739.63048  -2287352.95549                  20458404.2734
        28.2504         63.7504
                  -4248242.559 5  -3310315.746 5  23318609.578    23318613.668
        11.000          10.000
  24160997.7034    2439011.01745   2188191.81245                  24161001.1844
        11.5004         11.2504
  24183526.1804    -717186.98145   -472748.60545                  24183532.2854
         8.7504         10.5004
  23269625.6414   -3205191.39046  -2444826.62747                  23269627.7974
        15.5004         26.7504
  21643351.8594    7499120.44947   5817628.72949                  21643354.9654
        21.5004         55.7504
 95  4 13 20 44  0.0000000  0  7G 2G 7G12G15G 4G26G27
  21433271.1724    1806755.02848   1406574.53049                  21433273.0124
        31.7504         63.7504
  20459668.8754   -2994081.47948  -2282164.77949                  20459671.1724
        28.2504         63.7504
                  -4277660.560 5  -3333238.847 5  23313011.578    23313015.457
        11.250          10.000
  24166770.9064    2469346.92045   2211830.19845                  24166774.8794
        11.7504         10.5004
  24175338.2584    -760217.02345   -506278.45145                  24175344.0594
         8.7504          6.5004
  23270967.2114   -3198142.03646  -2439333.63046                  23270969.6024
        15.7504         25.0004
  21652253.6094    7545899.63347   5854080.02449                  21652256.5274
        21.7504         57.7504
 95  4 13 20 44 15.0000000  0  7G 2G 7G12G15G 4G26G27
  21436108.2274    1821664.54048   1418192.32949                  21436109.9734
        31.2504         63.7504
  20460963.4694   -2987278.59748  -2276863.82949                  20460965.7894
        28.5004         63.7504
                  -4307026.251 5  -3356121.188 5  23307423.414    23307427.391
        11.250          10.000
  24172576.1724    2499855.56945   2235603.16245                  24172580.1454
        11.7504         10.5004
  24167159.7734    -803195.97545   -539768.46745                  24167165.5044
         9.0004          7.2504
  23272342.2664   -3190915.92246  -2433702.88847                  23272344.6214
        15.7504         26.7504
  21661181.7034    7592816.90547   5890638.92049                  21661184.5044
        21.7504         57.0004
 95  4 13 20 44 30.0000000  0  7G 2G 7G12G15G 4G26G27
  21438958.3834    1836643.01148   1429863.86849                  21438960.1414
        31.0004         63.7504
  20462283.3364   -2980341.64348  -2271458.40349                  20462285.6454
        28.5004         63.7504
                  -4336349.163 5  -3378970.199 5  23301843.531    23301847.512
        11.500          10.250
  24178413.2504    2530527.19046   2259503.12846                  24178417.4224
        12.0004         12.5004
  24158988.5394    -846132.21545   -573225.25045                  24158993.7074
         9.0004          9.7504
  23273749.1484   -3183522.15346  -2427941.51846                  23273751.3634
        15.5004         25.0004
  21670134.6724    7639865.58247   5927300.20949                  21670137.6484
        21.5004         56.2504
 95  4 13 20 44 45.0000000  0  7G 2G 7G12G15G 4G26G27
  21441822.0944    1851691.79348   1441590.19249                  21441823.9454
        30.7504         63.7504
  20463630.0004   -2973266.12348  -2265945.00249                  20463632.3444
        28.2504         63.7504
                  -4365626.316 5  -3401783.550 5  23296272.438    23296276.223
        11.500          10.250
  24184280.5164    2561364.23745   2283532.00145                  24184284.1954
        11.7504         11.7504
  24150825.7194    -889027.20045   -606649.85645                  24150830.0204
         9.0004          9.2504
  23275188.0944   -3175959.82246  -2422048.79046                  23275190.4144
        15.5004         25.0004
  21679113.8134    7687050.51447   5964067.67049                  21679116.7774
        22.0004         56.2504
 95  4 13 20 45  0.0000000  0  7G 2G 7G12G15G 4G26G27
  21444702.5234    1866828.04148   1453384.66849                  21444704.3984
        30.2504         63.7504
  20465006.2894   -2966033.29348  -2260309.02649                  20465008.6214
        28.2504         63.7504
                  -4394840.400 5  -3424547.747 5  23290713.023    23290716.934
        11.500          10.250
  24190183.9064    2592383.65745   2307702.98746                  24190188.0784
        11.7504         12.5004
  24142674.2504    -931865.07145   -640029.96845                  24142679.0784
         9.2504          9.2504
  23276663.0944   -3168209.96346  -2416009.93446                  23276665.4734
        15.5004         24.2504
  21688122.6094    7734391.42647   6000956.67449                  21688125.5984
        22.2504         59.0004
 95  4 13 20 45 15.0000000  0  7G 2G 7G12G15G 4G26G27
  21447597.0634    1882039.13948   1465237.47249                  21447598.9964
        30.2504         63.7504
  20466410.1644   -2958656.83448  -2254561.13049                  20466412.3444
        28.5004         63.7504
                  -4424004.680 5  -3447273.148 5  23285163.211    23285166.875
        11.250          10.000
  24196118.5394    2623571.86645   2332005.47746                  24196122.7234
        11.7504         12.5004
  24134530.6254    -974659.53845   -673376.24945                  24134535.8984
         9.7504          6.5004
  23278170.1564   -3160290.01446  -2409838.54646                  23278172.6764
        15.2504         23.5004
  21697158.8754    7781877.52947   6037958.82049                  21697161.6994
        21.7504         56.2504
 95  4 13 20 45 30.0000000  0  7G 2G 7G12G15G 4G26G27
  21450504.4064    1897317.22248   1477142.47049                  21450506.3284
        30.2504         63.7504
  20467839.8594   -2951142.52448  -2248705.81949                  20467842.1804
        28.2504         63.7504
                  -4453125.635 5  -3469964.784 5  23279621.773    23279625.148
        11.250          10.000
  24202084.7734    2654922.04045   2356434.19245                  24202088.3484
        11.7504         11.7504
  24126394.7034   -1017417.54645   -706694.13245                  24126399.9064
        10.5004          8.5004
  23279707.9774   -3152208.94746  -2403541.61046                  23279710.3794
        15.2504         24.2504
  21706221.0234    7829500.13647   6075067.32149                  21706223.8484
        21.7504         55.0004
 95  4 13 20 45 45.0000000  0  7G 2G 7G12G15G 4G26G27
  21453427.6564    1912678.49248   1489112.29049                  21453429.5554
        30.5004         63.7504
  20469299.9534   -2943470.11148  -2242727.30949                  20469302.1804
        28.5004         63.7504
                  -4482185.824 5  -3492609.072 5  23274091.773    23274095.363
        11.500          10.250
  24208084.6884    2686451.31246   2381002.45146                  24208088.4614
        12.2504         13.7504
  24118267.8524   -1060121.80445   -739970.12745                  24118271.9654
        10.2504          8.5004
  23281279.3524   -3143950.51746  -2397106.47347                  23281281.8364
        15.7504         26.7504
  21715311.8284    7877273.83447   6112293.56349                  21715314.8164
        21.2504         55.0004
 95  4 13 20 46  0.0000000  0  7G 2G 7G12G15G 4G26G27
  21456365.2424    1928115.94848   1501141.48049                  21456367.1414
        30.2504         63.7504
  20470788.5784   -2935647.53448  -2236631.78949                  20470790.8404
        28.7504         63.7504
                  -4511193.897 5  -3515212.751 5  23268571.625    23268575.164
        11.500          10.250
  24214117.0634    2718150.71546   2405703.27746                  24214120.7544
        12.2504         12.5004
  24110149.4064   -1102782.36145   -773212.09145                  24110154.3284
        10.0004         10.5004
  23282882.1024   -3135528.52146  -2390543.88046                  23282884.3284
        15.7504         25.5004
  21724430.8284    7925192.30247   6149632.61249                  21724433.6414
        21.7504         55.7504
 95  4 13 20 46 15.0000000  0  7G 2G 7G12G15G 4G26G27
  21459317.6564    1943632.37448   1513232.20049                  21459319.6954
        30.0004         63.7504
  20472306.0634   -2927672.95848  -2230417.82749                  20472308.2894
        28.7504         63.7504
                  -4540148.765 5  -3537774.973 5  23263061.570    23263065.230
        11.250          10.250
  24220181.4534    2750021.00045   2430537.26246                  24220184.5704
        11.7504         13.0004
  24102041.1564   -1145395.50745   -806417.07045                  24102044.9184
        10.5004          9.7504
  23284516.3204   -3126941.77146  -2383852.90746                  23284518.6644
        15.7504         25.5004
  21733577.4064    7973258.14147   6187086.49549                  21733580.3014
        21.7504         54.2504
 95  4 13 20 46 30.0000000  0  7G 2G 7G12G15G 4G26G27
  21462284.3984    1959222.69648   1525380.50249                  21462286.5784
        30.0004         63.7504
  20473852.1804   -2919548.24648  -2224086.87649                  20473854.3014
        28.7504         63.7504
                  -4569055.162 5  -3560299.416 5  23257560.883    23257564.625
        11.250          10.250
  24226277.9064    2782056.97545   2455500.36145                  24226280.5434
        11.7504         11.2504
  24093941.0394   -1187965.58345   -839588.52045                  24093945.4344
        11.7504         11.2504
  23286179.6804   -3118198.64746  -2377040.08647                  23286181.9774
        15.7504         28.2504
  21742751.4224    8021468.02047   6224652.61549                  21742754.0944
        21.7504         56.2504
 95  4 13 20 46 45.0000000  0  7G 2G 7G12G15G 4G26G27
  21465265.2734    1974887.21048   1537586.61749                  21465267.5004
        29.5004         63.7504
  20475427.5394   -2911270.11448  -2217636.37549                  20475429.5664
        29.0004         63.7504
                  -4597911.576 5  -3582784.914 5  23252069.672    23252073.508
        11.250          10.250
  24232406.5704    2814259.82245   2480593.47746                  24232410.1334
        11.7504         12.5004
  24085847.1954   -1230496.02745   -872729.07545                  24085851.1804
        11.7504         11.7504
  23287872.7344   -3109302.53546  -2370108.05947                  23287875.0664
        15.7504         26.2504
  21751952.8594    8069820.49547   6262329.85549                  21751955.3794
        22.0004         56.2504
 95  4 13 20 47  0.0000000  0  7G 2G 7G12G15G 4G26G27
  21468260.4924    1990626.99248   1549851.38349                  21468262.7544
        29.2504         63.7504
  20477032.2344   -2902837.54148  -2211065.53749                  20477034.3204
        29.0004         63.7504
                  -4626717.541 5  -3605231.105 5  23246587.961    23246591.742
        11.250          10.500
  24238565.5314    2846629.59245   2505816.67646                  24238569.7154
        11.7504         13.7504
  24077761.3524   -1272986.43745   -905838.44145                  24077764.8794
        11.2504         11.2504
  23289595.0164   -3100253.96946  -2363057.23047                  23289597.9694
        15.7504         26.2504
  21761180.5004    8118313.14547   6300116.31849                  21761183.1254
        22.0004         56.2504
 95  4 13 20 47 15.0010000  0  7G 2G 7G12G15G 4G26G27
  21471270.1464    2006442.49748   1562175.15049                  21471272.3844
        29.2504         63.7504
  20478665.8414   -2894253.50548  -2204376.67349                  20478667.9384
        29.0004         63.7504
                  -4655475.946 5  -3627640.233 5  23241115.575    23241119.282
        11.500          10.500
  24244757.1384    2879167.29145   2531170.71646                  24244760.8294
        11.2504         13.0004
  24069683.0134   -1315437.69445   -938917.31345                  24069686.7984
        11.0004         11.2504
  23291345.3644   -3091054.13446  -2355888.53546                  23291348.5174
        15.7504         25.0004
  21770435.1144    8166945.46247   6338011.61349                  21770437.8684
        22.0004         55.0004
 95  4 13 20 47 30.0010000  0  7G 2G 7G12G15G 4G26G27
  21474292.8024    2022327.64748   1574553.19349                  21474295.1924
        29.0004         63.7504
  20480326.9034   -2885523.95048  -2197574.41349                  20480328.9664
        29.2504         63.7504
                  -4684187.259 5  -3650012.669 5  23235652.021    23235655.790
        11.750          10.750
  24250979.1464    2911863.92345   2556648.61446                  24250982.4854
        11.0004         12.5004
  24061611.2244   -1357851.45045   -971966.93245                  24061615.7004
        10.2504         10.5004
  23293123.9894   -3081708.65046  -2348606.33746                  23293126.6964
        15.7504         25.0004
  21779713.5364    8215704.12747   6376005.36449                  21779716.1854
        22.0004         53.7504
 95  4 13 20 47 45.0010000  0  7G 2G 7G12G15G 4G26G27
  21477330.0604    2038288.12548   1586989.93249                  21477332.6264
        29.0004         63.7504
  20482016.4974   -2876643.67548  -2190654.71449                  20482018.5714
        29.2504         63.7504
                  -4712850.924 5  -3672347.973 5  23230197.427    23230201.177
        11.750          10.750
  24257231.8564    2944723.85145   2582253.74246                  24257236.0054
        10.5004         12.5004
  24053547.2554   -1400229.95645  -1004989.10445                  24053550.4194
        10.5004         11.2504
  23294931.1534   -3072210.51346  -2341205.19446                  23294933.9424
        15.7504         25.0004
  21789016.8564    8264593.01747   6414100.58348                  21789019.4464
        22.0004         53.0004
 95  4 13 20 48  0.0010000  0  7G 2G 7G12G15G 4G26G27
  21480381.7164    2054324.70248   1599485.96249                  21480384.2594
        28.5004         63.7504
  20483734.3724   -2867616.67248  -2183620.68049                  20483736.4584
        29.0004         63.7504
                  -4741468.261 5  -3694647.182 5  23224751.724    23224755.517
        11.500          10.750
  24263515.7004    2977745.09945   2607984.56845                  24263519.7554
        10.2504         11.7504
  24045489.3334   -1442572.74445  -1037983.43845                  24045493.9034
        10.2504         10.5004
  23296767.1064   -3062562.23846  -2333687.05547                  23296769.3334
        16.2504         26.2504
  21798344.6064    8313610.68247   6452296.14848                  21798347.1034
        22.0004         51.7504
 95  4 13 20 48 15.0010000  0  7G 2G 7G12G15G 4G26G27
  21483447.3254    2070435.75348   1612040.02749                  21483450.0214
        28.5004         63.7504
  20485479.3804   -2858446.62348  -2176475.18349                  20485481.5014
        29.2504         63.7504
                  -4770041.474 5  -3716912.004 5  23219314.435    23219318.177
        11.750          10.750
  24269829.6534    3010925.31945   2633839.28445                  24269833.5674
        10.0004         11.2504
  24037438.3644   -1484882.23845  -1070951.81945                  24037443.3804
        10.0004          9.7504
  23298632.1384   -3052762.34246  -2326050.77247                  23298634.7164
        16.2504         26.2504
  21807696.1534    8362754.44047   6490589.96748                  21807698.6034
        22.0004         53.0004
 95  4 13 20 48 30.0010000  0  7G 2G 7G12G15G 4G26G27
  21486528.1384    2086624.83148   1624654.89749                  21486530.7044
        28.2504         63.7504
  20487252.7084   -2849127.96348  -2169213.88249                  20487254.9114
        29.2504         63.7504
                  -4798565.440 5  -3739138.459 5  23213886.513    23213890.142
        11.750          11.000
  24276174.3644    3044269.29545   2659821.59445                  24276177.7044
         9.7504         11.2504
  24029394.9354   -1527153.59645  -1103890.48145                  24029399.1534
        10.7504         10.5004
  23300527.3884   -3042803.33046  -2318290.50646                  23300529.6734
        15.7504         24.2504
  21817072.5214    8412027.04747   6528984.19648                  21817075.0874
        22.0004         51.0004
 95  4 13 20 48 45.0010000  0  6G 2G 7G12G 4G26G27
  21489622.2474    2102885.71848   1637325.72049                  21489624.8134
        28.2504         63.7504
  20489052.9744   -2839667.32348  -2161841.95049                  20489055.2244
        29.2504         63.7504
                  -4827044.756 6  -3761330.123 5  23208467.091    23208470.849
        12.000          11.000
  24021356.7004   -1569392.89545  -1136804.19445                  24021361.2004
        11.0004         10.5004
  23302451.5604   -3032690.13846  -2310410.10746                  23302454.0214
        15.7504         24.2504
  21826472.3254    8461422.63547   6567474.24449                  21826474.8924
        22.0004         53.7504
 95  4 13 20 49  0.0010000  0  6G 2G 7G12G 4G26G27
  21492731.0284    2119221.06748   1650054.56249                  21492733.5714
        28.5004         63.7504
  20490880.0674   -2830064.87448  -2154359.51449                  20490882.1884
        29.0004         63.7504
                  -4855477.870 6  -3783485.778 5  23203056.388    23203060.200
        12.000          11.250
  24013325.6144   -1611597.53745  -1169690.87945                  24013330.0324
        10.7504          9.7504
  23304406.3494   -3022416.87446  -2302404.96947                  23304408.9744
        15.5004         26.2504
  21835895.6224    8510942.33747   6606061.00649                  21835898.3764
        21.7504         53.7504
 95  4 13 20 49 15.0010000  0  6G 2G 7G12G 4G26G27
  21495855.0994    2135638.33948   1662847.24349                  21495857.5244
        28.5004         63.7504
  20492735.7164   -2820313.96048  -2146761.39549                  20492737.8844
        28.7504         63.7504
                  -4883857.010 6  -3805599.379 5  23197656.021    23197659.774
        12.000          11.000
  24005302.7244   -1653756.43645  -1202541.91845                  24005307.6344
        10.2504         10.5004
  23306393.9034   -3011974.01746  -2294267.67746                  23306396.6344
        15.7504         25.5004
  21845344.6384    8560596.12047   6644752.25148                  21845347.2864
        21.7504         52.5004
 95  4 13 20 49 30.0010000  0  6G 2G 7G12G 4G26G27
  21498995.8724    2152142.16048   1675707.35949                  21498998.1924
        28.5004         63.7504
  20494620.4744   -2810409.77348  -2139043.84049                  20494622.7124
        29.0004         63.7504
                  -4912176.294 6  -3827666.339 5  23192267.083    23192270.728
        12.250          11.000
  23997289.7784   -1695864.55545  -1235353.38545                  23997294.0794
        10.7504          9.7504
  23308414.9424   -3001354.74346  -2285992.92046                  23308417.5324
        16.0004         25.5004
  21854820.4424    8610392.24247   6683554.40648                  21854823.1734
        22.0004         52.5004
 95  4 13 20 49 45.0010000  0  6G 2G 7G12G 4G26G27
  21502149.3964    2168713.72148   1688620.26549                  21502151.6814
        29.0004         63.7504
  20496531.2314   -2800369.10148  -2131219.93749                  20496533.3994
        29.0004         63.7504
                  -4940454.164 6  -3849701.025 5  23186886.075    23186889.423
        12.250          11.000
  23989283.6384   -1737938.45945  -1268138.21745                  23989288.4894
        10.7504         11.2504
  23310465.9194   -2990575.24246  -2277593.31347                  23310468.5214
        16.0004         26.2504
  21864319.9034    8660312.33247   6722453.15648                  21864322.4354
        21.5004         51.7504
 95  4 13 20 50  0.0010000  0  6G 2G 7G12G 4G26G27
  21505314.9504    2185349.46048   1701583.17849                  21505317.3174
        28.7504         63.7504
  20498466.5134   -2790198.52848  -2123294.80649                  20498468.5174
        28.7504         63.7504
                  -4968693.074 6  -3871705.356 5  23181512.130    23181515.958
        12.250          11.000
  23981283.9274   -1779974.28545  -1300893.35845                  23981288.4154
        10.2504         11.2504
  23312547.1924   -2979639.41246  -2269071.89346                  23312549.5714
        15.7504         23.5004
  21873842.3964    8710353.13647   6761445.97549                  21873845.0794
        21.2504         53.7504
 95  4 13 20 50 15.0010000  0  6G 2G 7G12G 4G26G27
  21508493.6534    2202053.30148   1714599.15349                  21508496.0794
        28.7504         63.7504
  20500427.8024   -2779891.50448  -2115263.35649                  20500429.7944
        28.7504         63.7504
                  -4996884.926 6  -3893673.020 5  23176147.489    23176151.165
        12.250          11.000
  23973294.2004   -1821960.31745  -1333609.71245                  23973298.4664
        10.2504         11.2504
  23314659.3024   -2968539.37946  -2260422.51947                  23314661.7164
        15.7504         26.2504
  21883389.2314    8760522.69347   6800539.11748                  21883391.8924
        21.2504         50.5004
 95  4 13 20 50 30.0010000  0  6G 2G 7G12G 4G26G27
  21511683.4584    2218815.44948   1727660.56749                  21511685.9194
        29.0004         63.7504
  20502414.0284   -2769454.50148  -2107130.62249                  20502416.1264
        28.5004         63.7504
                  -5025037.318 6  -3915609.938 5  23170790.263    23170793.856
        12.250          10.750
  23965312.3254   -1863904.01745  -1366293.05845                  23965316.6384
        10.2504          8.5004
  23316800.9424   -2957284.17046  -2251652.22046                  23316803.6494
        15.5004         23.0004
  21892959.6224    8810815.43847   6839728.24948                  21892962.5994
        21.0004         53.0004
 95  4 13 20 50 45.0010000  0  6G 2G 7G12G 4G26G27
  21514887.4034    2235653.74548   1740781.31449                  21514889.9934
        28.5004         63.7504
  20504428.4424   -2758868.78648  -2098882.00549                  20504430.5404
        28.5004         63.7504
                  -5053131.945 6  -3937501.844 5  23165443.989    23165447.528
        12.250          10.750
  23957343.4974   -1905784.14245  -1398926.89945                  23957347.9154
        10.7504         10.5004
  23318975.2554   -2945859.01846  -2242749.51347                  23318977.8684
        15.7504         26.2504
  21902556.8724    8861250.45247   6879028.24148                  21902559.7674
        20.7504         51.0004
 95  4 13 20 51  0.0010000  0  6G 2G 7G12G 4G26G27
  21518104.3414    2252559.36548   1753954.52249                  21518107.0484
        28.5004         63.7504
  20506469.9894   -2748141.70548  -2090523.23649                  20506472.0524
        28.7504         63.7504
                  -5081177.602 6  -3959355.587 5  23160107.161    23160110.688
        12.500          10.750
  23949383.8964   -1947608.48345  -1431517.23545                  23949387.9854
        10.5004          9.2504
  23321180.4354   -2934271.94646  -2233720.63947                  23321182.9194
        16.2504         26.7504
  21912180.0284    8911820.23547   6918433.24548                  21912183.0634
        20.7504         50.5004
 95  4 13 20 51 15.0010000  0  6G 2G 7G12G 4G26G27
  21521333.8644    2269529.69748   1767178.15649                  21521336.8174
        28.7504         63.7504
  20508537.8644   -2737274.06748  -2082054.94049                  20508539.9034
        28.7504         63.7504
                  -5109176.832 6  -3981173.157 5  23154778.997    23154782.478
        12.250          11.000
  23941435.2784   -1989381.18445  -1464067.34845                  23941439.8494
        11.0004          9.7504
  23323414.6064   -2922527.94946  -2224569.47347                  23323416.9274
        16.0004         27.5004
  21921827.5284    8962518.03347   6957938.00348                  21921830.5404
        20.5004         52.5004
 95  4 13 20 51 30.0010000  0  6G 2G 7G12G 4G26G27
  21524573.9894    2286556.78548   1780446.01949                  21524576.8494
        28.5004         63.7504
  20510631.1144   -2726274.14348  -2073483.56649                  20510633.0364
        28.5004         63.7504
                  -5137137.756 6  -4002960.872 5  23149458.161    23149461.856
        12.250          11.000
  23933493.8564   -2031111.40945  -1496584.37245                  23933497.2084
        10.7504          9.2504
  23325677.5914   -2910637.29646  -2215304.03647                  23325679.9114
        16.0004         29.5004
  21931497.7554    9013333.38547   6997534.36648                  21931500.7784
        20.5004         49.7504
 95  4 13 20 51 45.0010000  0  6G 2G 7G12G 4G26G27
  21527825.7244    2303645.02948   1793761.53049                  21527828.7714
        28.5004         63.7504
  20512749.8104   -2715139.82848  -2064807.47149                  20512751.9894
        28.5004         63.7504
                  -5165058.319 6  -4024717.142 5  23144145.028    23144148.825
        12.250          11.000
  23925561.5524   -2072797.58545  -1529067.05545                  23925566.0524
        11.0004         11.2504
  23327968.6614   -2898599.40846  -2205923.87146                  23327970.7714
        15.7504         25.5004
  21941189.2084    9064265.45647   7037221.67248                  21941192.0324
        20.2504         48.5004
 95  4 13 20 52  0.0010000  0  6G 2G 7G12G 4G26G27
  21531089.6384    2320797.62548   1807127.18549                  21531092.6854
        28.5004         63.7504
  20514894.5674   -2703869.17848  -2056025.14549                  20514896.7124
        28.5004         63.7504
                  -5192936.329 6  -4046440.257 5  23138840.013    23138843.806
        12.250          11.000
  23917638.1384   -2114436.53445  -1561512.95245                  23917642.5214
        11.0004         10.5004
  23330286.3104   -2886415.63446  -2196430.02547                  23330288.5364
        15.5004         26.7504
  21950903.9194    9115315.48447   7077000.89348                  21950906.7904
        20.2504         47.7504
 95  4 13 20 52 15.0010000  0  6G 2G 7G12G 4G26G27
  21534367.8024    2338023.07148   1820549.60849                  21534370.9314
        28.7504         63.7504
  20517066.6464   -2692454.03348  -2047130.22449                  20517068.8724
        28.5004         63.7504
                  -5220764.086 6  -4068124.205 5  23133544.692    23133548.298
        12.250          11.000
  23909723.4114   -2156024.80945  -1593919.36346                  23909727.7714
        10.5004         12.5004
  23332634.0604   -2874081.50746  -2186819.02647                  23332636.3804
        16.0004         26.7504
  21960642.4744    9166492.08747   7116878.74548                  21960645.3454
        20.2504         47.7504
 95  4 13 20 52 30.0010000  0  6G 2G 7G12G 4G26G27
  21537656.7314    2355306.39048   1834017.12949                  21537659.6494
        29.0004         63.7504
  20519264.0364   -2680906.92348  -2038132.46849                  20519266.2164
        28.5004         63.7504
                  -5248557.048 6  -4089781.051 5  23128255.708    23128259.403
        12.250          11.000
  23901815.3644   -2197582.08045  -1626301.60846                  23901820.2044
        10.2504         12.5004
  23335006.9034   -2861613.29146  -2177103.53747                  23335009.0014
        16.2504         29.5004
  21970402.7864    9217782.28647   7156845.12048                  21970405.6344
        20.0004         48.5004
 95  4 13 20 52 45.0010000  0  6G 2G 7G12G 4G26G27
  21540957.4664    2372651.32548   1847532.66149                  21540960.3724
        29.2504         63.7504
  20521486.4664   -2669227.78048  -2029031.83549                  20521488.6694
        28.2504         63.7504
                  -5276313.327 6  -4111409.318 5  23122973.833    23122977.446
        12.250          11.000
  23893913.3414   -2239107.38645  -1658658.93845                  23893917.0674
        10.2504         11.2504
  23337404.7784   -2849010.21346  -2167282.95747                  23337407.2634
        15.7504         26.7504
  21980184.6224    9269188.12546   7196901.59248                  21980187.7394
        19.7504         47.7504
 95  4 13 20 53  0.0010000  0  6G 2G 7G12G 4G26G27
  21544269.3494    2390054.91648   1861093.90049                  21544272.0564
        29.7504         63.7504
  20523732.9034   -2657421.31148  -2019831.98949                  20523735.0604
        28.5004         63.7504
                  -5304036.056 6  -4133011.434 5  23117698.224    23117702.013
        12.250          11.250
  23886016.1384   -2280604.75245  -1690994.49846                  23886021.1064
        10.2504         12.5004
  23339828.4034   -2836273.38246  -2157358.16847                  23339831.0054
        15.7504         26.7504
  21989987.8724    9320703.84247   7237043.68948                  21989990.7314
        20.2504         47.7504
 95  4 13 20 53 15.0010000  0  6G 2G 7G12G 4G26G27
  21547590.7944    2407509.59948   1874694.95049                  21547593.5604
        29.2504         63.7504
  20526001.9194   -2645499.15148  -2010541.98949                  20526004.1574
        28.2504         63.7504
                  -5331733.471 6  -4154593.823 5  23112427.583    23112431.567
        12.000          11.500
  23878122.9274   -2322085.68645  -1723317.26445                  23878127.2394
        10.0004         11.7504
  23342276.0994   -2823410.94846  -2147335.49747                  23342279.3454
        15.5004         26.2504
  21999810.4814    9372320.46746   7277264.41848                  21999813.5634
        19.7504         47.7504
 95  4 13 20 53 30.0010000  0  6G 2G 7G12G 4G26G27
  21550922.8564    2425019.62148   1888339.11949                  21550925.5404
        29.7504         63.7504
  20528292.7084   -2633460.93748  -2001161.56349                  20528294.8534
        28.5004         63.7504
                  -5359401.814 6  -4176153.554 5  23107162.435    23107166.341
        12.000          11.500
  23870232.5524   -2363546.67345  -1755624.46646                  23870238.1064
        10.5004         13.0004
  23344748.5524   -2810420.36446  -2137212.96747                  23344751.1774
        15.7504         26.2504
  22009653.1694    9424043.86147   7317568.33948                  22009656.1694
        20.2504         46.5004
 95  4 13 20 53 45.0010000  0  6G 2G 7G12G 4G26G27
  21554265.0604    2442582.45648   1902024.44049                  21554267.7314
        30.0004         63.7504
  20530604.8334   -2621311.33648  -1991694.34049                  20530606.9894
        28.5004         63.7504
                  -5387043.912 6  -4197692.847 5  23101902.302    23101906.146
        12.250          11.500
  23862347.2554   -2404988.49945  -1787916.75246                  23862350.9934
        10.7504         13.0004
  23347244.9424   -2797302.26246  -2126991.08246                  23347247.7434
        15.5004         25.5004
  22019516.6774    9475877.60347   7357958.24748                  22019519.6884
        20.0004         47.2504
 95  4 13 20 54  0.0010000  0  6G 2G 7G12G 4G26G27
  21557617.8884    2460202.24848   1915754.14149                  21557620.3844
        30.2504         63.7504
  20532938.3564   -2609048.17248  -1982138.62649                  20532940.4894
        28.5004         63.7504
                  -5414655.548 6  -4219208.392 5  23096648.146    23096652.009
        12.250          11.750
  23854465.1064   -2446406.55245  -1820190.50245                  23854469.7594
        10.5004         11.2504
  23349765.9504   -2784051.12746  -2116665.52446                  23349768.7164
        15.5004         23.0004
  22029402.4114    9527827.84346   7398438.93048                  22029405.3414
        19.7504         46.5004
 95  4 13 20 54 15.0010000  0  6G 2G 7G12G 4G26G27
  21560979.4424    2477867.33748   1929519.14349                  21560981.9384
        30.2504         63.7504
  20535291.5284   -2596682.54348  -1972503.07049                  20535293.5564
        28.7504         63.7504
                  -5442246.744 6  -4240708.013 5  23091397.458    23091401.474
        12.250          11.750
  23846586.6224   -2487811.41445  -1852453.97245                  23846591.2284
        11.0004         11.7504
  23352311.5364   -2770674.70246  -2106242.34246                  23352314.4544
        15.5004         25.5004
  22039308.2944    9579884.13847   7439002.26348                  22039311.3534
        20.0004         46.5004
 95  4 13 20 54 30.0010000  0  6G 2G 7G12G 4G26G27
  21564349.6924    2495577.29648   1943319.10949                  21564352.1304
        30.5004         63.7504
  20537664.8804   -2584211.20048  -1962785.13949                  20537666.8374
        28.7504         63.7504
                  -5469814.645 6  -4262189.481 5  23086151.521    23086155.524
        12.250          11.500
  23838710.7784   -2529198.32345  -1884703.46346                  23838715.9464
        11.2504         12.5004
  23354882.1144   -2757166.16246  -2095716.20946                  23354884.5404
        15.5004         25.5004
  22049235.0054    9632047.31347   7479648.86948                  22049237.9704
        20.2504         47.2504
 95  4 13 20 54 45.0010000  0  6G 2G 7G12G 4G26G27
  21567728.9034    2513336.03548   1957157.07949                  21567731.4934
        30.2504         63.7504
  20540058.7314   -2571630.74848  -1952982.19049                  20540060.7244
        28.5004         63.7504
                  -5497354.315 6  -4283648.950 5  23080910.989    23080914.638
        12.500          11.500
  23830839.5134   -2570561.21945  -1916934.23046                  23830843.7434
        11.2504         12.5004
  23357479.6224   -2743518.24246  -2085081.47847                  23357482.2714
        15.5004         26.7504
  22059182.4894    9684321.16146   7520381.72048                  22059185.5014
        19.7504         45.2504
 95  4 13 20 55  0.0010000  0  6G 2G 7G12G 4G26G27
  21571117.4664    2531142.33848   1971032.11849                  21571120.1034
        30.2504         63.7504
  20542473.0524   -2558943.12248  -1943095.72349                  20542474.9744
        28.2504         63.7504
                  -5524867.271 6  -4305087.611 5  23075675.606    23075679.220
        12.500          11.500
  23822972.8174   -2611900.63845  -1949146.72945                  23822977.6104
        11.5004         11.7504
  23360102.7554   -2729731.79546  -2074338.79846                  23360105.3454
        15.2504         25.5004
  22069149.9034    9736700.68147   7561196.90648                  22069152.7394
        20.2504         45.2504
 95  4 13 20 55 15.0010000  0  6G 2G 7G12G 4G26G27
  21574516.2474    2549002.91548   1984949.44349                  21574518.9784
        30.2504         63.7504
  20544909.3334   -2546140.66748  -1933119.78649                  20544911.2904
        28.2504         63.7504
                  -5552346.507 6  -4326499.997 5  23070446.333    23070450.044
        12.500          11.750
  23815112.0284   -2653210.58745  -1981336.26346                  23815116.8104
        11.7504         13.0004
  23362754.1144   -2715799.83546  -2063482.73247                  23362757.1264
        15.2504         26.2504
  22079138.9114    9789192.63547   7602099.71348                  22079141.7594
        20.2504         45.7504
 95  4 13 20 55 30.0010000  0  6G 2G 7G12G 4G26G27
  21577923.7314    2566908.86848   1998902.13249                  21577926.4624
        30.7504         63.7504
  20547366.0914   -2533231.01948  -1923060.32149                  20547368.1774
        28.5004         63.7504
                  -5579800.179 6  -4347892.455 6  23065221.942    23065225.942
        12.500          12.000
  23807255.1774   -2694498.34346  -2013508.50746                  23807258.7514
        12.0004         13.0004
  23365430.7714   -2701733.31846  -2052521.81946                  23365433.6184
        15.2504         25.0004
  22089147.4584    9841787.95947   7643083.05848                  22089150.4704
        20.2504         45.7504
 95  4 13 20 55 45.0010000  0  6G 2G 7G12G 4G26G27
  21581340.5834    2584864.22848   2012893.31849                  21581343.3024
        30.7504         63.7504
  20549844.1144   -2520208.55948  -1912912.94949                  20549846.1184
        28.5004         63.7504
                  -5607223.098 6  -4369260.949 6  23060003.685    23060007.423
        12.750          12.250
  23799404.4114   -2735754.94145  -2045656.44746                  23799408.4424
        11.7504         14.5004
  23368133.8024   -2687528.10146  -2041452.82846                  23368136.2164
        15.2504         25.0004
  22099176.1304    9894488.99347   7684148.78148                  22099179.3534
        20.0004         46.5004
 95  4 13 20 56  0.0010000  0  6G 2G 7G12G 4G26G27
  21584765.8494    2602864.23848   2026919.29849                  21584768.6034
        30.7504         63.7504
  20552342.8254   -2507076.11248  -1902679.86849                  20552344.7474
        28.2504         63.7504
                  -5634618.787 6  -4390608.230 6  23054790.450    23054794.325
        12.750          12.250
  23791559.3334   -2776981.52645  -2077781.02246                  23791563.4114
        11.5004         12.5004
  23370862.6614   -2673189.30546  -2030279.74346                  23370865.3214
        15.5004         24.2504
  22109223.0444    9947286.46746   7725289.65248                  22109226.0094
        19.7504         44.5004
 95  4 13 20 56 15.0010000  0  6G 2G 7G12G 4G26G27
  21588201.0754    2620916.01648   2040985.61549                  21588203.7944
        31.2504         63.7504
  20554864.8724   -2493822.97648  -1892352.75049                  20554866.8994
        28.5004         63.7504
                  -5661979.481 6  -4411928.238 6  23049583.771    23049587.786
        12.750          12.250
  23783721.0214   -2818171.01545  -2109876.67946                  23783725.3564
        11.5004         12.5004
  23373618.0834   -2658710.56646  -2018997.61047                  23373620.4154
        15.7504         26.2504
  22119289.1534   10000184.64447   7766508.99248                  22119291.8964
        20.0004         45.2504
 95  4 13 20 56 30.0010000  0  6G 2G 7G12G 4G26G27
  21591645.2084    2639015.61948   2055089.19949                  21591647.9624
        31.5004         63.7504
  20557409.7314   -2480449.56248  -1881931.90949                  20557411.6884
        28.2504         63.7504
                  -5689307.986 6  -4433223.164 6  23044383.364    23044387.146
        12.750          12.250
  23775889.3494   -2859326.70945  -2141946.00045                  23775892.7244
        11.0004         11.7504
  23376398.6384   -2644095.84546  -2007609.52047                  23376400.9584
        15.5004         26.2504
  22129373.7394   10053178.96046   7807803.24348                  22129376.5524
        19.7504         45.2504
 95  4 13 20 56 45.0010000  0  6G 2G 7G12G 4G26G27
  21595102.7864    2657184.78248   2069246.98649                  21595105.5524
        31.5004         63.7504
  20559981.6774   -2466934.62548  -1871400.78649                  20559983.6344
        28.2504         63.7504
                  -5716584.058 6  -4454477.231 6  23039192.849    23039196.622
        12.750          12.250
  23768067.8964   -2900427.55545  -2173972.60245                  23768071.1184
        10.7504         11.7504
  23379208.4584   -2629328.67946  -1996102.63746                  23379211.4234
        15.2504         25.5004
  22139481.2244   10106291.25747   7849189.43348                  22139484.2004
        20.0004         44.0004
 95  4 13 20 57  0.0010000  0  6G 2G 7G12G 4G26G27
  21598572.1694    2675415.78548   2083452.95849                  21598574.8884
        31.7504         63.7504
  20562578.4504   -2453288.67648  -1860767.58049                  20562580.6064
        28.2504         63.7504
                  -5743816.895 6  -4475697.612 6  23034010.552    23034014.317
        12.750          12.250
  23760255.5364   -2941483.33045  -2205964.07645                  23760259.5444
        11.0004         11.7504
  23382045.9744   -2614420.29846  -1984485.73047                  23382048.3294
        15.2504         26.2504
  22149608.6924   10159513.27446   7890661.11048                  22149611.6924
        19.7504         45.7504
 95  4 13 20 57 15.0010000  0  6G 2G 7G12G 4G26G27
  21602050.6384    2693695.64148   2097696.99649                  21602053.1464
        31.7504         63.7504
  20565197.5524   -2439525.44648  -1850042.98249                  20565199.8134
        28.0004         63.7504
                  -5771018.518 6  -4496893.672 6  23028834.247    23028838.017
        12.750          12.250
  23752448.9354   -2982504.69645  -2237928.73145                  23752452.7434
        11.2504         11.7504
  23384907.1534   -2599384.27346  -1972769.35446                  23384909.8254
        15.5004         25.0004
  22159755.3884   10212833.90746   7932209.63348                  22159758.5284
        19.7504         44.5004
 95  4 13 20 57 30.0010000  0  6G 2G 7G12G 4G26G27
  21605539.6694    2712031.20848   2111984.44749                  21605542.2474
        31.2504         63.7504
  20567840.1064   -2425637.67947  -1839221.34649                  20567842.4504
        27.7504         63.7504
                  -5798180.433 6  -4518058.790 6  23023665.474    23023669.446
        13.000          12.500
  23744651.1224   -3023483.70445  -2269860.38245                  23744654.4034
        11.2504         11.2504
  23387793.8804   -2584213.05646  -1960947.64046                  23387796.5054
        15.5004         25.5004
  22169922.0674   10266261.46546   7973841.47948                  22169925.0324
        19.5004         42.5004
 95  4 13 20 57 45.0010000  0  6G 2G 7G12G 4G26G27
  21609033.6224    2730391.77848   2126291.38249                  21609036.2244
        31.5004         63.7504
  20570500.2554   -2411659.33547  -1828329.12649                  20570502.4934
        27.7504         63.7504
                  -5825335.434 6  -4539218.517 6  23018498.067    23018502.032
        13.000          12.500
  23736854.7864   -3064453.17745  -2301784.62046                  23736858.1144
        11.7504         13.7504
  23390700.7784   -2568937.84146  -1949044.87747                  23390703.6854
        15.5004         26.7504
  22180102.8884   10319762.38546   8015530.48548                  22180105.9354
        19.0004         44.5004
 95  4 13 20 58  0.0010000  0  6G 2G 7G12G 4G26G27
  21612539.5754    2748815.69048   2140647.67149                  21612541.9664
        31.5004         63.7504
  20573184.7244   -2397552.47647  -1817336.76749                  20573187.0444
        27.7504         63.7504
                  -5852445.752 6  -4560343.423 6  23013339.231    23013343.052
        13.000          12.750
  23729067.1694   -3105377.30246  -2333673.49546                  23729070.6144
        12.0004         16.5004
  23393635.5444   -2553517.27946  -1937028.86047                  23393637.9584
        15.7504         27.5004
  22190305.5834   10373377.84346   8057308.74248                  22190308.5954
        19.0004         43.2504
 95  4 13 20 58 15.0010000  0  6G 2G 7G12G 4G26G27
  21616053.8104    2767283.49848   2155038.16749                  21616056.3414
        31.2504         63.7504
  20575890.4354   -2383333.74747  -1806257.23549                  20575892.6264
        27.7504         63.7504
                  -5879530.268 6  -4581448.235 6  23008185.239    23008189.087
        12.750          12.500
  23721283.8964   -3146277.70545  -2365543.88046                  23721287.4934
        11.7504         14.5004
  23396594.0524   -2537969.43946  -1924913.66546                  23396596.1614
        15.7504         25.5004
  22200527.2244   10427092.59346   8099164.37248                  22200530.3764
        19.0004         40.5004
 95  4 13 20 58 30.0010000  0  6G 2G 7G12G 4G26G27
  21619575.2084    2785789.36548   2169458.32249                  21619577.6924
        31.5004         63.7504
  20578616.1224   -2369010.60448  -1795096.33949                  20578618.4664
        28.0004         63.7504
                  -5906595.086 6  -4602537.683 6  23003034.841    23003038.735
        12.750          12.500
  23713503.8254   -3187160.42046  -2397400.52046                  23713507.3174
        12.2504         15.0004
  23399576.2474   -2522300.08546  -1912703.78646                  23399578.4384
        15.7504         24.2504
  22210766.2714   10480900.57046   8141092.64548                  22210769.2714
        18.7504         40.5004
 95  4 13 20 58 45.0010000  0  6G 2G 7G12G 4G26G27
  21623106.6924    2804347.58048   2183919.26449                  21623109.0954
        31.5004         63.7504
  20581363.5134   -2354572.59147  -1783845.93649                  20581365.7514
        27.7504         63.7504
                  -5933625.717 6  -4623600.501 6  22997891.060    22997894.942
        12.750          12.500
  23705730.6854   -3228010.26246  -2429231.52346                  23705734.2714
        12.7504         14.5004
  23402583.0364   -2506497.43746  -1900390.03846                  23402585.4974
        15.5004         25.0004
  22221026.3254   10534814.75046   8183103.67148                  22221029.2784
        19.0004         43.2504
 95  4 13 20 59  0.0010000  0  6G 2G 7G12G 4G26G27
  21626651.2164    2822973.17348   2198432.71049                  21626653.7124
        31.0004         63.7504
  20584135.1774   -2340006.87247  -1772496.02249                  20584137.5094
        27.7504         63.7504
                  -5960606.281 6  -4644624.302 6  22992756.833    22992760.642
        13.000          12.500
  23697966.3494   -3268811.75946  -2461024.86246                  23697970.0524
        12.7504         17.7504
  23405618.3024   -2490546.51046  -1887960.75447                  23405621.1854
        15.0004         28.2504
  22231309.2394   10588851.45146   8225210.17148                  22231311.9234
        19.0004         42.5004
 95  4 13 20 59 15.0010000  0  6G 2G 7G12G 4G26G27
  21630205.8254    2841652.68448   2212988.16849                  21630208.3564
        31.2504         63.7504
  20586928.3644   -2325328.64447  -1761058.43449                  20586930.5094
        27.7504         63.7504
                  -5987548.284 6  -4665618.061 6  22987630.138    22987633.806
        13.000          12.500
  23690208.9034   -3309577.53446  -2492790.37146                  23690212.9934
        13.0004         15.7504
  23408679.8414   -2474457.52246  -1875423.89246                  23408682.8534
        14.7504         25.5004
  22241612.5214   10642996.16346   8267400.83548                  22241615.3804
        19.0004         42.5004
 95  4 13 20 59 30.0010000  0  6G 2G 7G12G 4G26G27
  21633769.0754    2860377.36348   2227578.82349                  21633771.6424
        31.2504         63.7504
  20589741.6534   -2310544.80247  -1749538.55649                  20589743.9154
        27.7504         63.7504
                  -6014461.177 6  -4686589.127 6  22982508.427    22982512.505
        13.000          12.500
  23682456.5524   -3350318.74746  -2524536.73246                  23682460.2204
        13.7504         16.5004
  23411765.3964   -2458243.41846  -1862789.52747                  23411768.3494
        15.2504         26.2504
  22251934.0284   10697236.22146   8309665.79048                  22251937.0754
        18.7504         42.0004
 95  4 13 20 59 45.0010000  0  6G 2G 7G12G 4G26G27
  21637341.1144    2879148.62348   2242205.77849                  21637343.7744
        31.0004         63.7504
  20592575.2084   -2295654.44847  -1737935.67749                  20592577.5174
        27.7504         63.7504
                  -6041345.653 6  -4707538.057 6  22977392.560    22977396.638
        12.750          12.500
  23674708.3494   -3391035.04546  -2556263.67646                  23674712.0174
        13.7504         16.5004
  23414874.7714   -2441905.14146  -1850058.40947                  23414877.8994
        15.5004         26.2504
  22262273.3254   10751569.51246   8352003.39648                  22262276.3604
        19.0004         41.2504
 95  4 13 21  0  0.0010000  0  6G 2G 7G12G 4G26G27
  21640921.2314    2897962.79948   2256866.17149                  21640923.8454
        31.0004         63.7504
  20595429.0214   -2280656.69647  -1726249.11749                  20595431.4704
        27.7504         63.7504
                  -6068203.227 6  -4728466.020 6  22972281.708    22972285.786
        13.000          12.500
  23666965.0674   -3431726.30046  -2587971.11646                  23666968.7244
        13.2504         15.7504
  23418007.0914   -2425445.34246  -1837232.60947                  23418009.8684
        15.5004         26.7504
  22272630.5834   10805996.30446   8394413.85848                  22272633.5484
        19.5004         43.2504
 95  4 13 21  0 15.0010000  0  6G 2G 7G12G 4G26G27
  21644511.3414    2916829.57548   2271567.55449                  21644514.0834
        31.0004         63.7504
  20598305.9114   -2265538.93647  -1714469.03749                  20598308.3964
        27.5004         63.7504
                  -6095021.992 6  -4749363.749 6  22967178.294    22967182.200
        13.000          12.500
  23659229.1224   -3472378.27946  -2619647.95246                  23659233.0134
        13.2504         15.0004
  23421163.7554   -2408854.64046  -1824304.80347                  23421166.7314
        14.7504         26.2504
  22283007.0754   10860525.44646   8436904.08248                  22283010.0634
        19.0004         41.2504
 95  4 13 21  0 30.0010000  0  6G 2G 7G12G 4G26G27
  21648111.1304    2935746.69648   2286308.16749                  21648113.9424
        30.7504         63.7504
  20601204.4424   -2250306.93047  -1702599.93849                  20601206.8214
        27.5004         63.7504
                  -6121805.933 6  -4770234.334 6  22962081.341    22962085.376
        13.000          12.500
  23651500.5834   -3512992.69846  -2651295.51146                  23651504.7554
        13.0004         13.7504
  23424344.6384   -2392138.69446  -1811279.38846                  23424347.2164
        15.0004         24.2504
  22293401.1304   10915147.91146   8479467.01948                  22293404.0364
        19.0004         42.5004
 95  4 13 21  0 45.0010000  0  6G 2G 7G12G 4G26G27
  21651721.7474    2954721.20948   2301093.50249                  21651724.4664
        30.2504         63.7504
  20604125.5134   -2234956.76747  -1690638.76849                  20604127.9854
        27.5004         63.7504
                  -6148548.227 6  -4791072.474 6  22956992.583    22956996.349
        13.000          12.500
  23643780.4664   -3553563.51346  -2682909.10246                  23643784.5214
        12.5004         16.5004
  23427550.5914   -2375291.09446  -1798151.39546                  23427553.4384
        15.0004         25.5004
  22303814.2394   10969870.61546   8522108.07048                  22303817.4624
        19.0004         41.2504
 95  4 13 21  1  0.0010000  0  6G 2G 7G12G 4G26G27
  21655345.3564    2973761.92048   2315930.41749                  21655348.1924
        30.7504         63.7504
  20607070.7944   -2219479.09247  -1678578.23749                  20607073.1734
        27.5004         63.7504
                  -6175241.461 6  -4811872.383 6  22951913.021    22951916.915
        13.250          12.500
  23636068.8644   -3594084.35246  -2714483.75446                  23636072.8374
        12.0004         15.0004
  23430783.5674   -2358303.12446  -1784914.02846                  23430786.0874
        15.5004         25.0004
  22314249.1304   11024704.02346   8564835.37948                  22314252.0714
        19.0004         42.5004
 95  4 13 21  1 15.0010000  0  6G 2G 7G12G 4G26G27
  21658978.3334    2992854.05448   2330807.40249                  21658981.3214
        30.2504         63.7504
  20610037.3334   -2203889.86647  -1666430.78549                  20610039.7474
        27.2504         63.7504
                  -6201902.168 6  -4832646.949 6  22946839.497    22946843.517
        13.000          12.750
  23628364.7474   -3634568.82545  -2746030.05546                  23628369.0244
        11.5004         14.5004
  23434040.6534   -2341187.25546  -1771576.99946                  23434043.6424
        15.5004         25.5004
  22324701.7394   11079632.03146   8607636.40148                  22324704.7284
        19.2504         40.0004
 95  4 13 21  1 30.0010000  0  6G 2G 7G12G 4G26G27
  21662622.9424    3012007.54348   2345732.19449                  21662625.7554
        29.7504         63.7504
  20613026.9424   -2188179.05547  -1654188.59149                  20613029.4034
        27.2504         63.7504
                  -6228524.246 6  -4853391.407 6  22941773.458    22941777.599
        13.000          12.750
  23620669.9114   -3675007.64845  -2777540.78946                  23620674.4584
        11.7504         17.7504
  23437322.9424   -2323938.49746  -1758136.41446                  23437325.8254
        15.5004         24.2504
  22335173.2554   11134660.54346   8650515.73748                  22335176.0674
        19.0004         40.5004
 95  4 13 21  1 45.0010000  0  6G 2G 7G12G 4G26G27
  21666280.0214    3031225.02548   2360706.85249                  21666282.9154
        29.7504         63.7504
  20616039.9354   -2172345.00747  -1641850.37149                  20616042.3724
        27.2504         63.7504
                  -6255106.524 6  -4874104.855 6  22936715.239    22936719.146
        13.500          13.000
  23612983.3564   -3715397.59145  -2809013.43545                  23612988.3964
        11.5004         11.2504
  23440631.2084   -2306553.88446  -1744589.97146                  23440633.7284
        15.2504         24.2504
  22345664.3024   11189791.34746   8693474.78147                  22345667.1734
        18.7504         39.2504
 95  4 13 21  2  0.0010000  0  6G 2G 7G12G 4G26G27
  21669950.2714    3050511.56748   2375735.32449                  21669953.0244
        29.7504         63.7504
  20619077.3884   -2156383.64747  -1629412.94449                  20619079.7434
        27.0004         63.7504
                  -6281641.886 6  -4894781.747 6  22931665.724    22931669.579
        13.750          13.000
  23605308.1774   -3755730.26945  -2840441.45946                  23605312.5714
        11.5004         18.2504
  23443967.3884   -2289023.15346  -1730929.67346                  23443970.3174
        15.0004         25.0004
  22356176.4274   11245032.40446   8736519.73747                  22356179.3454
        19.0004         38.7504
 95  4 13 21  2 15.0010000  0  6G 2G 7G12G 4G26G27
  21673632.9424    3069865.12548   2390816.01849                  21673635.5794
        29.7504         63.7504
  20622137.7784   -2140301.14547  -1616881.12249                  20622140.2514
        27.0004         63.7504
                  -6308132.956 6  -4915424.128 6  22926624.536    22926628.548
        13.750          13.000
  23597643.9114   -3796007.53945  -2871826.28945                  23597647.7084
        11.7504         11.7504
  23447330.2004   -2271350.42146  -1717158.72146                  23447332.8254
        14.7504         25.0004
  22366708.8804   11300379.40046   8779647.24448                  22366711.8104
        19.0004         41.2504
 95  4 13 21  2 30.0010000  0  6G 2G 7G12G 4G26G27
  21677323.9744    3089261.98248   2405930.44949                  21677326.6104
        29.7504         63.7504
  20625215.3104   -2124128.65247  -1604279.17549                  20625217.7004
        27.0004         63.7504
                  -6334607.959 6  -4936053.986 6  22921586.489    22921590.470
        13.750          13.000
  23589984.3104   -3836258.35146  -2903190.53146                  23589988.2354
        12.0004         17.0004
  23450714.4354   -2253564.32046  -1703299.42546                  23450717.1424
        14.5004         21.5004
  22377255.6064   11355803.29946   8822834.67147                  22377258.6064
        19.0004         37.2504
 95  4 13 21  2 45.0010000  0  6G 2G 7G12G 4G26G27
  21681024.9974    3108710.27748   2421084.96049                  21681027.5994
        29.2504         63.7504
  20628311.6854   -2107857.90347  -1591600.66649                  20628314.1694
        27.0004         63.7504
                  -6361057.211 6  -4956663.783 6  22916553.372    22916557.388
        13.750          13.000
  23582331.1224   -3876475.19946  -2934528.31246                  23582335.1534
        12.5004         16.5004
  23454122.4974   -2235656.42046  -1689345.22446                  23454125.1694
        14.7504         24.2504
  22387819.1464   11411315.32546   8866090.77247                  22387822.2044
        18.7504         38.7504
 95  4 13 21  3  0.0010000  0  6G 2G 7G12G 4G26G27
  21684739.6774    3128232.15948   2436296.81149                  21684742.4314
        28.7504         63.7504
  20631430.9664   -2091464.75447  -1578826.78549                  20631433.3454
        26.7504         63.7504
                  -6387457.040 6  -4977235.062 6  22911529.505    22911533.587
        13.750          13.000
  23574689.4974   -3916634.61846  -2965821.34246                  23574694.4664
        13.0004         15.7504
  23457557.9274   -2217603.00746  -1675277.63846                  23457560.7044
        14.7504         21.5004
  22398403.7394   11466938.77446   8909433.69147                  22398406.7864
        18.2504         37.2504
 95  4 13 21  3 15.0010000  0  6G 2G 7G12G 4G26G27
  21688468.0834    3147825.52848   2451564.37149                  21688470.7904
        29.0004         63.7504
  20634573.3884   -2074950.62547  -1565958.62949                  20634575.8374
        26.7504         63.7504
                  -6413809.188 6  -4997769.191 6  22906515.036    22906518.950
        13.750          13.250
  23567058.2394   -3956737.22846  -2997070.08346                  23567061.8374
        13.5004         17.7504
  23461020.3644   -2199407.23546  -1661099.12746                  23461023.1424
        14.7504         23.5004
  22409008.5604   11522668.05346   8952859.07747                  22409011.9234
        17.7504         37.2504
 95  4 13 21  3 30.0010000  0  6G 2G 7G12G 4G26G27
  21692209.4664    3167485.97448   2466884.19649                  21692212.2554
        28.7504         63.7504
  20637738.6854   -2058317.41647  -1552997.68649                  20637741.1344
        27.0004         63.7504
                  -6440114.081 6  -5018266.499 6  22901509.388    22901513.290
        14.000          13.250
  23559437.3564   -3996784.80446  -3028275.96446                  23559441.0484
        13.7504         15.7504
  23464509.5214   -2181072.79246  -1646812.55046                  23464512.4854
        14.7504         25.0004
  22419633.1144   11578500.98346   8996365.22947                  22419636.7354
        17.2504         36.0004
 95  4 13 21  3 45.0010000  0  6G 2G 7G12G 4G26G27
  21695963.9354    3187215.42648   2482257.79149                  21695966.6064
        28.7504         63.7504
  20640927.4114   -2041560.49847  -1539940.34949                  20640929.8964
        27.0004         63.7504
                  -6466366.329 6  -5038722.787 6  22896513.739    22896517.825
        14.000          13.500
  23551826.6224   -4036777.43246  -3059439.02146                  23551830.3254
        14.0004         15.0004
  23468025.3644   -2162596.16446  -1632415.19446                  23468028.1304
        14.7504         24.2504
  22430278.2474   11634441.95546   9039955.56947                  22430281.7514
        17.0004         35.2504
 95  4 13 21  4  0.0010000  0  6G 2G 7G12G 4G26G27
  21699730.1304    3207008.00648   2497680.58349                  21699732.7314
        28.5004         63.7504
  20644138.6854   -2024684.59047  -1526790.28649                  20644141.0524
        27.0004         63.7504
                  -6492567.528 6  -5059139.294 6  22891527.661    22891531.794
        14.000          13.500
  23544226.7244   -4076718.75746  -3090562.08946                  23544230.0874
        14.7504         19.0004
  23471568.3884   -2143977.61646  -1617907.24346                  23471571.4114
        14.7504         23.5004
  22440943.7314   11690489.47246   9083628.92947                  22440947.1654
        17.0004         35.2504
 95  4 13 21  4 15.0010000  0  6G 2G 7G12G 4G26G27
  21703506.6924    3226853.46748   2513144.57649                  21703509.3534
        28.7504         63.7504
  20647371.1774   -2007698.89247  -1513554.67749                  20647373.6144
        27.0004         63.7504
                  -6518726.979 6  -5079523.266 6  22886549.771    22886553.696
        14.000          13.250
  23536633.3884   -4116619.66346  -3121653.67946                  23536636.8214
        14.0004         15.7504
  23475136.3964   -2125228.68746  -1603297.69846                  23475138.9034
        14.7504         22.2504
  22451628.3964   11746635.68746   9127379.19547                  22451631.8884
        17.2504         36.0004
 95  4 13 21  4 30.0010000  0  6G 2G 7G12G 4G26G27
  21707293.2554    3246752.20648   2528650.08349                  21707295.9624
        28.5004         63.7504
  20650624.4034   -1990602.88847  -1500233.11649                  20650626.8644
        27.0004         63.7504
                  -6544846.783 6  -5099876.350 6  22881579.427    22881583.200
        14.250          13.500
  23529048.2394   -4156482.45146  -3152715.55146                  23529051.7674
        14.2504         19.7504
  23478728.0444   -2106351.65946  -1588588.32646                  23478730.6224
        15.0004         23.0004
  22462331.1534   11802879.35246   9171205.40047                  22462334.4464
        17.5004         34.7504
 95  4 13 21  4 45.0010000  0  6G 2G 7G12G 4G26G27
  21711091.0214    3266710.11948   2544201.70249                  21711093.7744
        28.2504         63.7504
  20653900.9894   -1973384.72447  -1486816.36549                  20653903.3214
        27.0004         63.7504
                  -6570917.047 6  -5120190.828 6  22876618.567    22876622.294
        14.250          13.500
  23521471.0134   -4196298.23046  -3183740.79946                  23521474.6694
        13.7504         19.0004
  23482347.1064   -2087335.45246  -1573770.51646                  23482349.4034
        15.0004         23.5004
  22473054.2244   11859229.21446   9215114.35547                  22473057.7864
        17.7504         34.7504
 95  4 13 21  5  0.0010000  0  6G 2G 7G12G 4G26G27
  21714898.6464    3286719.15948   2559793.15749                  21714901.4464
        28.2504         63.7504
  20657199.6464   -1956050.26447  -1473308.99549                  20657202.0714
        27.0004         63.7504
                  -6596943.795 6  -5140471.401 6  22871665.841    22871669.505
        14.500          13.750
  23513902.0914   -4236071.16546  -3214732.66646                  23513905.3964
        13.5004         18.2504
  23485991.2554   -2068183.94746  -1558847.27246                  23485993.2824
        14.7504         23.0004
  22483796.1694   11915678.62446   9259100.87947                  22483799.2394
        17.7504         35.2504
 95  4 13 21  5 15.0010000  0  6G 2G 7G12G 4G26G27
  21718716.6924    3306783.21248   2575427.48249                  21718719.3884
        28.2504         63.7504
  20660521.0054   -1938596.48747  -1459708.64949                  20660523.4894
        27.0004         63.7504
                  -6622923.640 6  -5160715.429 6  22866722.052    22866725.739
        14.500          13.750
  23506342.8494   -4275795.52346  -3245686.67346                  23506346.6464
        13.2504         17.7504
  23489662.2164   -2048894.51446  -1543816.55346                  23489664.7244
        15.0004         25.5004
  22494557.8564   11972232.14446   9303168.52447                  22494561.2314
        17.7504         38.0004
 95  4 13 21  5 30.0010000  0  6G 2G 7G12G 4G26G27
  21722543.0364    3326890.55248   2591095.54249                  21722545.8844
        28.2504         63.7504
  20663862.4744   -1921035.27247  -1446024.58449                  20663865.0174
        26.7504         63.7504
                  -6648868.223 6  -5180931.970 6  22861784.856    22861788.731
        14.750          14.000
  23498790.8494   -4315482.29646  -3276611.39246                  23498795.1144
        13.0004         17.7504
  23493356.3724   -2029480.83246  -1528689.02147                  23493358.7514
        14.7504         26.2504
  22505337.7634   12028879.21446   9347309.07847                  22505340.9854
        18.0004         35.2504
 95  4 13 21  5 45.0010000  0  6G 2G 7G12G 4G26G27
  21726378.6614    3347047.23548   2606802.04149                  21726381.6734
        28.0004         63.7504
  20667225.3724   -1903364.33747  -1432255.02549                  20667227.9854
        26.7504         63.7504
                  -6674774.227 6  -5201118.454 6  22856854.927    22856859.044
        14.500          14.000
  23491246.8104   -4355126.56746  -3307502.98146                  23491250.9464
        12.7504         19.0004
  23497075.3254   -2009938.94946  -1513461.59346                  23497078.4194
        14.5004         25.0004
  22516135.7474   12085623.80046   9391525.60447                  22516139.1574
        17.7504         36.7504
 95  4 13 21  6  0.0010000  0  6G 2G 7G12G 4G26G27
  21730224.8644    3367260.07947   2622552.30849                  21730227.9354
        27.5004         63.7504
  20670609.4584   -1885580.78647  -1418397.71349                  20670612.0484
        26.7504         63.7504
                  -6700637.296 6  -5221271.481 6  22851933.427    22851937.341
        14.750          14.000
  23483712.4974   -4394719.22746  -3338354.36746                  23483716.8564
        12.5004         19.0004
  23500819.2714   -1990264.15346  -1498130.59046                  23500822.4114
        14.7504         22.2504
  22526953.2944   12142470.06046   9435821.37247                  22526956.6344
        18.0004         36.0004
 95  4 13 21  6 15.0010000  0  6G 2G 7G12G 4G26G27
  21734083.3494    3387536.77247   2638352.33049                  21734086.5834
        27.7504         63.7504
  20674015.9504   -1867678.85747  -1404448.15449                  20674018.5634
        26.7504         63.7504
                  -6726451.194 6  -5241386.196 6  22847021.153    22847025.083
        14.750          14.000
  23476189.7244   -4434250.70646  -3369158.07446                  23476194.2124
        12.2504         17.7504
  23504589.1304   -1970451.85646  -1482692.44946                  23504592.2124
        14.7504         25.0004
  22537791.0214   12199422.25146   9480199.67347                  22537794.4894
        17.7504         35.2504
 95  4 13 21  6 30.0010000  0  6G 2G 7G12G 4G26G27
  21737954.8564    3407880.32948   2654204.44849                  21737957.9854
        28.0004         63.7504
  20677444.8724   -1849659.25547  -1390406.90749                  20677447.5444
        26.2504         63.7504
                  -6752216.581 6  -5261463.111 6  22842118.231    22842122.091
        14.750          14.000
  23468678.3964   -4473721.93646  -3399914.83046                  23468682.7674
        12.2504         17.0004
  23508385.2714   -1950504.85646  -1467149.34246                  23508387.9784
        14.7504         21.5004
  22548648.1614   12256477.34146   9524658.15547                  22548651.6884
        17.7504         34.7504
 95  4 13 21  6 45.0010000  0  6G 2G 7G12G 4G26G27
  21741836.5444    3428279.17147   2670099.64649                  21741839.7904
        27.5004         63.7504
  20680894.4034   -1831530.94147  -1376280.94849                  20680896.9814
        26.7504         63.7504
                  -6777942.457 6  -5281509.240 6  22837222.669    22837226.587
        14.750          14.000
  23461176.9354   -4513142.40546  -3430632.03546                  23461181.3534
        12.5004         16.5004
  23512204.3804   -1930434.39146  -1451510.02247                  23512206.9814
        15.0004         26.7504
  22559522.5674   12313622.54246   9569186.86247                  22559525.9544
        17.7504         35.2504
 95  4 13 21  7  0.0010000  0  6G 2G 7G12G 4G26G27
  21745728.1534    3448729.21347   2686034.74249                  21745731.2944
        27.7504         63.7504
  20684363.8494   -1813299.71247  -1362074.79349                  20684366.3564
        26.2504         63.7504
                  -6803631.630 6  -5301526.764 6  22832334.169    22832338.165
        14.750          13.750
  23453685.0214   -4552513.51846  -3461310.77546                  23453689.4384
        12.5004         19.0004
  23516046.0834   -1910246.08946  -1435778.88946                  23516048.8964
        14.7504         20.2504
  22570413.7784   12370854.69246   9613783.31947                  22570417.0364
        17.7504         34.0004
 95  4 13 21  7 15.0010000  0  6G 2G 7G12G 4G26G27
  21749630.9814    3469238.97447   2702016.37449                  21749634.1104
        27.7504         63.7504
  20687854.3024   -1794959.44247  -1347783.67049                  20687856.7394
        26.7504         63.7504
                  -6829277.338 6  -5321510.419 6  22827453.989    22827457.739
        14.750          14.000
  23446204.1464   -4591830.02646  -3491946.97046                  23446208.4114
        13.2504         18.2504
  23519911.1614   -1889935.74446  -1419952.65646                  23519913.7284
        14.2504         14.5004
  22581322.5214   12428180.84046   9658453.01247                  22581326.0834
        17.2504         32.7504
 95  4 13 21  7 30.0010000  0  6G 2G 7G12G 4G26G27
  21753545.5994    3489810.03647   2718045.77149                  21753548.7284
        27.7504         63.7504
  20691365.9194   -1776505.87747  -1333404.26849                  20691368.3214
        26.7504         63.7504
                  -6854876.612 6  -5341457.898 6  22822582.638    22822586.438
        14.750          14.000
  23438732.1064   -4631092.01546  -3522540.67946                  23438736.7594
        13.7504         17.0004
  23523799.2864   -1869501.90246  -1404030.20046                  23523801.8064
        14.2504         23.5004
  22592249.3494   12485602.06746   9703196.80247                  22592252.6424
        17.2504         32.7504
 95  4 13 21  7 45.0010000  0  6G 2G 7G12G 4G26G27
  21757471.4504    3510440.57348   2734121.51149                  21757474.5094
        28.0004         63.7504
  20694898.0364   -1757942.62347  -1318939.39849                  20694900.4854
        26.7504         63.7504
                  -6880432.633 6  -5361371.671 6  22817719.481    22817723.142
        14.750          13.750
  23431270.2004   -4670305.27546  -3553096.43346                  23431274.0794
        14.0004         17.7504
  23527711.1774   -1848947.87846  -1388014.07845                  23527713.3804
        14.7504         11.7504
  22603193.1064   12543112.59646   9748010.17447                  22603196.6574
        17.0004         32.7504
 95  4 13 21  8  0.0010000  0  6G 2G 7G12G 4G26G27
  21761407.1694    3531122.65948   2750237.44249                  21761410.0994
        28.2504         63.7504
  20698449.7474   -1739278.05947  -1304395.57749                  20698452.1494
        26.7504         63.7504
                  -6905952.674 6  -5381257.405 6  22812863.169    22812866.794
        15.000          13.750
  23423815.9424   -4709478.20046  -3583620.74746                  23423820.0094
        14.7504         17.7504
  23531643.8024   -1828279.05146  -1371908.74042                  23531647.6224
        14.5004          2.0004
  22614152.6614   12600704.95546   9792887.31047                  22614155.9894
        16.7504         33.5004
 95  4 13 21  8 15.0010000  0  6G 2G 7G12G 4G26G27
  21765355.8804    3551873.55848   2766406.94349                  21765358.7394
        28.5004         63.7504
  20702024.4664   -1720493.08347  -1289757.93449                  20702026.8334
        26.5004         63.7504
                  -6931417.392 6  -5401100.030 6  22808017.583    22808021.001
        15.000          13.750
  23416372.1854   -4748595.41146  -3614101.65646                  23416376.0174
        14.7504         18.2504
  23535603.4974   -1807475.51746  -1355697.95546                  23535605.9814
        15.0004         24.2504
  22625130.4274   12658394.25546   9837839.97747                  22625133.9544
        16.7504         33.5004
 95  4 13 21  8 30.0010000  0  6G 2G 7G12G 4G26G27
  21769315.6384    3572680.96248   2782620.50549                  21769318.4974
        28.0004         63.7504
  20705620.2944   -1701596.97647  -1275033.69749                  20705622.5914
        26.7504         63.7504
                  -6956837.981 6  -5420908.273 6  22803180.075    22803183.517
        15.000          13.500
  23408936.4504   -4787670.74646  -3644549.93046                  23408940.0244
        14.7504         20.2504
  23539585.1694   -1786548.42546  -1339391.16646                  23539587.8534
        14.7504         21.5004
  22636124.8024   12716167.78746   9882858.28447                  22636128.2594
        16.5004         32.7504
 95  4 13 21  8 45.0010000  0  6G 2G 7G12G 4G26G27
  21773283.8334    3593533.81448   2798869.48049                  21773286.6574
        28.5004         63.7504
  20709236.0674   -1682596.09247  -1260227.81249                  20709238.2944
        26.5004         63.7504
                  -6982221.389 6  -5440687.542 6  22798349.856    22798353.251
        15.000          13.500
  23401507.3414   -4826710.77646  -3674970.69746                  23401510.5874
        15.2504         21.0004
  23543589.4194   -1765504.84946  -1322993.59646                  23543592.0324
        14.5004         19.7504
  22647133.2944   12774021.73546   9927939.25447                  22647136.8214
        16.2504         32.0004
 95  4 13 21  9  0.0010000  0  6G 2G 7G12G 4G26G27
  21777263.8024    3614449.90448   2815167.72949                  21777266.6614
        28.2504         63.7504
  20712875.0524   -1663473.97747  -1245327.45949                  20712877.2084
        26.7504         63.7504
                  -7007548.591 6  -5460423.014 6  22793530.130    22793533.638
        15.000          13.500
  23394089.0134   -4865693.73246  -3705346.99346                  23394092.4584
        14.7504         20.2504
  23547620.0054   -1744325.10846  -1306489.89746                  23547623.0284
        14.2504         21.0004
  22658162.2314   12831975.85946   9973098.28147                  22658165.6304
        16.5004         30.7504
 95  4 13 21  9 15.0010000  0  6G 2G 7G12G 4G26G27
  21781255.6694    3635426.07448   2831512.79349                  21781258.6104
        28.5004         63.7504
  20716535.2554   -1644239.30547  -1230339.40249                  20716537.4234
        26.7504         63.7504
                  -7032825.714 6  -5480119.455 6  22788720.013    22788723.642
        15.000          13.750
  23386680.4744   -4904626.49746  -3735684.17046                  23386683.9424
        14.7504         19.7504
  23551675.2634   -1723012.56846  -1289882.74546                  23551678.1814
        14.2504         24.2504
  22669208.7084   12890025.56546  10018331.78947                  22669212.4114
        16.2504         28.7504
 95  4 13 21  9 30.0010000  0  6G 2G 7G12G 4G26G27
  21785258.5134    3656462.64248   2847904.92449                  21785261.4784
        28.2504         63.7504
  20720217.5134   -1624889.99047  -1215262.01049                  20720219.5754
        27.0004         63.7504
                  -7058052.511 6  -5499776.689 6  22783919.521    22783923.063
        15.250          13.750
  23379281.0754   -4943509.99646  -3765982.95846                  23379284.2514
        14.7504         20.2504
  23555756.7784   -1701564.47646  -1273169.95646                  23555759.4974
        14.0004         25.0004
  22680273.5284   12948171.64546  10063640.38847                  22680277.1614
        16.5004         30.7504
 95  4 13 21  9 45.0010000  0  6G 2G 7G12G 4G26G27
  21789274.3884    3677565.14648   2864348.43149                  21789277.3414
        28.7504         63.7504
  20723921.5054   -1605423.48147  -1200093.30149                  20723923.6494
        26.2504         63.7504
                  -7083225.346 6  -5519391.874 6  22779129.239    22779132.817
        15.500          13.500
  23371892.4894   -4982336.94646  -3796237.67646                  23371895.9814
        14.0004         22.2504
  23559864.7474   -1679976.59446  -1256348.25146                  23559867.7824
        14.0004         23.5004
  22691357.8724   13006418.02946  10109027.14647                  22691361.1064
        16.2504         30.2504
 95  4 13 21 10  0.0010000  0  6G 2G 7G12G 4G26G27
  21793302.6224    3698733.36848   2880843.15049                  21793305.6344
        28.5004         63.7504
  20727647.3494   -1585844.71147  -1184837.11649                  20727649.6574
        26.2504         63.7504
                  -7108346.431 6  -5538966.740 6  22774348.872    22774352.313
        15.250          13.500
  23364514.9584   -5021105.56546  -3826446.95146                  23364519.1064
        14.0004         20.2504
  23563999.4584   -1658250.55246  -1239418.87046                  23564002.3644
        14.5004         23.5004
  22702460.1924   13064764.92546  10154492.23747                  22702463.6614
        16.0004         30.2504
 95  4 13 21 10 15.0010000  0  6G 2G 7G12G 4G26G27
  21797343.1614    3719967.97648   2897389.59049                  21797346.1854
        28.2504         63.7504
  20731395.0134   -1566149.88547  -1169490.49849                  20731397.3924
        26.2504         63.7504
                  -7133412.956 6  -5558499.084 6  22769578.856    22769582.399
        15.500          13.500
  23357149.7944   -5059811.15846  -3856607.10246                  23357153.5214
        13.7504         19.7504
  23568160.6854   -1636384.11046  -1222380.10146                  23568163.3684
        14.5004         23.5004
  22713583.1144   13123213.77146  10200036.76247                  22713586.6654
        16.5004         32.0004
 95  4 13 21 10 30.0010000  0  6G 2G 7G12G 4G26G27
  21801398.2864    3741276.27748   2913993.46349                  21801401.1814
        28.5004         63.7504
  20735166.5834   -1546331.77647  -1154047.81249                  20735168.9384
        26.2504         63.7504
                  -7158418.071 6  -5577983.582 6  22764820.435    22764824.103
        15.000          13.750
  23349796.9974   -5098444.84946  -3886711.23246                  23349800.9934
        13.2504         19.7504
  23572348.8334   -1614374.33446  -1205229.64246                  23572351.4234
        14.2504         22.2504
  22724726.9504   13181775.11246  10245668.94747                  22724730.6884
        16.5004         32.0004
 95  4 13 21 10 45.0010000  0  6G 2G 7G12G 4G26G27
  21805465.5054    3762650.96448   2930649.05949                  21805468.4584
        28.5004         63.7504
  20738959.0834   -1526401.85847  -1138518.00749                  20738961.3804
        26.2504         63.7504
                  -7183370.309 6  -5597426.873 6  22760072.302    22760075.771
        15.250          13.750
  23342458.1774   -5137012.42046  -3916763.84746                  23342462.1144
        13.7504         20.2504
  23576563.3804   -1592229.28746  -1187973.77846                  23576565.8174
        14.5004         25.0004
  22735891.9114   13240446.17246  10291386.62947                  22735895.2164
        16.7504         29.5004
 95  4 13 21 11  0.0010000  0  6G 2G 7G12G 4G26G27
  21809547.5994    3784099.90048   2947362.51149                  21809550.3644
        29.0004         63.7504
  20742772.6224   -1506360.16347  -1122901.10049                  20742775.0014
        26.2504         63.7504
                  -7208265.300 6  -5616825.555 6  22755334.989    22755338.431
        15.250          13.750
  23335132.6224   -5175507.50746  -3946759.96846                  23335136.3024
        13.5004         21.5004
  23580803.7634   -1569945.14746  -1170609.52646                  23580806.1884
        14.2504         22.2504
  22747078.3644   13299231.53446  10337193.37447                  22747081.6694
        17.0004         32.7504
 95  4 13 21 11 15.0010000  0  6G 2G 7G12G 4G26G27
  21813643.2634    3805623.36348   2964134.03949                  21813646.0054
        29.0004         63.7504
  20746607.1064   -1486210.03947  -1107199.70249                  20746609.4384
        26.0004         63.7504
                  -7233106.130 6  -5636182.037 6  22750607.903    22750611.380
        15.250          13.750
  23327820.4034   -5213934.28646  -3976702.87146                  23327824.1654
        14.0004         21.0004
  23585070.2164   -1547524.32046  -1153138.77346                  23585072.8644
        14.2504         21.5004
  22758285.7244   13358126.31946  10383085.39347                  22758289.1104
        16.5004         30.7504
 95  4 13 21 11 30.0010000  0  6G 2G 7G12G 4G26G27
  21817754.1224    3827225.81548   2980967.11549                  21817756.7824
        29.5004         63.7504
  20750463.9114   -1465943.12547  -1091407.30149                  20750466.1034
        26.2504         63.7504
                  -7257887.770 6  -5655492.397 6  22745891.974    22745895.513
        15.250          13.750
  23320522.4424   -5252287.40346  -4006588.37146                  23320526.0994
        14.2504         24.2504
  23589363.7864   -1524961.64746  -1135557.47346                  23589366.8334
        14.5004         21.0004
  22769514.3724   13417134.62046  10429065.85447                  22769517.8994
        16.2504         31.5004
 95  4 13 21 11 45.0010000  0  7G 2G 7G12G 9G 4G26G27
  21821881.1144    3848912.58548   2997865.89549                  21821883.7394
        29.5004         63.7504
  20754344.4034   -1445550.30547  -1075516.79149                  20754346.6884
        26.2504         63.7504
                  -7282603.035 6  -5674751.032 6  22741188.833    22741192.380
        15.000          14.000
  24612438.333       -5170.60315
         8.250
  23313240.2474   -5290556.71146  -4036408.56946                  23313243.6574
        14.7504         21.5004
  23593684.9194   -1502253.25546  -1117862.64246                  23593687.4974
        14.5004         24.2504
  22780765.6534   13476261.35946  10475138.61147                  22780769.5674
        16.2504         30.7504
 95  4 13 21 12  0.0010000  0  7G 2G 7G12G 9G 4G26G27
  21826021.5054    3870671.30248   3014820.73549                  21826024.0244
        29.5004         63.7504
  20758246.8254   -1425044.46847  -1059538.21349                  20758249.1694
        26.2504         63.7504
                  -7307261.480 6  -5693965.392 6  22736496.435    22736499.989
        15.000          14.000
  24605059.2634     -43949.16945
         8.2504
  23305971.3724   -5328752.21946  -4066171.26746                  23305975.3214
        14.5004         20.2504
  23598031.7634   -1479410.23446  -1100062.89346                  23598034.3884
        14.5004         21.0004
  22792037.5754   13535494.48346  10521294.26547                  22792041.0794
        16.2504         31.5004
 95  4 13 21 12 15.0010000  0  7G 2G 7G12G 9G 4G26G27
  21830176.8174    3892506.70948   3031835.33449                  21830179.4314
        29.5004         63.7504
  20762172.0444   -1404415.94247  -1043464.03449                  20762174.4114
        26.0004         63.7504
                  -7331854.936 6  -5713129.111 6  22731816.575    22731819.974
        15.250          14.000
  24597689.8334     -82675.23245
         8.7504
  23298717.9504   -5366869.20946  -4095872.78046                  23298721.7824
        14.7504         22.2504
  23602405.7784   -1456424.31246  -1082151.79646                  23602408.4504
        14.2504         21.0004
  22803330.6224   13594839.16746  10567536.83747                  22803334.4784
        16.2504         28.7504
 95  4 13 21 12 30.0010000  0  7G 2G 7G12G 9G 4G26G27
  21834344.2784    3914407.71148   3048901.04549                  21834346.9504
        29.5004         63.7504
  20766118.9744   -1383675.02947  -1027302.28249                  20766121.3294
        26.0004         63.7504
                  -7356392.284 6  -5732249.112 6  22727147.192    22727150.653
        15.250          14.000
  24590328.8964    -121355.90745    -16069.25855                  24590332.0364
         9.0004         10.5004
  23291477.2004   -5404920.48246  -4125523.08346                  23291481.2674
        14.7504         22.2504
  23606805.1304   -1433305.88646  -1064137.46046                  23606808.0244
        14.0004         21.0004
  22814642.6384   13654284.02446  10613857.48047                  22814646.4934
        16.0004         30.2504
 95  4 13 21 12 45.0010000  0  7G 2G 7G12G 9G 4G26G27
  21838525.4744    3936379.65248   3066022.03549                  21838528.1694
        29.5004         63.7504
  20770087.9974   -1362816.89947  -1011049.19249                  20770090.3884
        26.0004         63.7504
                  -7380868.097 6  -5751321.161 6  22722489.630    22722493.106
        15.250          14.250
  24582978.0054    -159985.32345    -46170.04345                  24582982.1884
         9.0004         10.5004
  23284248.9504   -5442900.95446  -4155118.21746                  23284252.6184
        15.2504         23.5004
  23611230.8644   -1410048.92446  -1046015.16746                  23611234.1694
        14.2504         21.0004
  22825973.9974   13713833.06646  10660259.29547                  22825977.9464
        15.7504         29.5004
 95  4 13 21 13  0.0010000  0  7G 2G 7G12G 9G 4G26G27
  21842720.2004    3958422.59648   3083198.35249                  21842722.9784
        29.7504         63.7504
  20774079.9744   -1341839.58947   -994703.23249                  20774082.2944
        26.2504         63.7504
                  -7405281.944 6  -5770344.924 6  22717843.669    22717847.294
        15.250          14.250
  24575637.3024    -198561.92545    -76229.72445                  24575640.7004
         9.5004          8.5004
  23277035.3414   -5480810.38246  -4184657.99846                  23277038.8564
        15.5004         22.2504
  23615682.8884   -1386652.91846  -1027784.52546                  23615685.8534
        14.2504         21.5004
  22837325.1224   13773482.14846  10706739.07447                  22837328.8374
        15.7504         28.2504
 95  4 13 21 13 15.0010000  0  7G 2G 7G12G 9G 4G26G27
  21846926.8104    3980530.64048   3100425.39149                  21846929.5634
        29.5004         63.7504
  20778094.9354   -1320741.29147   -978263.00149                  20778097.3024
        26.2504         63.7504
                  -7429636.738 6  -5789322.675 6  22713209.192    22713212.688
        15.250          14.250
  24568306.2394    -237089.28345   -106251.01245                  24568309.3684
        10.0004          7.7504
  23269834.4194   -5518652.79046  -4214145.56146                  23269837.8414
        15.7504         23.0004
  23620160.5444   -1363123.46946  -1009449.89846                  23620163.5094
        14.5004         22.2504
  22848694.0674   13833224.34346  10753291.40147                  22848697.8644
        15.7504         28.2504
 95  4 13 21 13 30.0010000  0  7G 2G 7G12G 9G 4G26G27
  21851146.5214    4002704.56948   3117703.77949                  21851149.3104
        29.2504         63.7504
  20782134.4114   -1299513.40047   -961721.78349                  20782136.6964
        26.0004         63.7504
                  -7453927.633 6  -5808250.632 6  22708586.794    22708590.235
        15.250          14.250
  24560984.5604    -275561.68645   -136229.48945                  24560987.9584
        10.0004          8.5004
  23262647.0444   -5556422.89546  -4243576.78546                  23262650.1384
        16.2504         22.2504
  23624664.0444   -1339455.48246   -991007.32646                  23624666.4114
        14.2504         21.5004
  22860080.6304   13893063.55446  10799919.32947                  22860084.3454
        15.5004         28.2504
 95  4 13 21 13 45.0010000  0  7G 2G 7G12G 9G 4G26G27
  21855379.1384    4024947.26748   3135035.74649                  21855381.7984
        29.7504         63.7504
  20786199.3884   -1278151.22147   -945075.93049                  20786201.6614
        26.0004         63.7504
                  -7478150.304 6  -5827125.431 6  22703977.442    22703980.763
        15.500          14.250
  24553675.7314    -313971.83845   -166159.44445                  24553679.3294
        10.0004          9.7504
  23255473.9194   -5594117.82646  -4272949.42446                  23255477.2004
        16.0004         23.5004
  23629195.1464   -1315646.60846   -972454.97646                  23629197.8294
        14.2504         23.0004
  22871486.8334   13953003.46346  10846625.72847                  22871491.1104
        15.2504         26.7504
 95  4 13 21 14  0.0010000  0  7G 2G 7G12G 9G 4G26G27
  21859624.8964    4047257.84748   3152420.61349                  21859627.5444
        29.5004         63.7504
  20790289.5754   -1256657.65447   -928327.69649                  20790291.8964
        25.7504         63.7504
                  -7502304.432 6  -5845946.823 6  22699381.130    22699384.474
        15.500          14.250
  24546379.3414    -352315.82345   -196037.83745                  24546382.8214
        10.2504          9.7504
  23248315.0754   -5631737.89946  -4302263.74546                  23248318.4034
        16.0004         23.0004
  23633752.4354   -1291697.31646   -953793.20046                  23633755.3414
        14.5004         21.5004
  22882912.0364   14013043.21146  10893409.91446                  22882916.0914
        15.0004         25.5004
 95  4 13 21 14 15.0010000  0  7G 2G 7G12G 9G 4G26G27
  21863882.7864    4069633.06948   3169855.84849                  21863885.3884
        29.5004         63.7504
  20794403.4274   -1235039.14347   -911482.09949                  20794405.7944
        25.7504         63.7504
                  -7526394.195 6  -5864718.056 6  22694796.935    22694800.235
        15.500          14.500
  24539094.8644    -390595.82445   -225866.41145                  24539097.6424
        10.2504          9.2504
  23241169.5284   -5669287.66646  -4331523.26546                  23241172.6694
        15.7504         24.2504
  23638335.2784   -1267613.08546   -935026.28746                  23638337.7394
        14.2504         23.0004
  22894355.7244   14073177.97546  10940268.14147                  22894359.7674
        15.5004         29.5004
 95  4 13 21 14 30.0010000  0  7G 2G 7G12G 9G 4G26G27
  21868153.3334    4092075.53848   3187343.48549                  21868155.9704
        29.7504         63.7504
  20798540.8884   -1213296.62547   -894539.87649                  20798543.2084
        25.7504         63.7504
                  -7550420.789 6  -5883440.069 6  22690224.700    22690228.224
        15.500          14.750
  24531822.4424    -428812.71245   -255645.75445                  24531825.3604
        10.2504          9.2504
  23234037.8024   -5706766.24846  -4360727.32546                  23234040.9074
        15.7504         24.2504
  23642943.8494   -1243395.57846   -916155.51446                  23642946.5794
        14.2504         21.5004
  22905816.7714   14133408.09446  10987200.67347                  22905820.8254
        15.0004         28.2504
 95  4 13 21 14 45.0010000  0  7G 2G 7G12G 9G 4G26G27
  21872437.4584    4114589.13648   3204886.54649                  21872439.9424
        29.2504         63.7504
  20802701.7554   -1191429.45647   -877500.52249                  20802704.1224
        25.5004         63.7504
                  -7574382.775 6  -5902111.737 6  22685664.841    22685668.438
        15.500          14.750
  24524561.2554    -466967.11545   -285376.43945                  24524564.2204
        10.0004          9.7504
  23226919.8494   -5744168.78746  -4389872.14546                  23226923.3294
        15.0004         21.5004
  23647577.2714   -1219046.34946   -897182.10746                  23647580.2124
        14.2504         21.5004
  22917297.7004   14193738.06846  11034211.01147                  22917301.9074
        15.2504         27.5004
 95  4 13 21 15  0.0010000  0  7G 2G 7G12G 9G 4G26G27
  21876737.0604    4137182.64448   3222491.87349                  21876739.6614
        29.2504         63.7504
  20806888.3564   -1169430.90047   -860358.78949                  20806890.7354
        25.7504         63.7504
                  -7598273.994 6  -5920728.258 6  22681118.521    22681122.013
        15.500          14.750
  24517313.3884    -505055.33945   -315055.53945                  24517316.3994
        10.0004          9.2504
  23219818.7714   -5781485.39946  -4418949.98546                  23219822.3684
        15.0004         23.5004
  23652237.1534   -1194559.02546   -878101.08646                  23652239.9074
        14.2504         22.2504
  22928797.6774   14254174.24046  11081304.09547                  22928801.8374
        14.7504         26.2504
 95  4 13 21 15 15.0010000  0  7G 2G 7G12G 9G 4G26G27
  21881051.9974    4159859.17848   3240161.89649                  21881054.7984
        29.0004         63.7504
  20811099.6224   -1147299.65447   -843113.66249                  20811102.0014
        25.2504         63.7504
                  -7622091.204 6  -5939287.110 6  22676586.216    22676589.774
        15.500          14.750
  24510079.2314    -543074.70945   -344681.01145                  24510081.9274
        10.0004          7.7504
  23212734.6534   -5818712.29946  -4447957.92746                  23212738.3804
        14.7504         22.2504
  23656923.4504   -1169931.95146   -858911.16846                  23656926.9784
        14.2504         21.0004
  22940319.0754   14314718.81646  11128481.65547                  22940323.3174
        14.7504         26.7504
 95  4 13 21 15 30.0010000  0  7G 2G 7G12G 9G 4G26G27
  21885381.1924    4182608.51748   3257888.65049                  21885384.0404
        29.2504         63.7504
  20815334.1534   -1125048.09047   -825774.78049                  20815336.4624
        25.2504         63.7504
                  -7645844.214 6  -5957795.940 6  22672066.153    22672069.763
        15.500          14.750
  24502854.8254    -581035.95245   -374261.17945                  24502857.4974
        10.0004          9.2504
  23205665.6614   -5855858.45746  -4476902.95246                  23205669.4234
        14.5004         24.2504
  23661634.8254   -1145173.66846   -839619.01546                  23661637.6494
        14.2504         22.2504
  22951859.0364   14375360.85146  11175735.15447                  22951863.0674
        14.7504         27.5004
 95  4 13 21 15 45.0010000  0  7G 2G 7G12G 9G 4G26G27
  21889725.9354    4205440.93648   3275680.14549                  21889728.6304
        29.2504         63.7504
  20819592.3104   -1102670.47147   -808337.67349                  20819594.6884
        25.2504         63.7504
                  -7669522.777 6  -5976246.756 6  22667560.169    22667563.755
        15.500          14.750
  24495643.6774    -618929.07145   -403788.25545                  24495646.6884
        10.0004          9.2504
  23198614.6464   -5892913.75546  -4505777.18846                  23198618.2314
        15.0004         22.2504
  23666372.8494   -1120275.30046   -820217.70146                  23666375.6264
        14.2504         21.5004
  22963419.3724   14436110.45546  11223072.47247                  22963423.0994
        15.0004         28.7504
 95  4 13 21 16  0.0010000  0  7G 2G 7G12G 9G 4G26G27
  21894085.2864    4228348.98148   3293530.56649                  21894088.0284
        29.2504         63.7504
  20823871.6464   -1080181.37847   -790813.70449                  20823874.0484
        25.2504         63.7504
                  -7693136.456 6  -5994647.014 6  22663066.599    22663070.220
        15.500          15.000
  24488443.5604    -656766.03945   -433271.58145                  24488445.9504
        10.0004         10.5004
  23191578.4034   -5929888.68046  -4534588.78546                  23191582.3644
        15.2504         25.0004
  23671135.5994   -1095248.55946   -800716.35846                  23671138.7514
        14.0004         21.5004
  22974998.1064   14496957.23246  11270485.51147                  22975001.9034
        15.0004         26.2504
 95  4 13 21 16 15.0010000  0  7G 2G 7G12G 9G 4G26G27
  21898459.0994    4251334.99548   3311441.74049                  21898461.9114
        29.0004         63.7504
  20828172.1304   -1057582.48147   -773204.17449                  20828174.5444
        25.2504         63.7504
                  -7716682.683 6  -6012994.710 6  22658585.950    22658589.704
        15.500          15.000
  24481254.1144    -694547.69745   -462711.82545                  24481256.9034
         9.7504         11.7504
  23184559.0284   -5966778.16646  -4563333.80447                  23184562.6264
        15.7504         26.2504
  23675922.6534   -1070091.54146   -781113.49246                  23675925.3964
        14.2504         23.5004
  22986595.9974   14557903.01046  11317975.70047                  22986600.0284
        15.5004         26.2504
